[[{"header":{"parameterUnit":"m.s-1","parameterCategory":1,"la1":30.6,"la2":29.2853,"lo1":-89.7004,"lo2":-87.6739,"dy":0.0162,"dx":0.0183,"nx":112,"ny":82,"refTime":"2023-04-18T12:00:00:Z","depth":0,"parameterNumber":2,"parameterNumberName":"U-component_of_WINDS"},"data":[0.0,0.0,0.0,0.0,0.0,0.0,0.0,0.0,0.0,0.0,0.0,0.0,0.0,0.0,0.0,0.0,0.0,0.0,0.0,0.0,0.0,0.0,0.0,0.0,0.0,0.0,0.0,0.0,0.0,0.0,0.0,0.0,0.0,0.0,0.0,0.0,0.0,0.0,0.0,0.0,0.0,0.0,0.0,0.0,0.0,0.0,0.0,0.0,0.0,0.0,0.0,0.0,0.0,0.0,0.0,0.0,0.0,0.0,0.0,0.0,0.0,0.0,0.0,0.0,0.0,0.0,0.0,0.0,0.0,0.0,0.0,0.0,0.0,0.0,0.0,0.0,0.0,0.0,0.0,0.0,0.0,0.0,0.0,0.0,0.0,0.0,0.0,0.0,0.0,0.0,5.0752,5.1856,5.2065,5.2,5.179,5.0699,5.0554,5.1856,0.0,0.0,0.0,0.0,0.0,0.0,0.0,0.0,0.0,0.0,0.0,0.0,0.0,0.0,0.0,0.0,0.0,0.0,0.0,0.0,0.0,0.0,0.0,0.0,0.0,0.0,0.0,0.0,0.0,0.0,0.0,0.0,0.0,0.0,0.0,0.0,0.0,0.0,0.0,0.0,0.0,0.0,0.0,0.0,0.0,0.0,0.0,0.0,0.0,0.0,0.0,0.0,0.0,0.0,0.0,0.0,0.0,0.0,0.0,0.0,0.0,0.0,0.0,0.0,0.0,0.0,0.0,0.0,0.0,0.0,0.0,0.0,0.0,0.0,0.0,0.0,0.0,0.0,0.0,0.0,0.0,0.0,0.0,0.0,0.0,0.0,0.0,0.0,0.0,0.0,0.0,0.0,0.0,0.0,0.0,0.0,0.0,0.0,0.0,0.0,0.0,0.0,0.0,0.0,5.1643,5.1292,5.1759,5.1643,5.0445,5.0129,5.0352,5.1189,0.0,0.0,0.0,0.0,0.0,0.0,0.0,0.0,0.0,0.0,0.0,0.0,0.0,0.0,0.0,0.0,0.0,0.0,0.0,0.0,0.0,0.0,0.0,0.0,0.0,0.0,0.0,0.0,0.0,0.0,0.0,0.0,0.0,0.0,0.0,0.0,0.0,0.0,0.0,0.0,0.0,0.0,0.0,0.0,0.0,0.0,0.0,0.0,0.0,0.0,0.0,0.0,0.0,0.0,0.0,0.0,0.0,0.0,0.0,0.0,0.0,0.0,0.0,0.0,0.0,0.0,0.0,0.0,0.0,0.0,0.0,0.0,0.0,0.0,0.0,0.0,0.0,0.0,0.0,0.0,0.0,0.0,0.0,0.0,0.0,0.0,0.0,0.0,0.0,0.0,0.0,0.0,0.0,0.0,0.0,0.0,0.0,0.0,0.0,0.0,0.0,0.0,0.0,5.1856,5.1856,5.1189,5.1393,5.1138,5.0072,4.9664,4.9936,5.1034,5.1086,0.0,0.0,0.0,0.0,0.0,0.0,0.0,0.0,0.0,0.0,0.0,0.0,0.0,0.0,0.0,0.0,0.0,0.0,0.0,0.0,0.0,0.0,0.0,0.0,0.0,0.0,0.0,0.0,0.0,0.0,0.0,0.0,0.0,0.0,0.0,0.0,0.0,0.0,0.0,0.0,0.0,0.0,0.0,0.0,0.0,0.0,0.0,0.0,0.0,0.0,0.0,0.0,0.0,0.0,0.0,0.0,0.0,0.0,0.0,0.0,0.0,0.0,0.0,0.0,0.0,0.0,0.0,0.0,0.0,0.0,0.0,0.0,0.0,0.0,0.0,0.0,0.0,0.0,0.0,0.0,0.0,0.0,0.0,0.0,0.0,0.0,0.0,0.0,0.0,0.0,0.0,0.0,0.0,0.0,0.0,0.0,0.0,0.0,0.0,0.0,0.0,0.0,5.1593,5.1494,5.1138,5.0929,5.0554,4.9821,4.9316,4.958,5.0981,5.1086,0.0,0.0,0.0,0.0,0.0,0.0,0.0,0.0,0.0,0.0,0.0,0.0,0.0,0.0,0.0,0.0,0.0,0.0,0.0,0.0,0.0,0.0,0.0,0.0,0.0,0.0,0.0,0.0,0.0,0.0,0.0,0.0,0.0,0.0,0.0,0.0,0.0,0.0,0.0,0.0,0.0,0.0,0.0,0.0,0.0,0.0,0.0,0.0,0.0,0.0,0.0,0.0,0.0,0.0,0.0,0.0,0.0,0.0,0.0,0.0,0.0,0.0,0.0,0.0,0.0,0.0,0.0,0.0,0.0,0.0,0.0,0.0,0.0,0.0,0.0,0.0,0.0,0.0,0.0,0.0,0.0,0.0,0.0,0.0,0.0,0.0,0.0,0.0,0.0,0.0,0.0,0.0,0.0,0.0,0.0,0.0,0.0,0.0,0.0,0.0,0.0,0.0,5.1343,5.039,5.1034,5.05,4.9821,4.9107,4.9001,4.958,5.0981,5.1086,0.0,0.0,0.0,0.0,0.0,0.0,0.0,0.0,0.0,0.0,0.0,0.0,0.0,0.0,0.0,0.0,0.0,0.0,0.0,0.0,0.0,0.0,0.0,0.0,0.0,0.0,0.0,0.0,0.0,0.0,0.0,0.0,0.0,0.0,0.0,0.0,0.0,0.0,0.0,0.0,0.0,0.0,0.0,0.0,0.0,0.0,0.0,0.0,0.0,0.0,0.0,0.0,0.0,0.0,0.0,0.0,0.0,0.0,0.0,0.0,0.0,0.0,0.0,0.0,0.0,0.0,0.0,0.0,0.0,0.0,0.0,0.0,0.0,0.0,0.0,0.0,0.0,0.0,0.0,0.0,0.0,0.0,0.0,0.0,0.0,0.0,0.0,0.0,0.0,0.0,0.0,0.0,0.0,0.0,0.0,0.0,0.0,0.0,0.0,0.0,0.0,0.0,5.1808,5.1068,5.0445,5.022,4.9756,4.9063,4.9001,4.958,5.0981,0.0,0.0,0.0,0.0,0.0,0.0,0.0,0.0,0.0,0.0,0.0,0.0,0.0,0.0,0.0,0.0,0.0,0.0,0.0,0.0,0.0,0.0,0.0,0.0,0.0,0.0,0.0,0.0,0.0,0.0,0.0,0.0,0.0,0.0,0.0,0.0,0.0,0.0,0.0,0.0,0.0,0.0,0.0,0.0,0.0,0.0,0.0,0.0,0.0,0.0,0.0,0.0,0.0,0.0,0.0,0.0,0.0,0.0,0.0,0.0,0.0,0.0,0.0,0.0,0.0,0.0,0.0,0.0,0.0,0.0,0.0,0.0,0.0,0.0,0.0,0.0,0.0,0.0,0.0,0.0,0.0,0.0,0.0,0.0,0.0,0.0,0.0,0.0,0.0,0.0,0.0,0.0,0.0,0.0,0.0,0.0,0.0,0.0,0.0,0.0,0.0,0.0,5.2159,5.1526,5.0805,5.0072,4.9855,4.9555,4.9063,4.9001,4.958,5.0981,0.0,0.0,0.0,0.0,0.0,0.0,0.0,0.0,0.0,0.0,0.0,0.0,0.0,0.0,0.0,0.0,0.0,0.0,0.0,0.0,0.0,0.0,0.0,0.0,0.0,0.0,0.0,0.0,0.0,0.0,0.0,0.0,0.0,0.0,0.0,0.0,0.0,0.0,0.0,0.0,0.0,0.0,0.0,0.0,0.0,0.0,0.0,0.0,0.0,0.0,0.0,0.0,0.0,0.0,0.0,0.0,0.0,0.0,0.0,0.0,0.0,0.0,0.0,0.0,0.0,0.0,0.0,0.0,0.0,0.0,0.0,0.0,0.0,0.0,0.0,0.0,0.0,0.0,0.0,0.0,0.0,0.0,0.0,0.0,0.0,0.0,0.0,0.0,0.0,0.0,0.0,0.0,0.0,0.0,0.0,0.0,0.0,0.0,0.0,0.0,0.0,0.0,5.2,5.0297,4.9256,4.9919,4.9419,4.9001,4.9001,4.9001,4.958,0.0,0.0,0.0,0.0,0.0,0.0,0.0,0.0,0.0,0.0,0.0,0.0,0.0,0.0,0.0,0.0,0.0,0.0,0.0,0.0,0.0,0.0,0.0,0.0,0.0,0.0,0.0,0.0,0.0,0.0,0.0,0.0,0.0,0.0,0.0,0.0,0.0,0.0,0.0,0.0,0.0,0.0,0.0,0.0,0.0,0.0,0.0,0.0,0.0,0.0,0.0,0.0,0.0,0.0,0.0,0.0,0.0,0.0,0.0,0.0,0.0,0.0,0.0,0.0,0.0,0.0,0.0,0.0,0.0,0.0,0.0,0.0,0.0,0.0,0.0,0.0,0.0,0.0,0.0,0.0,0.0,0.0,0.0,0.0,0.0,0.0,0.0,0.0,0.0,0.0,0.0,0.0,0.0,0.0,0.0,0.0,0.0,0.0,0.0,0.0,0.0,0.0,0.0,5.1444,5.0407,4.9622,4.9299,4.9107,4.9001,4.9001,4.9001,4.958,5.0981,0.0,0.0,0.0,0.0,0.0,0.0,0.0,0.0,0.0,0.0,0.0,0.0,0.0,0.0,0.0,0.0,0.0,0.0,0.0,0.0,0.0,0.0,0.0,0.0,0.0,0.0,0.0,0.0,0.0,0.0,0.0,0.0,0.0,0.0,0.0,0.0,0.0,0.0,0.0,0.0,0.0,0.0,0.0,0.0,0.0,0.0,0.0,0.0,0.0,0.0,0.0,0.0,0.0,0.0,0.0,0.0,0.0,0.0,0.0,0.0,0.0,0.0,0.0,0.0,0.0,0.0,0.0,0.0,0.0,0.0,0.0,0.0,0.0,0.0,0.0,0.0,0.0,0.0,0.0,0.0,0.0,0.0,0.0,0.0,0.0,0.0,0.0,0.0,0.0,0.0,0.0,0.0,0.0,0.0,0.0,0.0,0.0,0.0,0.0,0.0,0.0,0.0,5.1138,5.0185,4.9479,4.9063,4.9001,4.9001,4.9001,4.9001,4.9479,5.0608,0.0,0.0,0.0,0.0,0.0,0.0,0.0,0.0,0.0,0.0,0.0,0.0,0.0,0.0,0.0,0.0,0.0,0.0,0.0,0.0,0.0,0.0,0.0,0.0,0.0,0.0,0.0,0.0,0.0,0.0,0.0,0.0,0.0,0.0,0.0,0.0,0.0,0.0,0.0,0.0,0.0,0.0,0.0,0.0,0.0,0.0,0.0,0.0,0.0,0.0,0.0,0.0,0.0,0.0,0.0,0.0,0.0,0.0,0.0,0.0,0.0,0.0,0.0,0.0,0.0,0.0,0.0,0.0,0.0,0.0,0.0,0.0,0.0,0.0,0.0,0.0,0.0,0.0,0.0,0.0,0.0,0.0,0.0,0.0,0.0,0.0,0.0,0.0,0.0,0.0,0.0,0.0,0.0,0.0,0.0,0.0,0.0,0.0,0.0,0.0,0.0,0.0,5.1086,4.9896,4.9001,4.9001,4.9001,4.9001,4.9001,4.9001,4.9316,4.9976,0.0,0.0,0.0,0.0,0.0,0.0,0.0,0.0,0.0,0.0,0.0,0.0,0.0,0.0,0.0,0.0,0.0,0.0,0.0,0.0,0.0,0.0,0.0,0.0,0.0,0.0,0.0,0.0,0.0,0.0,0.0,0.0,0.0,0.0,0.0,0.0,0.0,0.0,0.0,0.0,0.0,0.0,0.0,0.0,0.0,0.0,0.0,0.0,0.0,0.0,0.0,0.0,0.0,0.0,0.0,0.0,0.0,0.0,0.0,0.0,5.3663,5.3624,0.0,0.0,0.0,0.0,0.0,0.0,0.0,0.0,0.0,0.0,0.0,0.0,0.0,0.0,0.0,0.0,0.0,0.0,0.0,0.0,0.0,0.0,0.0,0.0,0.0,0.0,0.0,0.0,0.0,0.0,0.0,0.0,0.0,0.0,0.0,0.0,0.0,0.0,0.0,0.0,5.1086,4.9896,4.9001,4.9001,4.9001,4.9001,4.9001,4.9001,4.9316,4.9976,4.9976,0.0,0.0,0.0,0.0,0.0,0.0,0.0,0.0,0.0,0.0,0.0,0.0,0.0,0.0,0.0,0.0,0.0,0.0,0.0,0.0,0.0,0.0,0.0,0.0,0.0,0.0,0.0,0.0,0.0,0.0,0.0,0.0,0.0,0.0,0.0,0.0,0.0,0.0,0.0,0.0,0.0,0.0,0.0,0.0,0.0,0.0,0.0,0.0,0.0,0.0,0.0,0.0,0.0,0.0,0.0,0.0,0.0,0.0,0.0,5.3237,5.3381,0.0,0.0,0.0,0.0,0.0,0.0,0.0,0.0,0.0,0.0,0.0,0.0,0.0,0.0,0.0,0.0,0.0,0.0,0.0,0.0,0.0,0.0,0.0,0.0,0.0,0.0,0.0,0.0,0.0,0.0,0.0,0.0,0.0,0.0,0.0,0.0,0.0,0.0,0.0,0.0,5.1086,4.9896,4.9001,4.9001,4.9001,4.9001,4.9001,4.9001,4.9152,4.9521,4.9521,0.0,0.0,0.0,0.0,0.0,0.0,0.0,0.0,0.0,0.0,0.0,0.0,0.0,0.0,0.0,0.0,0.0,0.0,0.0,0.0,0.0,0.0,0.0,0.0,0.0,0.0,0.0,0.0,0.0,0.0,0.0,0.0,0.0,0.0,0.0,0.0,0.0,0.0,0.0,0.0,0.0,0.0,0.0,0.0,0.0,0.0,0.0,0.0,0.0,0.0,0.0,0.0,0.0,4.8306,4.8765,4.9609,5.0288,5.1114,5.2032,5.2711,5.3078,5.3206,5.3206,0.0,0.0,0.0,0.0,0.0,0.0,0.0,0.0,0.0,0.0,0.0,0.0,0.0,0.0,0.0,0.0,0.0,0.0,0.0,0.0,0.0,0.0,0.0,0.0,5.2707,5.2445,5.306,0.0,0.0,0.0,0.0,0.0,0.0,0.0,0.0,0.0,0.0,0.0,5.0929,4.978,4.9001,4.9001,4.9001,4.9001,4.9001,4.9001,4.9001,4.9001,4.9001,4.9256,0.0,0.0,0.0,0.0,0.0,0.0,0.0,0.0,0.0,0.0,0.0,0.0,0.0,0.0,0.0,0.0,0.0,0.0,0.0,0.0,0.0,0.0,0.0,0.0,0.0,0.0,0.0,0.0,0.0,0.0,0.0,0.0,4.9561,4.9561,0.0,0.0,0.0,0.0,0.0,0.0,0.0,0.0,0.0,0.0,0.0,0.0,0.0,4.8306,4.8306,4.8306,4.8306,4.8306,4.8306,4.8765,4.9591,4.9701,5.0563,5.1995,5.2105,0.0,5.3206,5.3206,0.0,0.0,0.0,0.0,0.0,0.0,0.0,0.0,0.0,0.0,0.0,0.0,0.0,0.0,0.0,0.0,0.0,0.0,0.0,0.0,0.0,0.0,5.3103,5.3164,5.3121,5.3103,0.0,5.3103,5.2875,5.2335,5.2159,0.0,0.0,0.0,0.0,0.0,0.0,0.0,5.0241,4.9462,4.9001,4.9001,4.9001,4.9001,4.9001,4.9001,4.9001,4.9001,4.9001,4.9063,4.9107,4.9063,0.0,0.0,0.0,0.0,0.0,0.0,0.0,0.0,0.0,0.0,0.0,0.0,0.0,0.0,0.0,0.0,0.0,0.0,0.0,0.0,0.0,0.0,0.0,0.0,0.0,0.0,0.0,0.0,0.0,4.9589,4.9504,4.9504,4.9872,5.0092,0.0,0.0,0.0,0.0,0.0,0.0,0.0,0.0,0.0,4.8306,4.8306,4.8306,4.8306,4.8306,4.8306,4.8306,4.8306,4.8508,4.8893,4.937,4.9958,5.0674,5.1132,5.1775,5.2564,5.3023,5.3206,5.3206,0.0,0.0,0.0,0.0,5.3206,5.3206,5.3206,5.3206,5.3206,5.3206,0.0,0.0,0.0,0.0,0.0,0.0,0.0,0.0,0.0,0.0,5.3206,5.3206,5.3206,5.3103,5.2662,5.2893,5.3103,0.0,5.2083,5.1874,5.2999,5.2307,0.0,0.0,0.0,5.0823,5.0072,4.9797,4.9436,4.9063,4.9001,4.9001,4.9001,4.9001,4.9001,4.9001,4.9001,4.9001,4.9001,4.9001,4.9001,0.0,0.0,0.0,0.0,0.0,0.0,0.0,0.0,0.0,0.0,0.0,0.0,0.0,0.0,0.0,0.0,0.0,0.0,0.0,0.0,0.0,0.0,0.0,0.0,0.0,0.0,0.0,0.0,4.9416,4.9295,4.9221,4.9561,4.98,0.0,0.0,0.0,0.0,0.0,0.0,4.8744,4.844,4.8306,4.8306,4.8306,4.8306,4.8306,4.8306,4.8306,4.8306,4.8306,4.8306,4.8324,4.8967,4.937,4.9609,5.0215,5.0949,5.1756,5.2564,5.3023,5.3206,5.3206,5.3206,5.3206,5.3206,5.3206,5.3206,5.3206,5.3206,5.3206,5.3206,5.3206,5.3206,5.3206,0.0,0.0,0.0,0.0,5.3206,5.3206,5.3206,5.3206,5.3206,5.3206,5.3042,5.249,5.2813,5.3146,0.0,5.2083,5.1777,5.2999,5.2036,0.0,5.2,5.1393,5.0608,5.0072,4.9913,4.9615,4.9063,4.9001,4.9001,4.9001,4.9001,4.9001,4.9001,4.9001,4.9001,4.9001,4.9001,4.9001,4.9001,0.0,0.0,0.0,0.0,0.0,0.0,0.0,0.0,0.0,0.0,0.0,0.0,0.0,0.0,0.0,0.0,0.0,0.0,0.0,0.0,0.0,0.0,0.0,0.0,0.0,0.0,0.0,0.0,0.0,4.8402,4.8728,0.0,0.0,0.0,0.0,4.893,4.8586,4.8344,4.8344,4.8306,4.8306,4.8306,4.8306,4.8306,4.8306,4.8306,4.8306,4.8306,4.8306,4.8306,4.8306,4.8361,4.882,4.9591,4.9627,5.0105,5.093,5.172,5.2509,5.3206,5.3206,5.3206,5.3206,5.3206,5.3206,5.3206,5.3206,5.3206,5.3206,5.3206,5.3206,5.3206,5.3206,5.3206,0.0,0.0,5.3206,5.3206,5.3206,5.3206,5.3206,5.3206,5.3206,5.3206,5.3146,5.3164,5.298,0.0,5.2112,5.2271,5.306,0.0,5.1343,5.2,5.0911,5.0016,5.0033,4.9479,4.9063,4.9001,4.9001,4.9001,4.9001,4.9001,4.9001,4.9001,4.9001,4.9001,4.9001,4.9001,4.9001,4.9001,4.9001,0.0,0.0,0.0,0.0,0.0,0.0,0.0,0.0,0.0,0.0,0.0,0.0,0.0,0.0,0.0,0.0,0.0,0.0,0.0,0.0,0.0,0.0,0.0,0.0,0.0,0.0,0.0,0.0,4.8674,4.8795,0.0,4.8897,4.8897,4.8813,4.8532,4.8402,4.8306,4.8306,4.8306,4.8306,4.8306,4.8306,4.8306,4.8306,4.8306,4.8306,4.8306,4.8306,4.8306,4.8306,4.8306,4.8471,4.8765,4.8765,4.9242,5.005,5.0325,5.1224,5.2472,5.3004,5.3206,5.3206,5.3206,5.3206,5.3206,5.3206,5.3206,5.3206,5.3206,5.3206,5.3206,5.3206,5.3206,5.3206,5.3206,5.3206,5.3206,5.3206,5.3206,5.3206,5.3206,5.3206,5.3206,5.3206,5.3206,5.3103,5.2875,5.2427,5.2317,5.3042,5.1629,5.0752,5.1952,5.0911,4.9976,4.9976,4.9763,4.9462,4.9063,4.9001,4.9001,4.9001,4.9001,4.9001,4.9001,4.9001,4.9001,4.9001,4.9001,4.9001,4.9001,4.9001,4.9001,0.0,0.0,0.0,0.0,0.0,0.0,0.0,0.0,0.0,0.0,0.0,0.0,0.0,0.0,0.0,0.0,0.0,0.0,0.0,0.0,0.0,0.0,0.0,0.0,0.0,4.9059,4.8847,4.8709,4.8692,4.8692,4.8692,4.8692,4.8604,4.8306,4.8306,4.8306,4.8306,4.8306,4.8306,4.8306,4.8306,4.8306,4.8306,4.8306,4.8306,4.8306,4.8306,4.8306,4.8306,4.8306,4.8306,4.8306,4.8306,4.8636,4.9169,4.9462,5.0215,5.1261,5.2087,5.2564,5.2803,5.2803,5.2968,5.3206,5.3206,5.3206,5.3206,5.3206,5.3206,5.3206,5.3206,5.3206,5.3206,5.3206,5.3206,5.3206,5.3206,5.3206,5.3206,5.3206,5.3206,5.3206,5.3206,5.3206,5.3206,5.3206,5.2831,5.2617,5.3103,5.1825,5.112,5.2271,5.1068,5.0072,5.0352,4.9993,4.9521,4.9063,4.9001,4.9001,4.9001,4.9001,4.9001,4.9001,4.9001,4.9001,4.9001,4.9001,4.9001,4.9001,4.9001,4.9001,4.9001,0.0,0.0,0.0,0.0,0.0,0.0,0.0,0.0,0.0,0.0,0.0,0.0,0.0,0.0,0.0,0.0,0.0,0.0,0.0,0.0,0.0,0.0,0.0,4.8893,4.8884,4.8746,4.8365,4.8306,4.8306,4.8306,4.8306,4.8306,4.8306,4.8306,4.8306,4.8306,4.8306,4.8306,4.8306,4.8306,4.8306,4.8306,4.8306,4.8306,4.8306,4.8306,4.8306,4.8306,4.8306,4.8306,4.8306,4.8306,4.8306,4.8379,4.9205,4.9536,4.9627,5.0472,5.1279,5.1958,5.1958,5.2454,5.3133,5.317,5.317,5.3188,5.3206,5.3206,5.3206,5.3206,5.3206,5.3206,5.3206,5.3206,5.3206,5.3206,5.3206,5.3206,5.3206,5.3206,5.3206,5.3206,5.3206,5.3206,5.3206,5.3206,5.3206,5.3206,5.2599,5.2335,5.3103,5.1343,0.0,5.0981,4.9896,4.9001,4.9001,4.9001,4.9001,4.9001,4.9001,4.9001,4.9001,4.9001,4.9001,4.9001,4.9001,4.9001,4.9001,4.9001,4.9001,4.9001,0.0,0.0,0.0,0.0,0.0,0.0,0.0,0.0,0.0,0.0,0.0,0.0,0.0,0.0,0.0,0.0,0.0,0.0,0.0,0.0,0.0,4.9243,4.8909,4.8897,4.8654,4.8439,4.8326,4.8306,4.8306,4.8306,4.8306,4.8306,4.8306,4.8306,4.8306,4.8306,4.8306,4.8306,4.8306,4.8306,4.8306,4.8306,4.8306,4.8306,4.8306,4.8306,4.8306,4.8306,4.8306,4.8306,4.8306,4.8306,4.8306,4.8324,4.8563,4.8655,4.8802,5.0233,5.0949,5.1132,5.1132,5.1279,5.1555,5.2123,5.2325,5.2435,5.3023,5.3206,5.3206,5.3206,5.3206,5.3206,5.3206,5.3206,5.3206,5.3206,5.3206,5.3206,5.3206,5.3206,5.3206,5.3206,5.3206,5.3206,5.3206,5.3206,5.3206,5.3206,5.2599,5.2335,5.3103,5.1343,0.0,5.0981,4.9896,4.9001,4.9001,4.9001,4.9001,4.9001,4.9001,4.9001,4.9001,4.9001,4.9001,4.9001,4.9001,4.9001,4.9001,4.9001,4.9001,0.0,0.0,0.0,0.0,0.0,0.0,0.0,0.0,0.0,0.0,0.0,0.0,0.0,0.0,0.0,0.0,0.0,0.0,0.0,0.0,0.0,0.0,4.9066,4.89,4.8912,4.8697,4.862,4.8767,4.8656,4.8565,4.8565,4.8398,4.8306,4.8306,4.8306,4.8306,4.8306,4.8306,4.8306,4.8306,4.8306,4.8306,4.8306,4.8306,4.8306,4.8306,4.8306,4.8306,4.8306,4.8306,4.8306,4.8306,4.8306,4.8306,4.8306,4.8306,4.8306,0.0,0.0,0.0,0.0,0.0,5.0802,5.0875,5.1334,5.1499,5.1573,5.205,5.2435,5.2711,5.2711,5.2931,5.3206,5.3206,5.3206,5.3206,5.3206,5.3206,5.3206,5.3206,5.3206,5.3206,5.3206,5.3206,5.3206,5.3206,5.3206,0.0,5.3206,5.2831,5.2725,5.3164,5.1629,5.0608,5.1034,4.9896,4.9001,4.9001,4.9001,4.9001,4.9001,4.9001,0.0,0.0,0.0,4.9001,4.9001,4.9001,0.0,0.0,0.0,4.8798,4.8433,0.0,0.0,0.0,4.5706,4.5504,0.0,0.0,0.0,0.0,0.0,0.0,0.0,0.0,0.0,0.0,0.0,0.0,0.0,0.0,0.0,0.0,4.897,4.8991,4.9011,4.9029,4.9158,4.9454,4.9195,4.8956,4.8897,4.8583,4.8343,4.8306,4.8306,4.8306,4.8306,4.8306,0.0,0.0,0.0,4.8306,4.8306,4.8306,4.8306,4.8306,4.8306,4.8306,4.8306,4.8306,4.8306,4.8306,4.8306,4.8306,4.8306,4.8306,4.8306,4.8306,4.8306,4.8765,4.9536,5.0251,5.0527,5.0527,5.0637,0.0,0.0,5.0765,5.1279,5.1867,5.1958,5.2509,5.3096,5.3188,5.3206,5.3206,5.3206,5.3206,5.3206,5.3206,5.3206,5.3206,5.3206,5.3206,5.3206,5.3206,5.3206,5.3206,5.3206,5.3206,5.3206,5.3206,5.1988,5.1086,5.1086,4.9896,4.9001,4.9001,0.0,0.0,4.9001,4.9001,4.9001,4.9001,4.9001,4.9001,4.9001,4.9001,4.9001,4.9001,4.9001,4.8513,4.7589,4.6678,4.5706,4.4812,4.5561,4.5416,0.0,0.0,0.0,0.0,0.0,0.0,0.0,0.0,0.0,0.0,0.0,0.0,0.0,0.0,0.0,4.9453,4.9377,4.9501,4.9815,4.9862,4.9786,4.9538,4.9419,4.9265,4.8938,4.8822,4.8656,4.8324,4.8306,4.8306,4.8306,4.8306,4.8306,4.8306,4.8306,4.8306,4.8306,4.8306,4.8306,4.8306,0.0,0.0,4.8306,4.8306,4.8306,4.8306,4.8306,4.8306,4.8306,4.8306,4.8306,4.8306,4.8306,4.8398,4.8581,4.8728,4.8783,4.8875,4.9572,4.9811,4.9921,5.0582,5.0912,5.1151,5.1793,5.2105,0.0,5.3023,5.3206,5.3206,5.3206,5.3206,5.3206,5.3206,5.3206,5.3206,5.3206,5.3206,5.3206,5.3206,5.3206,5.3206,5.3206,5.3206,5.3206,5.3206,5.1988,5.1086,5.1086,4.9896,4.9001,4.9001,4.9001,4.9001,4.9001,4.9001,4.9001,4.9001,4.9001,4.9001,4.9001,4.9001,4.9001,4.9001,4.9001,4.8513,4.7589,4.6678,4.5706,4.4812,4.4128,4.3756,0.0,0.0,0.0,0.0,0.0,0.0,0.0,0.0,0.0,0.0,0.0,5.0567,5.0183,0.0,4.999,4.9555,4.9683,4.9876,5.0084,5.0279,5.0337,5.0106,4.9913,4.9726,4.9533,4.9148,4.8803,4.862,4.8398,4.8306,4.8306,4.8306,4.8306,4.8306,4.8306,4.8306,4.8306,4.8306,4.8306,4.8306,4.8306,4.8306,4.8306,4.8306,4.8306,4.8306,4.8306,4.8306,4.8306,4.8306,4.8306,4.8306,4.8306,4.8306,4.8306,4.8306,4.8306,4.8361,4.8802,4.8948,4.9022,4.9426,4.9848,5.027,5.0674,5.1353,5.2068,5.2491,5.2894,5.3206,5.3206,5.3206,5.3206,5.3206,5.3206,5.3206,5.3206,5.3206,5.3206,5.3206,5.3206,5.3206,5.3206,5.3206,5.3206,5.3206,5.2289,5.1494,5.1138,5.0146,4.9359,4.9063,4.9001,4.9001,4.9001,4.9001,4.9001,4.9001,4.9001,4.9001,4.9001,4.9001,4.9001,4.9001,4.8513,4.7868,4.6884,4.5977,4.5005,4.4082,4.3551,4.3329,0.0,0.0,0.0,0.0,0.0,0.0,0.0,5.0702,5.0702,5.0702,5.0702,5.0567,5.0183,5.0165,5.0091,4.9676,4.9952,5.0221,5.0221,5.0491,5.0702,5.0702,5.0414,5.0202,5.0106,4.9514,4.9065,4.8897,4.8601,4.8379,4.8306,4.8306,4.8306,4.8306,4.8306,4.8306,4.8306,4.8306,4.8306,4.8306,4.8306,4.8306,4.8306,4.8306,4.8306,4.8306,4.8306,4.8306,4.8306,4.8306,4.8306,4.8306,4.8306,4.8306,4.8306,4.8306,4.8306,4.8306,4.8306,4.8306,4.8306,4.8306,4.8783,4.937,4.9536,5.06,5.1793,5.1958,5.2582,5.3206,5.3206,5.3206,5.3206,5.3206,5.3206,5.3206,5.3206,5.3206,5.3206,5.3206,5.3206,5.3206,5.3206,5.3206,5.3206,5.3206,5.2554,5.1856,5.1189,5.0462,4.9722,4.9046,4.9001,4.9001,4.9001,4.9001,4.9001,4.9001,4.9001,4.9001,4.9001,4.9001,4.9001,4.9001,4.808,4.7172,4.6173,4.5285,4.4297,4.3329,4.3329,4.3329,5.0702,5.0702,5.0702,5.0702,5.0702,5.0702,0.0,5.0702,5.0702,5.0702,5.0702,5.0567,5.0183,5.039,5.0483,5.0086,5.0375,5.0625,5.0625,5.0664,5.0702,5.0702,5.0664,5.0491,5.0125,5.0024,4.9675,4.8955,4.8879,4.8675,4.8324,4.8306,4.8306,4.8306,4.8306,4.8306,4.8306,4.8306,4.8306,4.8306,4.8306,4.8306,4.8306,4.8306,4.8306,4.8306,4.8306,4.8306,4.8306,4.8306,4.8306,4.8306,4.8306,4.8306,4.8306,4.8306,4.8306,4.8306,4.8306,4.8306,4.8306,4.8306,4.8379,4.86,4.9352,5.0215,5.1077,5.1793,5.2582,5.3206,5.3206,5.3206,5.3206,5.3206,5.3206,5.3206,5.3206,5.3206,5.3206,5.3206,5.3206,5.3206,5.3206,5.3206,5.3206,5.3206,5.2554,5.1856,5.1189,5.0462,4.9722,4.9046,4.9001,4.9001,4.9001,4.9001,4.9001,4.9001,4.9001,4.9001,4.9001,4.9001,4.9001,4.9001,4.808,4.7172,4.6173,4.5285,4.4297,4.3329,4.3329,4.3329,5.0702,5.0702,5.0702,5.0702,5.0702,5.0702,5.0702,5.0702,5.0702,5.0702,5.0702,5.0644,5.0471,5.0587,5.0644,5.0471,5.0587,5.0702,5.0702,5.0702,5.0702,5.0702,5.0702,5.0625,5.0471,5.024,4.9959,4.9614,4.9145,4.8822,4.8656,4.8416,4.8306,4.8306,4.8306,4.8306,4.8306,4.8306,4.8306,4.8306,4.8306,4.8306,4.8306,4.8306,4.8306,4.8306,4.8306,4.8306,4.8306,4.8306,4.8306,4.8306,4.8306,4.8306,4.8306,4.8306,4.8306,4.8306,4.8306,4.8306,4.8306,4.8306,4.8306,4.8379,4.8728,4.9777,5.0879,5.1202,5.221,5.3206,5.3206,5.3206,5.3206,5.3206,5.3206,5.3206,5.3206,5.3206,5.3206,5.3206,5.3206,5.3206,5.3206,5.3206,5.3206,5.3206,5.2937,5.2353,5.1241,5.0823,5.0202,4.9107,4.9001,4.9001,4.9001,4.9001,4.9001,4.9001,4.9001,4.9001,4.9001,4.9001,4.9001,4.9001,4.7523,4.6592,4.6173,4.4706,4.3693,4.3329,4.3329,4.3329,5.0702,5.0702,5.0702,5.0702,5.0702,5.0702,5.0702,5.0702,5.0702,5.0702,5.0702,5.0702,5.0702,5.0702,5.0702,5.0702,5.0702,5.0702,5.0702,5.0702,5.0702,5.0702,5.0702,5.0702,5.0702,5.0433,5.0221,5.0106,4.9561,4.9148,4.8897,4.862,4.8398,4.8306,4.8306,4.8306,4.8306,4.8306,4.8306,4.8306,4.8306,4.8306,4.8306,4.8306,4.8306,4.8306,4.8306,4.8306,4.8306,4.8306,4.8306,4.8306,4.8306,4.8306,4.8306,4.8306,4.8306,4.8306,4.8306,4.8306,4.8306,4.8306,4.8306,4.8306,4.8306,4.9485,5.0812,5.0798,5.1972,5.3206,5.3206,5.3206,5.3206,5.3206,5.3206,5.3206,5.3206,5.3206,5.3206,5.3206,5.3206,5.3206,5.3206,5.3206,5.3206,5.3206,5.3206,5.2743,5.1562,5.1034,5.0369,4.9107,4.9001,4.9001,4.9001,4.9001,4.9001,4.9001,4.9001,4.9001,4.9001,4.9001,4.9001,4.9001,4.7373,4.6454,4.6189,4.4555,4.3551,4.3329,4.3329,4.3329,5.0702,5.0702,5.0702,5.0702,5.0702,5.0702,5.0702,5.0702,5.0702,5.0702,5.0702,5.0702,5.0702,5.0702,5.0702,5.0702,5.0702,5.0702,5.0702,5.0702,5.0702,5.0702,5.0702,5.0702,5.0702,5.0683,5.051,5.0125,5.0086,4.9721,4.8936,4.8897,4.8693,4.8324,4.8306,4.8306,4.8306,4.8306,4.8306,4.8306,4.8306,4.8306,4.8306,4.8306,4.8306,4.8306,4.8306,4.8306,4.8306,4.8306,4.8306,4.8306,4.8306,4.8306,4.8306,4.8306,4.8306,4.8306,4.8306,4.8306,4.8306,4.8306,4.8306,4.8306,4.8306,4.9469,5.08,5.0787,5.1977,5.3206,5.3206,5.3206,5.3206,5.3206,5.3206,5.3206,5.3206,5.3206,5.3206,5.3206,5.3206,5.3206,5.3206,5.3206,5.3206,5.3206,5.3206,5.2937,5.2159,5.0858,4.978,4.9046,4.9001,4.9001,4.9001,4.9001,4.9001,4.9001,4.9001,4.9001,4.9001,4.9001,4.9001,4.9001,4.808,4.7088,4.6173,4.5211,4.422,4.3329,4.3329,4.3329,5.0702,5.0702,5.0702,5.0702,5.0702,5.0702,5.0702,5.0702,5.0702,5.0702,5.0702,5.0702,5.0702,5.0702,5.0702,5.0702,5.0702,5.0702,5.0702,5.0702,5.0702,5.0702,5.0702,5.0702,5.0702,5.0702,5.0644,5.051,5.026,4.9982,4.9714,4.9195,4.8822,4.8693,4.8434,4.8306,4.8306,4.8306,4.8306,4.8306,4.8306,4.8306,4.8306,4.8306,4.8306,4.8306,4.8306,4.8306,4.8306,4.8306,4.8306,4.8306,4.8306,4.8306,4.8306,4.8306,4.8306,4.8306,4.8306,4.8306,4.8306,4.8306,4.8306,4.8306,4.8306,4.945,5.078,5.079,5.1943,5.3206,5.3206,5.3206,5.3206,5.3206,5.3206,5.3206,5.3206,5.3206,5.3206,5.3206,5.3206,5.3206,5.3206,5.3206,5.3206,5.3206,5.2769,5.2224,5.1562,5.1034,5.0314,4.9107,4.9419,4.9462,4.9063,4.9001,4.9001,4.9001,4.9001,4.9001,4.9001,4.9001,4.9001,4.9001,4.808,4.7172,4.6173,4.5285,4.4297,4.3329,4.3329,4.3329,5.0702,5.0702,5.0702,5.0702,5.0702,5.0702,5.0702,5.0702,5.0702,5.0702,5.0702,5.0702,5.0702,5.0702,5.0702,5.0702,5.0702,5.0702,5.0702,5.0702,5.0702,5.0702,5.0702,5.0702,5.0702,5.0702,5.0702,5.0702,5.0452,5.026,5.0106,4.9606,4.921,4.8897,4.8656,4.8434,4.8306,4.8306,4.8306,4.8306,4.8306,4.8306,4.8306,4.8306,4.8306,4.8306,4.8306,4.8306,4.8306,4.8306,4.8306,4.8306,4.8306,4.8306,4.8306,4.8306,4.8306,4.8306,4.8306,4.8306,4.8306,4.8306,4.8306,4.8306,4.8306,4.945,5.0798,5.078,5.1956,5.3206,5.3206,5.3206,5.3206,5.3206,5.3206,5.3206,5.3206,5.3206,5.3206,5.3206,5.3206,5.3206,5.3206,5.3206,5.3206,5.3206,5.2787,5.2224,5.1544,5.1444,5.0929,4.9521,4.9739,4.9739,4.9063,4.9001,4.9001,4.9001,4.9001,4.9001,4.9001,4.9001,4.9001,4.9001,4.8433,4.7655,4.6678,4.5778,4.4781,4.3849,4.3488,4.3329,5.0702,5.0702,5.0702,5.0702,5.0702,5.0702,5.0702,5.0702,5.0702,5.0702,5.0702,5.0702,5.0702,5.0702,5.0702,5.0702,5.0702,5.0702,5.0702,5.0702,5.0702,5.0702,5.0702,5.0702,5.0702,5.0702,5.0702,5.0702,5.0702,5.0529,5.0144,5.0106,4.9727,4.8956,4.8917,4.8712,4.8306,4.8306,4.8306,4.8306,4.8306,4.8306,4.8306,4.8306,4.8306,4.8306,4.8306,4.8306,4.8306,4.8306,4.8306,4.8306,4.8306,4.8306,4.8306,4.8306,4.8306,4.8306,4.8306,4.8306,4.8306,4.8306,4.8306,4.8306,4.8306,4.945,5.0798,5.078,5.1956,5.3206,5.3206,5.3206,5.3206,5.3206,5.3206,5.3206,5.3206,5.3206,5.3206,5.3206,5.3206,5.3206,5.3206,5.3206,5.3206,5.3206,5.3206,5.2937,5.2206,5.2112,5.1643,5.0185,5.0124,4.9815,4.9107,4.9001,4.9001,4.9001,4.9001,4.9001,4.9001,4.9001,4.9001,4.9001,4.9001,4.8513,4.7589,4.6747,4.5762,4.4812,4.3849,4.3329,5.0702,5.0702,5.0702,5.0702,5.0702,5.0702,5.0702,5.0702,5.0702,5.0702,5.0779,5.0856,5.0856,5.0856,5.0856,5.0856,5.076,5.0702,5.0702,5.0702,5.0702,5.0702,5.0702,5.0702,5.0702,5.0702,5.0702,5.0702,5.0702,5.0664,5.0548,5.026,4.9869,4.9363,4.9061,4.8712,4.8306,4.8306,4.8306,4.8306,4.8306,4.8306,4.8306,4.8306,4.8306,4.8306,4.8306,4.8306,4.8306,4.8306,4.8306,4.8306,4.8306,4.8306,4.8306,4.8306,4.8306,4.8306,4.8306,4.8306,4.8306,4.8306,4.8306,4.8306,4.8306,4.945,5.0798,5.078,5.1956,5.3206,5.3206,5.3206,5.3206,5.3206,5.3206,5.3206,5.3206,5.3206,5.3206,5.3206,5.3206,5.3206,5.3206,5.3206,5.3206,5.3206,5.3206,5.2937,5.2206,5.2599,5.2353,5.0981,5.0841,5.0517,4.9821,4.9316,4.9001,4.9001,4.9001,4.9001,4.9001,4.9001,4.9001,4.9001,4.9001,4.8513,4.7589,4.7373,4.64,4.4812,4.451,4.4004,5.0702,5.0702,5.0702,5.0702,5.0702,5.0702,5.0702,5.0702,5.0702,5.0702,5.0818,5.0908,5.0899,5.0906,5.0901,5.0894,5.0779,5.0702,5.0702,5.0702,5.0702,5.0702,5.0702,5.0702,5.0702,5.0702,5.0702,5.0702,5.0702,5.0702,5.0702,5.0491,5.0183,4.9779,4.9377,4.8897,4.8324,4.8306,4.8306,4.8306,4.8306,4.8306,4.8306,4.8306,4.8306,4.8306,4.8306,4.8306,4.8306,4.8306,4.8306,4.8306,4.8306,4.8306,4.8306,4.8306,4.8306,4.8306,4.8306,4.8306,4.8306,4.8306,4.8306,4.8306,4.8306,4.945,5.0798,5.078,5.1956,5.3206,5.3206,5.3206,5.3206,5.3206,5.3206,5.3206,5.3206,5.3206,5.3206,5.3206,5.3206,5.3206,5.3206,5.3206,5.3206,5.3206,5.3206,5.3042,5.2662,5.2937,5.2769,5.1661,5.1292,5.0823,5.0072,4.9359,4.9001,4.9001,4.9001,4.9001,4.9001,4.9001,4.9001,4.9001,4.9001,4.8719,4.8225,4.7803,4.6831,4.5416,4.502,4.4297,5.0702,5.0702,5.0702,5.0702,5.0702,5.0702,5.0702,5.0702,5.0702,5.0721,5.0837,5.0941,5.0945,5.0937,5.0937,5.0926,5.0818,5.0721,5.0702,5.0702,5.0702,5.0721,5.0721,5.0721,5.0721,5.0721,5.0721,5.0702,5.0702,5.0702,5.0702,5.0702,5.051,5.0106,4.9658,4.9081,4.8379,4.8324,4.8306,4.8306,4.8306,4.8306,4.8306,4.8306,4.8306,4.8306,4.8306,4.8306,4.8306,4.8306,4.8306,4.8306,4.8306,4.8306,4.8306,4.8306,4.8306,4.8306,4.8306,4.8306,4.8306,4.8306,4.8306,4.8306,4.8306,4.934,5.052,5.0634,5.1755,5.2926,5.3017,5.3151,5.3206,5.3206,5.3206,5.3206,5.3206,5.3206,5.3206,5.3206,5.3206,5.3206,5.3206,5.3206,5.3206,5.3206,5.3206,5.3206,5.3206,5.3206,5.2937,5.2317,5.1544,5.0823,5.0185,4.9462,4.9001,4.9001,4.9001,4.9001,4.9001,4.9001,4.9001,4.9001,4.9001,4.9001,4.9001,4.8161,4.7306,4.6384,4.5431,4.4434,5.0702,5.0702,5.0702,5.0702,5.0702,5.0702,5.0702,5.0702,5.0721,5.0856,5.0972,5.1076,5.114,5.1152,5.1137,5.1061,5.0952,5.0837,5.0721,5.0702,5.0741,5.0856,5.0875,5.0875,5.0875,5.0875,5.0837,5.0702,5.0702,5.0702,5.0702,5.0702,5.051,5.0106,4.9396,4.8952,4.8785,4.8453,4.8306,4.8306,4.8306,4.8306,4.8306,4.8306,4.8306,4.8306,4.8306,0.0,4.8306,4.8306,4.8306,4.8306,4.8306,4.8306,4.8306,4.8306,4.8306,4.8306,4.8306,4.8306,4.8306,4.8306,4.8306,4.8306,4.8306,4.862,4.9095,4.9706,5.0599,5.153,5.2145,5.2718,5.3206,5.3206,5.3206,5.3206,5.3206,5.3206,5.3206,5.3206,5.3206,5.3206,5.3206,5.3206,5.3206,5.3206,5.3206,5.3206,5.3206,5.3206,5.3164,5.3042,5.1874,5.1034,5.0929,4.9739,4.9001,4.9001,4.9001,4.9001,4.9001,4.9001,4.9001,4.9001,4.9001,4.9001,4.9001,4.8861,4.8289,4.7306,4.6384,4.5416,5.0702,5.0702,5.0702,5.0702,5.0702,5.0702,5.0702,5.0741,5.0837,5.0895,5.1029,5.116,5.1188,5.1191,5.1183,5.1167,5.1068,5.0991,5.0933,5.0914,5.0933,5.101,5.0998,5.0996,5.0991,5.0952,5.0875,5.0818,5.0741,5.0702,5.0702,5.0702,5.051,5.0106,4.9505,4.9102,4.8897,4.8489,4.8306,4.8306,4.8306,4.8306,4.8306,4.8306,4.8306,4.8306,4.8306,4.8306,4.8306,4.8306,4.8306,4.8306,4.8306,4.8306,4.8306,4.8306,4.8306,4.8306,4.8306,4.8306,4.8306,4.8306,4.8306,4.8306,4.8306,4.8675,4.9288,5.0044,5.0886,5.1714,5.2451,5.2926,5.3206,5.3206,5.3206,5.3206,5.3206,5.3206,5.3206,5.3206,5.3206,5.3206,5.3206,5.3206,5.3206,5.3206,5.3206,5.3206,5.3206,5.3206,5.3206,5.3206,5.2236,5.1459,5.1141,5.0154,4.9359,4.9001,4.9001,4.9001,4.9001,4.9001,4.9001,4.9001,4.9001,4.9001,4.9001,4.9001,4.8513,4.7589,4.6678,4.5706,5.0702,5.0702,5.0702,5.0702,5.0702,5.0702,5.0702,5.0818,5.0913,5.0929,5.1089,5.1211,5.123,5.123,5.123,5.1191,5.1159,5.113,5.1111,5.1111,5.1111,5.113,5.1109,5.1117,5.1131,5.1026,5.0952,5.0914,5.0779,5.0702,5.0702,5.0702,5.0548,5.024,4.9836,4.9423,4.9045,4.8638,4.8379,4.8306,4.8306,4.8306,4.8306,4.8306,4.8306,4.8306,4.8306,4.8306,4.8306,4.8306,4.8306,4.8306,4.8306,4.8306,4.8306,4.8306,4.8306,4.8306,4.8306,4.8306,4.8306,4.8306,4.8306,4.8306,4.8306,4.8693,4.9322,5.0133,5.0797,5.1555,5.2481,5.2871,5.2999,5.317,5.3206,5.3206,5.3206,5.3206,5.3206,5.3206,5.3206,5.3206,5.3206,5.3206,5.3206,5.3206,5.3206,5.3206,5.3206,5.3206,5.3206,5.3206,5.256,5.1845,5.1157,5.0415,4.9722,4.9063,4.9001,4.9001,4.9001,4.9001,4.9001,4.9001,4.9001,4.9001,4.9001,4.9001,4.8639,4.7868,4.6747,4.5834,5.0702,5.0702,5.0702,5.0702,5.0702,5.0702,5.0702,5.0818,5.0932,5.1058,5.1132,5.123,5.1367,5.1387,5.1348,5.1211,5.1189,5.1166,5.1107,5.1107,5.1127,5.1185,5.119,5.1191,5.1185,5.1185,5.1106,5.0914,5.0779,5.0702,5.0702,5.0702,5.0683,5.0644,5.026,4.9848,4.9452,4.9044,4.8656,4.8306,4.8306,4.8306,4.8306,4.8306,4.8306,4.8306,4.8306,4.8306,0.0,4.8306,4.8306,4.8306,4.8306,4.8306,4.8306,4.8306,4.8306,4.8306,4.8306,4.8306,4.8306,4.8306,4.8306,4.8306,4.8306,4.7974,4.7769,4.8645,4.8974,4.943,5.0909,5.1755,5.2346,5.3036,5.3206,5.3206,5.3206,5.3206,5.3206,5.3206,5.3206,5.3206,5.3206,5.3206,5.3206,5.3206,5.3206,5.3206,5.3206,5.3206,5.3206,5.3206,5.2544,5.182,5.1139,5.0425,4.9722,4.9063,4.9001,4.9001,4.9001,4.9001,4.9001,4.9001,4.9001,4.9001,4.9001,4.9001,4.894,4.8798,4.702,4.6173,5.0702,5.0702,5.0702,5.0702,5.0702,5.0721,5.0818,5.0933,5.1061,5.1137,5.125,5.1348,5.1387,5.1406,5.1387,5.1328,5.1328,5.1308,5.1289,5.1289,5.1289,5.1328,5.1328,5.1328,5.1328,5.1245,5.112,5.0914,5.0856,5.0779,5.0702,5.0702,5.0702,5.0702,5.0317,5.0013,4.9868,4.9222,4.8803,4.8656,4.8416,4.8306,4.8306,4.8306,4.8306,4.8306,4.8306,4.8306,0.0,4.8306,4.8306,4.8306,4.8306,4.8306,4.8306,4.8306,4.8306,4.8306,4.8306,4.8306,4.8306,4.8306,4.8306,4.8306,4.8306,4.8121,4.8102,4.9007,4.9603,5.0256,5.135,5.2222,5.2852,5.3151,5.3206,5.3206,5.3206,5.3206,5.3206,5.3206,5.3206,5.3206,5.3206,5.3206,5.3206,5.3206,5.3206,5.3206,5.3206,5.3206,5.3206,5.3206,5.2937,5.2286,5.1211,5.0857,5.0202,4.9046,4.9001,4.9001,4.9001,4.9001,4.9001,4.9001,4.9001,4.9001,4.9001,4.9001,4.9001,4.894,4.7655,4.6747,5.076,5.0721,5.0702,5.0702,5.0721,5.0779,5.0895,5.1032,5.1139,5.1183,5.1308,5.1406,5.1406,5.1406,5.1406,5.1406,5.1406,5.1406,5.1406,5.1406,5.1406,5.1406,5.1406,5.1406,5.1406,5.1289,5.1141,5.1005,5.0926,5.0875,5.076,5.0721,5.0702,5.0702,5.0433,5.0221,5.0086,4.9552,4.9148,4.8915,4.862,4.8416,4.8306,4.8306,4.8306,4.8306,4.8306,4.8306,0.0,4.8306,4.8306,4.8306,4.8306,4.8306,4.8306,4.8306,4.8306,4.8306,4.8306,4.8306,4.8306,4.8306,4.8306,4.8306,4.8306,4.8306,4.8434,4.9081,5.0031,5.0962,5.1563,5.2471,5.3206,5.3206,5.3206,5.3206,5.3206,5.3206,5.3206,5.3206,5.3206,5.3206,5.3206,5.3206,5.3206,5.3206,5.3206,5.3206,5.3206,5.3206,5.3206,5.3206,5.3206,5.2636,5.121,5.1088,5.0517,4.9107,4.9001,4.9001,4.9001,4.9001,4.9001,4.9001,4.9001,4.9001,4.9001,4.9001,4.9001,4.9001,4.8015,4.6952,5.0914,5.0818,5.0702,5.0702,5.0818,5.0914,5.0914,5.1064,5.1191,5.1191,5.1308,5.1406,5.1406,5.1406,5.1406,5.1406,5.1406,5.1406,5.1406,5.1406,5.1406,5.1406,5.1406,5.1406,5.1406,5.1289,5.1191,5.1191,5.1004,5.0914,5.0914,5.076,5.0702,5.0702,5.0702,5.0491,5.0086,5.0086,4.9682,4.8915,4.8915,4.8693,4.8306,4.8306,4.8306,4.8306,4.8306,4.8306,0.0,4.8306,4.8306,4.8306,4.8306,4.8306,4.8306,4.8306,4.8306,4.8306,4.8306,4.8306,4.8306,4.8306,4.8306,4.8306,4.8306,4.8306,4.8324,4.8453,4.9633,5.0909,5.1079,5.2139,5.3206,5.3206,5.3206,5.3206,5.3206,5.3206,5.3206,5.3206,5.3206,5.3206,5.3206,5.3206,5.3206,5.3206,5.3206,5.3206,5.3206,5.3206,5.3206,5.3206,5.3206,5.2635,5.1207,5.1086,5.0517,4.9107,4.9001,4.9001,4.9001,4.9001,4.9001,4.9001,4.9001,4.9001,4.9001,4.9001,4.9001,4.9001,4.8015,4.6609,5.1057,5.101,5.0972,5.0972,5.101,5.1039,5.1089,5.1154,5.123,5.1328,5.1367,5.1406,5.1406,5.1328,5.1269,5.1269,5.1211,5.1191,5.1191,5.123,5.1269,5.1269,5.1348,5.1406,5.1406,5.1367,5.1308,5.1211,5.1152,5.1049,5.0914,5.0875,5.0779,5.0702,5.0702,5.0644,5.051,5.024,4.9961,4.9714,4.9145,4.8822,4.8693,4.8416,4.8306,4.8306,4.8306,4.8306,4.8306,4.8306,4.8306,4.8306,4.8306,4.8306,4.8306,4.8306,4.8306,4.8306,4.8306,4.8306,4.8306,4.8306,4.8306,4.8306,4.8306,4.8306,4.8416,4.9062,4.9625,5.0329,5.1411,5.209,5.2572,5.3072,5.3206,5.3206,5.3206,5.3206,5.3206,5.3206,5.3206,5.3206,5.3206,5.3206,5.3206,5.3206,5.3206,5.3206,5.3206,5.3206,5.3206,5.3206,5.3206,5.2831,5.1856,5.1343,5.0662,4.9722,4.9256,4.9001,4.9001,4.9001,4.9001,4.9001,4.9001,4.9001,4.9001,4.9001,4.9001,4.9001,4.8015,4.7306,5.1142,5.1132,5.1101,5.1101,5.1132,5.1142,5.1183,5.123,5.1308,5.1387,5.1406,5.1387,5.1328,5.1269,5.1185,5.1161,5.1121,5.1101,5.1121,5.1179,5.1224,5.1269,5.1348,5.1406,5.1406,5.1406,5.1367,5.1289,5.123,5.1131,5.0991,5.0933,5.0856,5.0702,5.0702,5.0702,5.0702,5.0452,5.026,5.0086,4.9578,4.9176,4.8897,4.8638,4.8434,4.8306,4.8306,4.8306,0.0,4.8306,4.8306,4.8306,4.8306,4.8306,4.8306,4.8306,4.8306,4.8306,4.8306,4.8306,4.8306,4.8306,4.8306,4.8306,4.8306,4.8306,4.8416,4.9026,4.964,5.0347,5.1337,5.2063,5.2627,5.3072,5.3206,5.3206,5.3206,5.3206,5.3206,5.3206,5.3206,5.3206,5.3206,5.3206,5.3206,5.3206,5.3206,5.3206,5.3206,5.3206,5.3206,5.3206,5.3206,5.2999,5.2554,5.1633,5.0805,5.0063,4.9368,4.9001,4.9001,4.9001,4.9001,4.9001,4.9001,4.9001,4.9001,4.9001,4.9001,4.9001,4.837,4.795,0.0,5.1172,5.1113,5.1113,5.1172,5.1211,5.1211,5.1308,0.0,5.1406,5.1387,5.1348,5.1211,5.119,5.1152,5.1099,5.1087,5.1106,5.1164,5.1183,5.125,5.1363,5.1387,5.1387,5.1387,5.1387,5.1406,5.1406,5.1289,5.1171,5.1099,5.0991,5.0856,5.0721,5.0702,5.0702,5.0702,5.0702,5.051,5.0125,5.0106,4.9714,4.8993,4.8917,4.8693,4.8343,4.8324,4.8306,4.8306,4.8306,4.8306,4.8306,4.8306,4.8306,4.8306,4.8306,4.8306,4.8306,4.8306,4.8306,4.8306,4.8306,4.8306,4.8306,4.8306,4.8306,4.8324,4.8434,4.9505,5.0665,5.085,5.1965,5.3054,5.3188,5.3206,5.3206,5.3206,5.3206,5.3206,5.3206,5.3206,5.3206,5.3206,5.3206,5.3206,5.3206,5.3206,5.3206,5.3206,5.3206,5.3206,5.3206,5.3206,5.3206,5.3206,5.1963,5.088,5.0093,4.9453,4.9035,4.9001,4.9001,4.9001,4.9001,4.9001,4.9001,4.9001,4.9001,4.9001,4.9001,4.9001,4.8513,5.1367,0.0,5.1328,5.1328,5.1348,5.1348,0.0,0.0,0.0,0.0,0.0,5.123,5.1211,5.1078,5.0967,5.0952,5.0875,5.0856,5.0952,5.1072,5.1148,5.1172,5.1211,5.125,5.125,5.1348,5.1406,5.1406,5.1367,5.1305,5.1171,5.1106,5.0991,5.0875,5.0741,5.0702,5.0702,5.0702,5.0644,5.0548,5.026,5.0003,4.9782,4.9161,4.8822,4.873,4.8416,4.8306,4.8306,4.8306,4.8306,4.8306,4.8306,4.8306,4.8306,4.8306,4.8306,4.8306,4.8306,4.8306,4.8306,4.8306,4.8306,4.8306,4.8306,4.8306,4.8324,4.8343,4.8675,4.9328,5.0516,5.1139,5.1755,5.2926,5.3206,5.3206,5.3206,5.3206,5.3206,5.3206,5.3206,5.3206,5.3206,5.3206,5.3206,5.3206,5.3206,5.3206,5.3206,5.3206,5.3206,5.3206,5.3206,5.3206,5.3206,5.2372,5.1585,5.0893,5.0142,4.9531,4.9018,4.9001,4.9001,4.9001,4.9001,4.9001,4.9001,4.9001,4.9001,4.9001,4.9001,4.8861,5.1406,5.1406,5.1406,5.1406,5.1406,5.1406,5.1406,0.0,0.0,0.0,0.0,5.1166,5.1086,5.0966,5.0895,5.0837,5.0741,5.0752,5.0884,5.1026,5.1102,5.1102,5.1161,5.12,5.1191,5.1328,5.1406,5.1406,5.1406,5.1348,5.1211,5.1178,5.1068,5.0914,5.0837,5.076,5.0702,5.0702,5.0702,5.0702,5.0471,5.0279,5.0086,4.9648,4.9253,4.8897,4.8675,4.8453,4.8306,4.8306,4.8306,4.8306,4.8306,4.8306,4.8306,4.8306,4.8306,4.8306,4.8306,4.8306,4.8306,4.8306,4.8306,4.8306,4.8306,4.8306,4.8306,4.8306,4.862,4.9226,5.049,5.1101,5.1694,5.2907,5.3206,5.3206,5.3206,5.3206,5.3206,5.3206,5.3206,5.3206,5.3206,5.3206,5.3206,5.3206,5.3206,5.3206,5.3206,5.3206,5.3206,5.3206,5.3206,5.3206,5.3206,5.2536,5.1832,5.1144,5.0409,4.9712,4.9018,4.9001,4.9001,4.9001,4.9001,4.9001,4.9001,4.9001,4.9001,4.9001,4.9001,4.9001,5.1406,5.1406,5.1406,5.1406,5.1406,5.1387,5.1367,0.0,0.0,0.0,0.0,5.1109,5.0926,5.0895,5.0837,5.0721,5.0721,5.0751,5.0855,5.0991,5.1068,5.1049,5.1106,5.117,5.1188,5.1308,5.1387,5.1406,5.1406,5.1348,5.123,5.12,5.1119,5.0933,5.0914,5.0856,5.0702,5.0702,5.0702,5.0702,5.0702,5.051,5.0202,5.0125,4.974,4.9082,4.9011,0.0,4.8379,4.8379,4.8361,4.8306,4.8306,4.8306,4.8306,4.8306,4.8306,4.8306,4.8306,4.8306,4.8306,4.8306,4.8306,4.8306,4.8306,4.8306,4.8306,4.8306,4.8785,4.9505,5.0394,5.121,5.2011,5.2852,5.3091,5.3206,5.3206,5.3206,5.3206,5.3206,5.3206,5.3206,5.3206,5.3206,5.3206,5.3206,5.3206,5.3206,5.3206,5.3206,5.3206,5.3206,5.3206,5.3206,5.3206,5.2617,5.1921,5.1146,5.0406,4.9671,4.9018,4.9001,4.9001,4.9001,4.9001,4.9001,4.9001,4.9001,4.9001,4.9001,4.9001,4.9001,5.1406,5.1406,5.1406,5.1406,5.1406,5.1367,0.0,0.0,0.0,0.0,5.1033,5.0943,5.0914,5.0818,5.0721,5.0702,5.0818,5.0837,5.0728,5.0853,5.0895,5.076,5.0875,5.0981,5.1091,5.1191,5.1289,5.1387,5.1406,5.1387,5.1367,5.1262,5.1156,5.1068,5.0972,5.0856,5.0702,5.0702,5.0702,5.0702,5.0702,5.0664,5.0587,5.026,5.0026,4.9905,0.0,4.9154,4.8803,4.8803,4.862,4.8306,4.8306,4.8306,4.8306,4.8306,4.8306,4.8306,4.8306,4.8306,4.8306,4.8306,4.8306,4.8306,4.8306,4.8306,4.8306,4.8306,4.8379,4.8675,4.9581,5.0395,5.1195,5.1974,5.2682,5.3206,5.3206,5.3206,5.3206,5.3206,5.3206,5.3206,5.3206,5.3206,5.3206,5.3206,5.3206,5.3206,5.3206,5.3206,5.3206,5.3206,5.3206,5.3206,5.3206,5.3103,5.249,5.117,5.0387,4.9708,4.9001,4.9001,4.9001,4.9001,4.9001,4.9001,4.9001,4.9001,4.9001,4.9001,4.9001,4.9001,5.1406,5.1352,5.1297,5.1297,5.1294,0.0,0.0,0.0,0.0,0.0,5.0941,5.0895,5.0818,5.0741,5.0702,5.0702,5.0741,5.076,5.0702,5.0741,5.076,5.0702,5.0837,5.0924,5.1003,5.1117,5.123,5.1289,5.1367,5.1406,5.1406,5.1348,5.1255,5.115,5.1061,5.0952,5.0818,5.0741,5.0702,5.0702,5.0702,5.0702,5.0683,5.051,5.0317,5.0086,0.0,4.9589,4.9202,4.8989,4.8785,4.8601,4.8379,4.8306,4.8306,4.8306,4.8306,4.8306,4.8306,4.8306,4.8306,4.8306,4.8306,4.8306,4.8306,4.8306,4.8306,4.8306,4.8306,4.8489,4.9377,5.0202,5.1004,5.1815,5.2608,5.3206,5.3206,5.3206,5.3206,5.3206,5.3206,5.3206,5.3206,5.3206,5.3206,5.3206,5.3206,5.3206,5.3206,5.3206,5.3206,5.3206,5.3206,5.3206,5.3206,5.2831,5.2177,5.1138,5.005,4.9299,4.9001,4.9001,4.9001,4.9001,4.9001,4.9001,4.9001,4.9001,4.9001,4.9001,4.9001,4.9001,5.157,5.1541,5.1506,5.1703,0.0,0.0,0.0,0.0,0.0,0.0,0.0,5.0837,5.0721,5.0702,5.0702,5.0702,5.0702,5.0702,5.0702,5.0702,5.0702,5.0702,5.0779,5.0875,5.0914,5.1063,5.119,5.1191,5.1328,5.1406,5.1406,5.1406,5.1348,5.1191,5.1153,5.1049,5.0914,5.0818,5.0721,5.0702,5.0702,5.0702,5.0702,5.0702,5.0529,5.024,5.024,5.001,4.9624,4.9329,4.9137,4.9007,4.8601,4.8379,4.8306,4.8306,4.8306,4.8306,4.8306,4.8306,4.8306,4.8306,4.8306,4.8306,4.8306,4.8306,4.8306,4.8306,4.8306,4.8434,4.9118,5.0043,5.0945,5.1559,5.2498,5.3206,5.3206,5.3206,5.3206,5.3206,5.3206,5.3206,5.3206,5.3206,5.3206,5.3206,5.3206,5.3206,5.3206,5.3206,5.3206,5.3206,5.3206,5.3206,5.3206,5.2536,5.1808,5.1138,4.9797,4.9001,4.9001,4.9001,4.9001,4.9001,4.9001,4.9001,4.9001,4.9001,4.9001,4.9001,4.9001,4.9001,5.2038,5.223,5.2428,5.3224,0.0,0.0,0.0,0.0,0.0,5.0741,0.0,5.0702,5.0702,5.0702,5.0702,5.0702,5.0702,5.0702,5.0702,5.0702,5.0702,5.0702,5.0702,5.076,5.0895,5.1029,5.114,5.1209,5.1328,5.1406,5.1406,5.1406,5.1348,5.1191,5.1192,5.1106,5.0914,5.0895,5.0837,5.0702,5.0702,5.0702,5.0702,5.0702,5.0683,5.0664,5.0664,5.0433,5.0048,5.0026,4.9778,4.9413,4.9007,4.8638,4.8306,4.8306,4.8306,4.8306,4.8306,4.8306,4.8306,4.8306,4.8306,4.8306,4.8306,4.8306,4.8306,4.8306,4.8306,4.8324,4.8379,4.9599,5.0816,5.0853,5.209,5.3206,5.3206,5.3206,5.3206,5.3206,5.3206,5.3206,5.3206,5.3206,5.3206,5.3206,5.3206,5.3206,5.3206,5.3206,5.3206,5.3206,5.3206,5.3206,5.3206,5.2536,5.1808,5.1138,4.9797,4.9001,4.9001,4.9001,4.9001,4.9001,4.9001,4.9001,4.9001,4.9001,4.9001,4.9001,4.9001,4.9001,5.2884,5.3058,5.3065,5.3397,0.0,0.0,0.0,0.0,0.0,5.0702,5.0702,5.0702,5.0702,5.0702,5.0702,5.0702,5.0702,5.0702,5.0702,5.0702,5.0702,5.0702,5.0702,5.0721,5.076,5.0914,5.1022,5.1135,5.122,5.1308,5.1406,5.1406,5.1387,5.1328,5.124,5.1167,5.1087,5.0972,5.0875,5.0837,5.0741,5.0702,5.0702,5.0702,5.0702,5.0702,5.0702,5.0606,5.0452,5.0202,5.001,4.9833,4.9431,4.9154,4.9044,4.9044,4.9044,4.9007,4.8748,4.8675,4.8638,4.8379,4.8306,4.8306,4.8306,4.8306,4.8306,4.8306,4.8306,4.8306,4.8306,4.9154,5.0186,5.0689,5.1639,5.259,5.3072,5.3206,5.3206,5.3206,5.3206,5.3206,5.3206,5.3206,5.3206,5.3206,5.3206,5.3206,5.3206,5.3206,5.3206,5.3206,5.3206,5.3206,5.3206,5.2536,5.2,5.1759,5.039,4.9402,4.9001,4.9001,4.9001,4.9001,4.9001,4.9001,4.9001,4.9001,4.9001,4.9001,4.9001,4.9001,5.3645,5.3818,5.3818,0.0,0.0,0.0,0.0,0.0,0.0,5.1087,5.0875,5.0702,5.0702,5.0702,5.0702,5.0702,5.0702,5.0702,5.0702,5.0702,5.0702,5.0702,5.0702,5.0702,5.0702,5.0837,5.0966,5.1089,5.1162,5.1269,5.1387,5.1406,5.1406,5.1406,5.1308,5.123,5.1205,5.1061,5.0972,5.0914,5.0818,5.0741,5.0702,5.0702,5.0702,5.0702,5.0702,5.0702,5.0683,5.0394,5.0221,5.0065,4.9787,4.9613,4.9487,4.9487,4.9487,4.9449,4.9188,4.9022,4.8822,4.8583,4.8398,4.8306,4.8306,4.8306,4.8306,4.8306,4.8306,4.8306,4.8306,4.8952,4.9818,5.0593,5.1412,5.2218,5.3017,5.3206,5.3206,5.3206,5.3206,5.3206,5.3206,5.3206,5.3206,5.3206,5.3206,5.3206,5.3206,5.3206,5.3206,5.3206,5.3206,5.3206,5.3206,5.2725,5.2335,5.2112,5.1016,5.0033,4.9359,4.9107,4.9001,4.9001,4.9001,4.9001,4.9001,4.9001,4.9001,4.9001,4.9001,4.9001,5.426,5.4511,5.4703,0.0,0.0,0.0,5.3395,0.0,5.1914,5.1895,5.1241,5.0702,5.0702,5.0702,5.0702,5.0702,5.0702,5.0702,5.0702,5.0702,5.0702,5.0702,5.0702,5.0702,5.0702,5.0837,5.0952,5.1087,5.116,5.1269,5.1387,5.1406,5.1406,5.1406,5.1406,5.1348,5.1191,5.1212,5.1087,5.0914,5.0914,5.0837,5.0702,5.0702,5.0702,5.0702,5.0702,5.0702,5.0702,5.0702,5.0471,5.0106,5.0106,4.9856,4.9509,4.9509,4.9509,4.9509,4.9509,4.922,4.8897,4.8915,4.8638,4.8324,4.8306,4.8306,4.8306,4.8306,4.8306,4.8306,4.8306,4.8952,4.9783,5.0617,5.1434,5.2218,5.3017,5.3206,5.3206,5.3206,5.3206,5.3206,5.3206,5.3206,5.3206,5.3206,5.3206,5.3206,5.3206,5.3206,5.3206,5.3206,5.3206,5.3206,5.3206,5.3206,5.2875,5.2159,5.1494,5.077,5.0033,4.9359,4.9001,4.9001,4.9001,4.9001,4.9001,4.9001,4.9001,4.9001,4.9001,4.9001,5.5126,5.5338,5.5261,5.4934,5.4684,0.0,0.0,5.2529,0.0,0.0,5.0856,5.0702,5.0702,5.0483,5.0358,5.0663,5.0462,5.0377,5.0663,5.0702,5.0702,5.0702,5.0702,5.0702,5.0702,5.0741,5.0818,5.0952,5.1066,5.1162,5.125,5.1348,5.1406,5.1406,5.1406,5.1387,5.1348,5.1258,5.1171,5.1106,5.1068,5.0933,5.0702,5.0702,5.0702,5.0702,5.0702,5.0702,5.0702,5.0702,5.0625,5.051,5.051,5.0452,5.0337,5.0337,5.0337,5.0298,5.001,4.9841,4.9648,4.9063,4.8803,4.8675,4.8379,4.8306,4.8306,4.8306,4.8306,4.8306,4.8306,4.8952,4.9783,5.0617,5.0967,5.153,5.2907,5.3206,5.3206,5.3206,5.3206,5.3206,5.3206,5.3206,5.3206,5.3206,5.3206,5.3206,5.3206,5.3206,5.3206,5.3206,5.3206,5.3206,5.3206,5.3206,5.3103,5.2875,5.2177,5.1274,5.0016,4.9359,4.9001,4.9001,4.9001,4.9001,4.9001,4.9001,4.9001,4.9001,4.9001,4.9001,5.5568,5.5703,5.5568,5.5107,5.4741,5.4184,5.2972,5.2279,5.1683,5.0856,5.0702,5.0702,5.0702,5.0358,5.0225,5.0624,5.0225,4.9999,5.0399,5.0462,5.0462,5.0462,5.0604,5.0702,5.0702,5.0702,5.076,5.0895,5.1006,5.1133,5.1191,5.1328,5.1406,5.1406,5.1406,5.1406,5.1406,5.1328,5.1258,5.1202,5.1153,5.1027,5.0867,5.0797,5.0741,5.0702,5.0702,5.0702,5.0702,5.0702,5.0702,5.0702,5.0702,5.0702,5.0702,5.0702,5.0702,5.0664,5.0414,5.024,5.0024,4.9523,4.9291,4.9081,4.8822,4.8767,4.873,4.8583,4.8767,4.8989,4.8822,4.9432,5.019,5.0691,5.1022,5.1621,5.2926,5.3206,5.3206,5.3206,5.3206,5.3206,5.3206,5.3206,5.3206,5.3206,5.3206,5.3206,5.3206,5.3206,5.3206,5.3206,5.3206,5.3206,5.3206,5.3206,5.3206,5.3206,5.249,5.1741,5.0858,4.9936,4.9256,4.9001,4.9001,4.9001,4.9001,4.9001,4.9001,4.9001,4.9001,4.9001,5.5703,5.5703,5.5684,5.5607,5.4893,5.3776,5.2062,5.1678,5.1467,5.0778,5.0624,5.0604,5.0604,5.0272,5.0116,5.0523,4.9949,4.9608,4.9974,5.0068,5.0092,5.0092,5.0462,5.0702,5.0702,5.0702,5.0741,5.0875,5.101,5.1106,5.1187,5.1308,5.1387,5.1406,5.1406,5.1406,5.1406,5.1406,5.1348,5.1211,5.1224,5.1177,5.11,5.0979,5.0856,5.0721,5.0721,5.0702,5.0702,5.0702,5.0702,5.0702,5.0702,5.0702,5.0702,5.0702,5.0702,5.0702,5.0702,5.0452,5.0164,5.0202,4.9974,4.9658,4.9732,4.975,4.964,4.927,4.9694,5.019,4.9892,5.0411,5.0947,5.0947,5.1485,5.2218,5.3017,5.3206,5.3206,5.3206,5.3206,5.3206,5.3206,5.3206,5.3206,5.3206,5.3206,5.3206,5.3206,5.3206,5.3206,5.3206,5.3206,5.3206,5.3206,5.3206,5.3206,5.3206,5.2554,5.2159,5.2094,5.0752,4.9722,4.9107,4.9063,4.9001,4.9001,4.9001,4.9001,4.9001,4.9001,4.9001,5.5703,5.5703,5.5549,5.4914,5.3398,5.1705,5.032,5.0012,5.0054,5.0197,4.9974,4.9746,4.9746,4.9445,4.9295,4.9673,4.9356,4.9171,4.9561,4.9898,5.0092,5.0092,5.0462,5.0702,5.0702,5.0702,5.0702,5.0741,5.0875,5.1006,5.1117,5.1193,5.1289,5.1406,5.1406,5.1406,5.1406,5.1406,5.1387,5.1367,5.1351,5.1294,5.1177,5.1087,5.0991,5.0875,5.0875,5.0818,5.0702,5.0702,5.0702,5.0702,5.0702,5.0702,5.0702,5.0702,5.0702,5.0702,5.0702,5.0644,5.0606,5.0952,5.0962,5.0994,5.1338,5.1453,5.1434,5.1357,5.1461,5.1558,5.1499,5.1862,5.2215,5.2215,5.2095,5.2218,5.3017,5.3206,5.3206,5.3206,5.3206,5.3206,5.3206,5.3206,5.3206,5.3206,5.3206,5.3206,5.3206,5.3206,5.3206,5.3206,5.3206,5.3206,5.3206,5.3206,5.3206,5.3206,5.3042,5.2707,5.2112,5.0752,4.9919,4.978,4.9256,4.9001,4.9001,4.9001,4.9001,4.9001,4.9001,4.9001,5.564,5.5577,5.5207,5.4364,5.2772,5.1175,5.0296,4.9484,4.9029,4.9426,4.9504,4.9504,4.9504,4.9171,4.9011,4.9445,4.8996,4.8744,4.9139,4.9561,4.98,4.98,5.0336,5.0702,5.0702,5.0702,5.0702,5.0702,5.0837,5.0929,5.1005,5.1132,5.123,5.1308,5.1367,5.1406,5.1406,5.1406,5.1406,5.1406,5.1402,5.1369,5.1288,5.1153,5.107,5.101,5.101,5.0933,5.0818,5.0818,5.076,5.0702,5.0702,5.0702,5.0741,5.1126,5.126,5.1318,5.1742,5.1896,5.1934,5.2146,5.2203,5.2259,5.249,5.2567,5.2528,5.2336,5.2558,5.2817,5.2623,5.3024,5.3459,5.3212,5.2871,5.2682,5.3091,5.3206,5.3206,5.3206,5.3206,5.3206,5.3206,5.3206,5.3206,5.3206,5.3206,5.3206,5.3206,5.3206,5.3206,5.3206,5.3206,5.3206,5.3206,5.3206,5.3206,5.3206,5.3206,5.3042,5.2662,5.1593,5.0699,5.0033,4.9681,4.9299,4.9001,4.9001,4.9001,4.9001,4.9001,4.9001,5.5512,5.5306,5.477,5.3812,5.2598,5.1423,5.0697,4.9485,4.8567,4.8746,4.9043,4.9295,4.9295,4.9029,4.8897,4.9234,4.8728,4.8421,4.8744,4.9139,4.9416,4.9475,5.0159,5.0624,5.0683,5.0702,5.0702,5.0702,5.0818,5.0895,5.0914,5.1054,5.116,5.1191,5.1308,5.1387,5.1406,5.1406,5.1406,5.1406,5.1406,5.1406,5.1386,5.1224,5.1139,5.1106,5.1106,5.1042,5.0933,5.0914,5.0837,5.0741,5.0875,5.0914,5.101,5.1819,5.2127,5.2222,5.2935,5.3205,5.3224,5.3378,5.3414,5.3447,5.3582,5.362,5.3563,5.3236,5.3601,5.4045,5.3716,5.4122,5.4527,5.4146,5.3699,5.3371,5.3243,5.3206,5.3206,5.3206,5.3206,5.3206,5.3206,5.3206,5.3206,5.3206,5.3206,5.3206,5.3206,5.3206,5.3206,5.3206,5.3206,5.3206,5.3206,5.3206,5.3206,5.3206,5.3206,5.3206,5.3206,5.2599,5.1692,5.039,5.0241,4.9936,4.9359,4.9359,4.9316,4.9152,4.9152,4.9107,5.516,5.4895,5.4295,5.3087,5.2599,5.1972,5.0157,4.9579,4.9244,4.8511,4.8421,4.8458,4.8458,4.8439,4.8402,4.8458,4.8364,4.8306,4.8364,4.8728,4.9108,4.9445,4.9898,5.0313,5.0663,5.0702,5.0702,5.0702,5.0721,5.0779,5.0895,5.0929,5.1027,5.1191,5.1211,5.1289,5.1406,5.1406,5.1406,5.1406,5.1406,5.1406,5.1406,5.1365,5.1302,5.1196,5.1196,5.1141,5.1068,5.0952,5.0895,5.0933,5.1511,5.1742,5.1838,5.2704,5.3031,5.3044,5.3159,5.3219,5.3334,5.4086,5.4336,5.4449,5.5143,5.5376,5.5357,5.5299,5.5376,5.5434,5.5395,5.5182,5.4984,5.4939,5.4641,5.4117,5.3353,5.3206,5.3206,5.3206,5.3206,5.3206,5.3206,5.3206,5.3206,5.3206,5.3206,5.3206,5.3206,5.3206,5.3206,5.3206,5.3206,5.3206,5.3206,5.3206,5.3206,5.3206,5.3206,5.3206,5.3206,5.3103,5.2662,5.1856,5.1241,5.0929,5.0823,5.0823,5.0517,4.9879,4.9879,4.958,5.4446,5.4236,5.3955,5.3421,5.2772,5.193,5.0588,4.9903,4.9334,4.8489,4.8306,4.8306,4.8306,4.8306,4.8306,4.8306,4.8306,4.8306,4.8306,4.8657,4.9043,4.9445,4.9872,5.0249,5.0663,5.0702,5.0702,5.0702,5.0702,5.0721,5.0779,5.0875,5.0941,5.1042,5.1141,5.123,5.1289,5.1367,5.1406,5.1406,5.1406,5.1406,5.1406,5.1406,5.1367,5.1308,5.1308,5.1249,5.1159,5.1081,5.1309,5.1703,5.1934,5.2319,5.2836,5.3626,5.3913,5.3988,5.443,5.4605,5.4662,5.5047,5.5162,5.5241,5.5588,5.5703,5.5703,5.5703,5.5703,5.5703,5.5703,5.5568,5.5395,5.5143,5.4969,5.4678,5.4061,5.3739,5.3445,5.3243,5.3206,5.3206,5.3206,5.3206,5.3206,5.3206,5.3206,5.3206,5.3206,5.3206,5.3206,5.3206,5.3206,5.3206,5.3206,5.3206,5.3206,5.3206,5.3206,5.3206,5.3206,5.3206,5.306,5.2707,5.2018,5.1494,5.1086,5.1086,5.0929,5.0608,5.0608,5.0241,5.3758,5.3663,5.3663,5.3663,5.2961,5.2032,5.1041,5.0343,4.9591,4.8526,4.8306,4.8306,4.8306,4.8306,4.8306,4.8306,4.8306,4.8306,4.8306,4.8568,4.8897,4.9295,4.9719,5.0111,5.0504,5.0624,5.0702,5.0702,5.0702,5.0702,5.0702,5.0779,5.0895,5.0952,5.1103,5.1206,5.125,5.1348,5.1406,5.1406,5.1406,5.1406,5.1406,5.1406,5.1406,5.1406,5.1406,5.1348,5.1269,5.1445,5.1849,5.2371,5.2695,5.3179,5.3812,5.4586,5.4836,5.4893,5.5491,5.5703,5.5703,5.5703,5.5703,5.5703,5.5703,5.5703,5.5703,5.5703,5.5703,5.5703,5.5703,5.5703,5.5626,5.5318,5.5261,5.5116,5.4626,5.4121,5.3755,5.3576,5.345,5.3413,5.3524,5.3422,5.3359,5.3359,5.3272,5.3206,5.3206,5.3206,5.3206,5.3206,5.3206,5.3206,5.3206,5.3206,5.3206,5.3206,5.3206,5.3206,5.3206,5.3206,5.3206,5.3206,5.2662,5.2131,5.1611,5.1611,5.1562,5.1343,5.1343,5.0981,5.3318,5.3248,5.3248,5.3248,5.317,5.2747,5.1169,5.0765,5.027,4.8636,4.8306,4.8306,4.8306,4.8306,4.8306,4.8306,4.8306,4.8306,4.8306,4.8306,4.8477,4.8897,4.9295,4.9692,5.0092,5.0483,5.0702,5.0702,5.0702,5.0702,5.0702,5.0702,5.0837,5.1087,5.1106,5.1205,5.1387,5.1406,5.1406,5.1406,5.1406,5.1406,5.1406,5.1406,5.1406,5.1406,5.1406,5.1406,5.1445,5.2148,5.2441,5.2635,5.4158,5.4694,5.4739,5.553,5.5742,5.5645,5.5684,5.5703,5.5703,5.5703,5.5703,5.5703,5.5703,5.5703,5.5703,5.5703,5.5703,5.5703,5.5703,5.5703,5.5684,5.5665,5.5665,5.546,5.465,5.4128,5.3946,5.4349,5.4067,5.3917,5.4363,5.4048,5.3777,5.3777,5.3444,5.3206,5.3206,5.3206,5.3206,5.3206,5.3206,5.3206,5.3206,5.3206,5.3206,5.3206,5.3206,5.3206,5.3206,5.3206,5.3206,5.3206,5.3164,5.3121,5.3103,5.3103,5.2725,5.2047,5.2047,5.171,5.2459,5.2821,5.3206,5.3206,5.3206,5.2913,5.1811,5.1169,5.049,4.9352,4.8691,4.8306,4.8306,4.8306,4.8306,4.8306,4.8306,4.8306,4.8306,4.8306,4.8458,4.8829,4.9265,4.9664,5.0068,5.0442,5.0702,5.0702,5.0702,5.0702,5.0702,5.0702,5.0741,5.0856,5.1018,5.12,5.1406,5.1406,5.1406,5.1406,5.1406,5.1406,5.1406,5.1406,5.1406,5.1426,5.1992,5.2226,5.2246,5.2519,5.3281,5.4355,5.4844,5.5332,5.5792,5.5882,5.5857,5.5818,5.5722,5.5703,5.5703,5.5703,5.5703,5.5703,5.5703,5.5703,5.5703,5.5703,5.5703,5.5703,5.5703,5.5703,5.5703,5.5703,5.5703,5.5612,5.5322,5.4724,5.4295,5.4459,5.4371,5.4314,5.4465,5.4355,5.4153,5.3851,5.3701,5.3465,5.323,5.3206,5.3206,5.3206,5.3206,5.3206,5.3206,5.3206,5.3206,5.3206,5.3206,5.3206,5.3206,5.3206,5.3206,5.3206,5.3206,5.3206,5.3206,5.3206,5.3042,5.2831,5.2831,5.2399,5.1922,5.238,5.2858,5.3133,5.3206,5.3004,5.2179,5.1371,5.0563,4.9756,4.8912,4.8306,4.8306,4.8306,4.8306,4.8306,4.8306,4.8306,4.8306,4.8306,4.8402,4.8657,4.9043,4.9445,4.9853,5.0272,5.0544,5.0683,5.0702,5.0702,5.0702,5.0702,5.0721,5.076,5.1023,5.1191,5.1328,5.1387,5.1406,5.1406,5.1406,5.1406,5.1406,5.1406,5.1562,5.1875,5.2441,5.2695,5.2754,5.332,5.4258,5.5312,5.5527,5.5937,5.6365,5.6153,5.6051,5.5994,5.5818,5.5761,5.5761,5.5703,5.5703,5.5703,5.5703,5.5703,5.5703,5.5703,5.5703,5.5703,5.5703,5.5703,5.5703,5.5703,5.5703,5.5703,5.5703,5.5162,5.4745,5.4893,5.4781,5.4743,5.4857,5.479,5.4609,5.4284,5.4013,5.3683,5.3462,5.3254,5.3206,5.3206,5.3206,5.3206,5.3206,5.3206,5.3206,5.3206,5.3206,5.3206,5.3206,5.3206,5.3206,5.3206,5.3206,5.3206,5.3206,5.3206,5.3206,5.3206,5.3206,5.2813,0.0,0.0,0.0,5.2968,5.3188,5.3004,5.2197,5.1408,5.0618,4.9811,4.8948,4.8343,4.8343,4.8324,4.8306,4.8306,4.8306,4.8306,4.8306,4.8306,4.8306,4.8306,4.8657,4.9075,4.9445,4.9853,5.0272,5.0663,5.0702,5.0702,5.0702,5.0702,5.076,5.0914,5.1089,5.1191,5.1191,5.1328,5.1406,5.1406,5.1406,5.1406,5.1406,5.1426,5.1894,5.2695,5.2754,5.2773,5.291,5.4609,5.5312,5.543,5.6269,5.6523,5.6406,5.6406,5.6318,5.6171,5.5978,5.5919,5.5876,5.5742,5.5703,5.5703,5.5703,5.5703,5.5703,5.5703,5.5703,5.5703,5.5703,5.5703,5.5703,5.5703,5.5703,5.5703,5.5703,5.5395,5.5241,5.5626,5.5395,5.5241,5.5626,5.5375,5.5115,5.5088,5.4382,5.3851,5.3814,5.3444,5.3206,5.3206,5.3206,5.3206,5.3206,5.3206,5.3206,5.3206,5.3206,5.3206,5.3206,5.3206,5.3206,5.3206,5.3206,5.3206,5.3206,5.3206,5.3206,5.3206,5.3206,5.2831,5.0178,0.0,0.0,0.0,0.0,0.0,5.2931,5.2252,5.1591,5.1371,5.0215,4.9224,4.9224,4.8728,4.8306,4.8306,4.8306,4.8306,4.8306,4.8306,4.8306,4.8306,4.8897,4.9386,4.9475,5.0135,5.0565,5.0683,5.0702,5.0702,5.0702,5.0702,5.076,5.0914,5.0948,5.1045,5.1191,5.123,5.1308,5.1406,5.1406,5.1406,5.1426,5.2051,5.2461,5.2773,5.4023,5.457,5.4629,5.5098,5.5664,5.6269,5.6504,5.6582,5.6523,5.6445,5.6376,5.6322,5.6166,5.6129,5.609,5.5895,5.5838,5.5818,5.5722,5.5703,5.5703,5.5703,5.5703,5.5703,5.5703,5.5703,5.5703,5.5703,5.5703,5.5703,5.5703,5.5607,5.5568,5.5684,5.5607,5.5568,5.5684,5.5599,5.5423,5.5141,5.4905,5.451,5.3869,5.3683,5.3505,5.3248,5.3206,5.3206,5.3206,5.3206,5.3206,5.3206,5.3206,5.3206,5.3206,5.3206,5.3206,5.3206,5.3206,5.3206,5.3206,5.3206,5.3206,5.3206,5.3206,5.3103,0.0,0.0,0.0,5.183,0.0,0.0,5.3133,5.2582,5.1995,5.1995,5.0986,5.0086,5.0086,4.9407,4.8838,4.8838,4.8545,4.8306,4.8306,4.8306,4.8306,4.8306,4.8881,4.9326,4.9475,5.0068,5.0523,5.0683,5.0702,5.0702,5.0702,5.0702,5.0741,5.0818,5.0875,5.0948,5.107,5.1132,5.1195,5.1273,5.1676,5.1855,5.1894,5.2812,5.3437,5.3848,5.4863,5.5508,5.584,5.584,5.6133,5.6601,5.6601,5.6601,5.6582,5.6504,5.6484,5.6465,5.6328,5.6274,5.6239,5.5974,5.5891,5.5857,5.5742,5.5703,5.5703,5.5703,5.5703,5.5703,5.5703,5.5703,5.5703,5.5703,5.5703,5.5703,5.5703,5.5703,5.5703,5.5703,5.5703,5.5703,5.5703,5.5703,5.5621,5.5399,5.5212,5.4905,5.4414,5.403,5.372,5.3484,5.3295,5.3206,5.3206,5.3206,5.3206,5.3206,5.3206,5.3206,5.3206,5.3206,5.3206,5.3206,5.3206,5.3206,5.3206,5.3206,5.3206,5.3206,5.3206,5.3206,0.0,0.0,0.0,0.0,5.1922,0.0,5.3023,5.2656,5.2123,5.2123,5.1481,5.093,5.093,5.027,4.9719,4.9719,4.9077,4.8526,4.8343,4.8306,4.8306,4.8306,4.8692,4.9108,4.9475,4.9898,5.0294,5.0663,5.0702,5.0702,5.0702,5.0702,5.0702,5.0702,5.0837,5.0895,5.0914,5.112,5.1217,5.1236,5.2177,5.2629,5.2653,5.3652,5.4531,5.5273,5.539,5.5879,5.6601,5.6601,5.6601,5.6601,5.6601,5.6601,5.6601,5.6601,5.6601,5.6582,5.6465,5.6426,5.6367,5.6068,5.5947,5.5895,5.5761,5.5703,5.5703,5.5703,5.5703,5.5703,5.5703,5.5703,5.5703,5.5703,5.5703,5.5703,5.5703,5.5703,5.5703,5.5703,5.5703,5.5703,5.5703,5.5703,5.5703,5.5703,5.5399,5.516,5.5107,5.4414,5.3905,5.3814,5.3524,5.3314,5.3206,5.323,5.323,5.3206,5.3206,5.3206,5.3206,5.3206,5.3206,5.3206,5.3206,5.3206,5.3206,5.3206,5.3206,5.3206,5.3206,5.3261,0.0,0.0,0.0,5.0784,5.1518,0.0,5.3023,5.3096,5.2968,5.2968,5.2325,5.1756,5.1756,5.1114,5.0563,5.0563,5.0417,4.9848,4.8489,4.8306,4.8306,4.8306,4.893,4.9416,4.9475,5.0159,5.0624,5.0683,5.0702,5.0702,5.0702,5.0702,5.0702,5.0702,5.0721,5.0779,5.0914,5.1567,5.1951,5.2068,5.2964,5.3377,5.3416,5.4421,5.498,5.5176,5.5996,5.6445,5.6601,5.6601,5.6601,5.6601,5.6601,5.6601,5.6601,5.6601,5.6601,5.6601,5.6562,5.6562,5.6536,5.6362,5.6233,5.6109,5.5915,5.578,5.5703,5.5703,5.5703,5.5703,5.5703,5.5703,5.5703,5.5703,5.5703,5.5703,5.5703,5.5703,5.5703,5.5703,5.5703,5.5703,5.5703,5.5703,5.5703,5.5703,5.564,5.5466,5.516,5.4933,5.4591,5.3869,5.4067,5.3943,5.3272,5.3524,5.3526,5.3206,5.3206,5.3206,5.3206,5.3206,5.3206,5.3206,5.3206,5.3206,5.3206,5.3206,5.3206,5.3206,5.3206,5.3555,4.8306,4.86,4.9205,5.049,5.1096,0.0,0.0,5.3206,5.3206,5.3206,5.2894,5.2601,5.2601,5.194,5.1389,5.1389,5.1059,5.0508,4.9682,4.9205,4.8783,4.8361,4.8996,4.9504,4.9504,5.0225,5.0702,5.0702,5.0702,5.0702,5.0702,5.0702,5.0875,5.1298,5.1298,5.1548,5.2029,5.2452,5.2683,5.2759,5.3703,5.415,5.4181,5.5267,5.5757,5.5781,5.6348,5.6601,5.6601,5.6601,5.6601,5.6601,5.6601,5.6601,5.6601,5.6601,5.6601,5.6601,5.6601,5.6601,5.658,5.6433,5.6343,5.6244,5.5994,5.5799,5.5703,5.5703,5.5703,5.5703,5.5703,5.5703,5.5703,5.5703,5.5703,5.5703,5.5703,5.5703,5.5703,5.5703,5.5703,5.5703,5.5703,5.5703,5.5703,5.5703,5.5703,5.564,5.5423,5.5212,5.4933,5.4497,5.4484,5.434,5.3888,5.4032,5.396,5.3545,5.3505,5.3422,5.3206,5.3206,5.3206,5.3206,5.3206,5.3206,5.3206,5.3206,5.3206,5.3225,5.361,5.4014,4.8306,4.8306,4.871,5.038,5.0802,5.1224,0.0,0.0,0.0,5.3206,5.3206,5.3206,5.3206,5.2674,5.2234,5.2234,5.1683,5.1206,5.1059,5.0453,4.9738,4.8893,4.9415,4.9887,4.9965,5.0703,5.1183,5.1183,5.1183,5.1183,5.1183,5.1183,5.1471,5.2145,5.2164,5.2491,5.3203,5.3376,5.3453,5.3453,5.4435,5.4897,5.4916,5.5878,5.6306,5.6315,5.6483,5.6562,5.6562,5.6582,5.6601,5.6601,5.6601,5.6601,5.6601,5.6601,5.6601,5.6601,5.6601,5.6601,5.6582,5.6465,5.643,5.6344,5.6056,5.5857,5.5742,5.5742,5.5722,5.5703,5.5703,5.5703,5.5703,5.5703,5.5703,5.5703,5.5703,5.5703,5.5703,5.5703,5.5703,5.5703,5.5703,5.5703,5.5703,5.5703,5.5703,5.5703,5.5703,5.5423,5.5186,5.5107,5.4895,5.4689,5.4503,5.4566,5.442,5.3941,5.3851,5.3663,5.3336,5.323,5.3206,5.3206,5.3206,5.3206,5.3206,5.3206,5.3298,5.3463,5.4106,5.4564,4.8306,4.8306,4.871,5.038,5.0802,5.1224,5.2839,0.0,5.3206,5.3206,0.0,5.3206,5.3206,0.0,0.0,5.3078,5.3004,5.2692,5.1958,5.1775,5.1426,5.0618,5.088,5.1245,5.1681,5.2442,5.2914,5.2914,5.2914,5.2914,5.2914,5.2914,5.2972,5.3049,5.3049,5.3106,5.3203,5.3972,5.4357,5.4357,5.5184,5.5588,5.5588,5.5838,5.596,5.5967,5.6282,5.6426,5.6426,5.6543,5.6601,5.6601,5.6601,5.6601,5.6601,5.6601,5.6601,5.6601,5.6601,5.6601,5.6601,5.6582,5.6502,5.6363,5.6207,5.6032,5.5876,5.5876,5.578,5.5703,5.5703,5.5703,5.5703,5.5703,5.5703,5.5703,5.5703,5.5703,5.5703,5.5703,5.5703,5.5703,5.5703,5.5703,5.5703,5.5703,5.5703,5.5703,5.5703,5.5662,5.5489,5.5134,5.5375,5.5262,5.4566,5.4838,5.4867,5.4471,5.4013,5.3777,5.372,5.3381,5.3206,5.3206,5.3206,5.3206,5.3206,5.3206,5.3573,5.4271,5.4363,5.517,4.8306,4.8306,4.871,5.038,5.0802,5.1224,5.2839,5.3206,5.3206,5.3206,0.0,0.0,0.0,0.0,0.0,0.0,5.3206,5.3096,5.2747,5.2711,5.2215,5.0949,5.1102,5.1559,5.2276,5.2654,5.2951,5.3182,5.2973,5.2951,5.3182,5.3203,5.3433,5.3933,5.3953,5.4184,5.4645,5.5011,5.5203,5.5203,5.553,5.5703,5.5703,5.5838,5.5883,5.5902,5.6165,5.6332,5.6406,5.6465,5.6523,5.6601,5.6601,5.6601,5.6601,5.6601,5.6601,5.6601,5.6601,5.6601,5.6601,5.6601,5.6504,5.6384,5.6328,5.6202,5.6055,5.5924,5.5857,5.5799,5.5722,5.5703,5.5703,5.5703,5.5703,5.5703,5.5703,5.5703,5.5703,5.5703,5.5703,5.5703,5.5703,5.5703,5.5703,5.5703,5.5703,5.5703,5.5703,5.5703,5.564,5.5466,5.5599,5.5577,5.5231,5.5331,5.5282,5.4848,5.4433,5.4083,5.3814,5.3624,5.3462,5.3206,5.3206,5.3206,5.3206,5.3683,5.4308,5.5097,5.5097,5.5702,4.8306,4.8306,4.871,5.038,5.0802,5.1224,5.2839,5.3206,5.3206,5.3206,5.3206,0.0,0.0,0.0,5.3206,5.3206,0.0,5.3206,5.3206,5.3206,5.2784,5.161,5.1749,5.2233,5.2872,5.3034,5.3289,5.3686,5.346,5.346,5.3855,5.3895,5.4184,5.4799,5.4818,5.5107,5.5684,5.5703,5.5703,5.5703,5.5703,5.5703,5.5703,5.5799,5.5838,5.5857,5.6051,5.6168,5.6269,5.6362,5.6465,5.6543,5.6582,5.6601,5.6601,5.6601,5.6601,5.6601,5.6601,5.6601,5.6601,5.6601,5.6523,5.6445,5.6445,5.6367,5.6222,5.6071,5.6018,5.5974,5.5857,5.5838,5.5818,5.5761,5.5742,5.5742,5.5703,5.5703,5.5703,5.5703,5.5703,5.5703,5.5703,5.5703,5.5703,5.5703,5.5703,5.5703,5.5703,5.5703,5.5703,5.5703,5.5703,5.5703,5.5703,5.5703,5.5512,5.5134,5.4838,5.4452,5.4013,5.3977,5.3796,5.3359,5.3359,5.3405,5.3537,5.4124,5.4932,5.5923,5.5923,5.6363,4.8306,4.8306,4.871,5.038,5.0802,5.1224,5.2839,5.3206,5.3206,5.3206,5.3206,5.3206,5.3206,5.3206,5.3206,0.0,5.3206,0.0,0.0,5.3206,5.3188,5.3133,5.3491,5.3721,5.3758,5.418,5.4595,5.5012,5.5031,5.5205,5.5585,5.5607,5.5626,5.5665,5.5665,5.5665,5.5703,5.5703,5.5703,5.5703,5.5703,5.5703,5.5703,5.5703,5.5703,5.5703,5.5838,5.5898,5.5943,5.6269,5.6406,5.6426,5.6543,5.6601,5.6601,5.6601,5.6601,5.6601,5.6601,5.6601,5.6601,5.6601,5.6601,5.6582,5.6582,5.6504,5.6387,5.6386,5.6289,5.6186,5.6186,5.6186,5.6128,5.5955,5.5876,5.5857,5.5722,5.5703,5.5703,5.5703,5.5703,5.5703,5.5703,5.5703,5.5703,5.5703,5.5703,5.5703,5.5703,5.5703,5.5703,5.5703,5.5703,5.5703,5.5703,5.5703,5.5512,5.5134,5.5088,5.4895,5.4484,5.4471,5.4255,5.3777,5.3777,5.3975,5.4363,5.4399,5.5207,5.6767,5.6767,5.7189,0.0,0.0,4.871,5.038,5.0802,5.1224,5.2839,5.3206,5.3206,5.3206,5.3206,5.3206,5.3206,5.3206,5.3206,0.0,0.0,5.3206,0.0,5.3206,5.3206,5.3206,5.3584,5.3814,5.3814,5.4221,5.4689,5.5061,5.5088,5.5282,5.5662,5.5703,5.5703,5.5703,5.5703,5.5703,5.5703,5.5703,5.5703,5.5703,5.5703,5.5703,5.5703,5.5703,5.5703,5.5703,5.5742,5.5818,5.5919,5.602,5.6191,5.6406,5.6445,5.6523,5.6601,5.6601,5.6601,5.6601,5.6601,5.6601,5.6601,5.6601,5.6601,5.6601,5.6601,5.6562,5.6504,5.6426,5.6364,5.6308,5.6211,5.6191,5.6172,5.6113,5.5996,5.5876,5.5838,5.5761,5.5703,5.5703,5.5703,5.5703,5.5703,5.5703,5.5703,5.5703,5.5703,5.5703,5.5703,5.5703,5.5703,5.5703,5.5703,5.5703,5.5703,5.5703,5.564,5.5512,5.5489,5.5306,5.4924,5.4895,5.4701,5.4255,5.4796,5.5141,5.5265,5.6369,5.7021,5.7274,5.7793,5.8067,4.8306,4.8132,0.0,5.034,5.0643,0.0,5.2797,5.3206,5.3206,5.3206,5.3206,5.3206,5.3206,5.3206,5.3206,0.0,0.0,5.3206,0.0,5.3206,5.3206,5.3206,5.3422,5.3624,5.3777,5.3924,5.4322,5.5034,5.4979,5.5115,5.5662,5.5703,5.5703,5.5703,5.5703,5.5703,5.5703,5.5703,5.5703,5.5703,5.5703,5.5703,5.5703,5.5703,5.5703,5.5703,5.5703,5.5742,5.5818,5.5876,5.6036,5.6237,5.6341,5.6445,5.6523,5.6582,5.6601,5.6601,5.6601,5.6601,5.6601,5.6601,5.6601,5.6601,5.6601,5.6601,5.664,5.6875,5.6719,5.6523,5.6758,5.6562,5.6328,5.6289,5.614,5.599,5.5923,5.578,5.5703,5.5703,5.5703,5.5703,5.5703,5.5703,5.5703,5.5703,5.5703,5.5703,5.5703,5.5703,5.5703,5.5703,5.5703,5.5703,5.5703,5.5703,5.5703,5.5703,5.5703,5.5577,5.5331,5.5306,5.5115,5.4701,5.5546,5.6002,5.6107,5.7536,5.8194,5.8165,5.8532,5.8526]},{"header":{"parameterUnit":"m.s-1","parameterCategory":1,"la1":30.6,"la2":29.2853,"lo1":-89.7004,"lo2":-87.6739,"dy":0.0162,"dx":0.0183,"nx":112,"ny":82,"refTime":"2023-04-18T12:00:00:Z","depth":0,"parameterNumber":3,"parameterNumberName":"V-component_of_WINDS"},"data":[0.0,0.0,0.0,0.0,0.0,0.0,0.0,0.0,0.0,0.0,0.0,0.0,0.0,0.0,0.0,0.0,0.0,0.0,0.0,0.0,0.0,0.0,0.0,0.0,0.0,0.0,0.0,0.0,0.0,0.0,0.0,0.0,0.0,0.0,0.0,0.0,0.0,0.0,0.0,0.0,0.0,0.0,0.0,0.0,0.0,0.0,0.0,0.0,0.0,0.0,0.0,0.0,0.0,0.0,0.0,0.0,0.0,0.0,0.0,0.0,0.0,0.0,0.0,0.0,0.0,0.0,0.0,0.0,0.0,0.0,0.0,0.0,0.0,0.0,0.0,0.0,0.0,0.0,0.0,0.0,0.0,0.0,0.0,0.0,0.0,0.0,0.0,0.0,0.0,0.0,-2.448,-2.2145,-2.1699,-2.1805,-2.2251,-2.4591,-2.4931,-2.2145,0.0,0.0,0.0,0.0,0.0,0.0,0.0,0.0,0.0,0.0,0.0,0.0,0.0,0.0,0.0,0.0,0.0,0.0,0.0,0.0,0.0,0.0,0.0,0.0,0.0,0.0,0.0,0.0,0.0,0.0,0.0,0.0,0.0,0.0,0.0,0.0,0.0,0.0,0.0,0.0,0.0,0.0,0.0,0.0,0.0,0.0,0.0,0.0,0.0,0.0,0.0,0.0,0.0,0.0,0.0,0.0,0.0,0.0,0.0,0.0,0.0,0.0,0.0,0.0,0.0,0.0,0.0,0.0,0.0,0.0,0.0,0.0,0.0,0.0,0.0,0.0,0.0,0.0,0.0,0.0,0.0,0.0,0.0,0.0,0.0,0.0,0.0,0.0,0.0,0.0,0.0,0.0,0.0,0.0,0.0,0.0,0.0,0.0,0.0,0.0,0.0,0.0,0.0,0.0,-2.2589,-2.3375,-2.2371,-2.2589,-2.5151,-2.5818,-2.538,-2.3599,0.0,0.0,0.0,0.0,0.0,0.0,0.0,0.0,0.0,0.0,0.0,0.0,0.0,0.0,0.0,0.0,0.0,0.0,0.0,0.0,0.0,0.0,0.0,0.0,0.0,0.0,0.0,0.0,0.0,0.0,0.0,0.0,0.0,0.0,0.0,0.0,0.0,0.0,0.0,0.0,0.0,0.0,0.0,0.0,0.0,0.0,0.0,0.0,0.0,0.0,0.0,0.0,0.0,0.0,0.0,0.0,0.0,0.0,0.0,0.0,0.0,0.0,0.0,0.0,0.0,0.0,0.0,0.0,0.0,0.0,0.0,0.0,0.0,0.0,0.0,0.0,0.0,0.0,0.0,0.0,0.0,0.0,0.0,0.0,0.0,0.0,0.0,0.0,0.0,0.0,0.0,0.0,0.0,0.0,0.0,0.0,0.0,0.0,0.0,0.0,0.0,0.0,0.0,-2.2145,-2.2145,-2.3599,-2.3151,-2.371,-2.5927,-2.6825,-2.6273,-2.3933,-2.3822,0.0,0.0,0.0,0.0,0.0,0.0,0.0,0.0,0.0,0.0,0.0,0.0,0.0,0.0,0.0,0.0,0.0,0.0,0.0,0.0,0.0,0.0,0.0,0.0,0.0,0.0,0.0,0.0,0.0,0.0,0.0,0.0,0.0,0.0,0.0,0.0,0.0,0.0,0.0,0.0,0.0,0.0,0.0,0.0,0.0,0.0,0.0,0.0,0.0,0.0,0.0,0.0,0.0,0.0,0.0,0.0,0.0,0.0,0.0,0.0,0.0,0.0,0.0,0.0,0.0,0.0,0.0,0.0,0.0,0.0,0.0,0.0,0.0,0.0,0.0,0.0,0.0,0.0,0.0,0.0,0.0,0.0,0.0,0.0,0.0,0.0,0.0,0.0,0.0,0.0,0.0,0.0,0.0,0.0,0.0,0.0,0.0,0.0,0.0,0.0,0.0,0.0,-2.2702,-2.2927,-2.371,-2.4156,-2.4931,-2.649,-2.7618,-2.706,-2.4044,-2.3822,0.0,0.0,0.0,0.0,0.0,0.0,0.0,0.0,0.0,0.0,0.0,0.0,0.0,0.0,0.0,0.0,0.0,0.0,0.0,0.0,0.0,0.0,0.0,0.0,0.0,0.0,0.0,0.0,0.0,0.0,0.0,0.0,0.0,0.0,0.0,0.0,0.0,0.0,0.0,0.0,0.0,0.0,0.0,0.0,0.0,0.0,0.0,0.0,0.0,0.0,0.0,0.0,0.0,0.0,0.0,0.0,0.0,0.0,0.0,0.0,0.0,0.0,0.0,0.0,0.0,0.0,0.0,0.0,0.0,0.0,0.0,0.0,0.0,0.0,0.0,0.0,0.0,0.0,0.0,0.0,0.0,0.0,0.0,0.0,0.0,0.0,0.0,0.0,0.0,0.0,0.0,0.0,0.0,0.0,0.0,0.0,0.0,0.0,0.0,0.0,0.0,0.0,-2.3263,-2.5261,-2.3933,-2.5041,-2.649,-2.8067,-2.8291,-2.706,-2.4044,-2.3822,0.0,0.0,0.0,0.0,0.0,0.0,0.0,0.0,0.0,0.0,0.0,0.0,0.0,0.0,0.0,0.0,0.0,0.0,0.0,0.0,0.0,0.0,0.0,0.0,0.0,0.0,0.0,0.0,0.0,0.0,0.0,0.0,0.0,0.0,0.0,0.0,0.0,0.0,0.0,0.0,0.0,0.0,0.0,0.0,0.0,0.0,0.0,0.0,0.0,0.0,0.0,0.0,0.0,0.0,0.0,0.0,0.0,0.0,0.0,0.0,0.0,0.0,0.0,0.0,0.0,0.0,0.0,0.0,0.0,0.0,0.0,0.0,0.0,0.0,0.0,0.0,0.0,0.0,0.0,0.0,0.0,0.0,0.0,0.0,0.0,0.0,0.0,0.0,0.0,0.0,0.0,0.0,0.0,0.0,0.0,0.0,0.0,0.0,0.0,0.0,0.0,0.0,-2.2258,-2.3813,-2.5151,-2.5726,-2.6735,-2.8184,-2.8291,-2.706,-2.4044,0.0,0.0,0.0,0.0,0.0,0.0,0.0,0.0,0.0,0.0,0.0,0.0,0.0,0.0,0.0,0.0,0.0,0.0,0.0,0.0,0.0,0.0,0.0,0.0,0.0,0.0,0.0,0.0,0.0,0.0,0.0,0.0,0.0,0.0,0.0,0.0,0.0,0.0,0.0,0.0,0.0,0.0,0.0,0.0,0.0,0.0,0.0,0.0,0.0,0.0,0.0,0.0,0.0,0.0,0.0,0.0,0.0,0.0,0.0,0.0,0.0,0.0,0.0,0.0,0.0,0.0,0.0,0.0,0.0,0.0,0.0,0.0,0.0,0.0,0.0,0.0,0.0,0.0,0.0,0.0,0.0,0.0,0.0,0.0,0.0,0.0,0.0,0.0,0.0,0.0,0.0,0.0,0.0,0.0,0.0,0.0,0.0,0.0,0.0,0.0,0.0,0.0,-2.1472,-2.2806,-2.4369,-2.5927,-2.6509,-2.7187,-2.8184,-2.8291,-2.706,-2.4044,0.0,0.0,0.0,0.0,0.0,0.0,0.0,0.0,0.0,0.0,0.0,0.0,0.0,0.0,0.0,0.0,0.0,0.0,0.0,0.0,0.0,0.0,0.0,0.0,0.0,0.0,0.0,0.0,0.0,0.0,0.0,0.0,0.0,0.0,0.0,0.0,0.0,0.0,0.0,0.0,0.0,0.0,0.0,0.0,0.0,0.0,0.0,0.0,0.0,0.0,0.0,0.0,0.0,0.0,0.0,0.0,0.0,0.0,0.0,0.0,0.0,0.0,0.0,0.0,0.0,0.0,0.0,0.0,0.0,0.0,0.0,0.0,0.0,0.0,0.0,0.0,0.0,0.0,0.0,0.0,0.0,0.0,0.0,0.0,0.0,0.0,0.0,0.0,0.0,0.0,0.0,0.0,0.0,0.0,0.0,0.0,0.0,0.0,0.0,0.0,0.0,0.0,-2.1805,-2.5489,-2.7726,-2.6264,-2.7394,-2.8291,-2.8291,-2.8291,-2.706,0.0,0.0,0.0,0.0,0.0,0.0,0.0,0.0,0.0,0.0,0.0,0.0,0.0,0.0,0.0,0.0,0.0,0.0,0.0,0.0,0.0,0.0,0.0,0.0,0.0,0.0,0.0,0.0,0.0,0.0,0.0,0.0,0.0,0.0,0.0,0.0,0.0,0.0,0.0,0.0,0.0,0.0,0.0,0.0,0.0,0.0,0.0,0.0,0.0,0.0,0.0,0.0,0.0,0.0,0.0,0.0,0.0,0.0,0.0,0.0,0.0,0.0,0.0,0.0,0.0,0.0,0.0,0.0,0.0,0.0,0.0,0.0,0.0,0.0,0.0,0.0,0.0,0.0,0.0,0.0,0.0,0.0,0.0,0.0,0.0,0.0,0.0,0.0,0.0,0.0,0.0,0.0,0.0,0.0,0.0,0.0,0.0,0.0,0.0,0.0,0.0,0.0,0.0,-2.3039,-2.527,-2.6943,-2.7609,-2.8067,-2.8291,-2.8291,-2.8291,-2.706,-2.4044,0.0,0.0,0.0,0.0,0.0,0.0,0.0,0.0,0.0,0.0,0.0,0.0,0.0,0.0,0.0,0.0,0.0,0.0,0.0,0.0,0.0,0.0,0.0,0.0,0.0,0.0,0.0,0.0,0.0,0.0,0.0,0.0,0.0,0.0,0.0,0.0,0.0,0.0,0.0,0.0,0.0,0.0,0.0,0.0,0.0,0.0,0.0,0.0,0.0,0.0,0.0,0.0,0.0,0.0,0.0,0.0,0.0,0.0,0.0,0.0,0.0,0.0,0.0,0.0,0.0,0.0,0.0,0.0,0.0,0.0,0.0,0.0,0.0,0.0,0.0,0.0,0.0,0.0,0.0,0.0,0.0,0.0,0.0,0.0,0.0,0.0,0.0,0.0,0.0,0.0,0.0,0.0,0.0,0.0,0.0,0.0,0.0,0.0,0.0,0.0,0.0,0.0,-2.371,-2.5709,-2.7286,-2.8184,-2.8291,-2.8291,-2.8291,-2.8291,-2.7286,-2.482,0.0,0.0,0.0,0.0,0.0,0.0,0.0,0.0,0.0,0.0,0.0,0.0,0.0,0.0,0.0,0.0,0.0,0.0,0.0,0.0,0.0,0.0,0.0,0.0,0.0,0.0,0.0,0.0,0.0,0.0,0.0,0.0,0.0,0.0,0.0,0.0,0.0,0.0,0.0,0.0,0.0,0.0,0.0,0.0,0.0,0.0,0.0,0.0,0.0,0.0,0.0,0.0,0.0,0.0,0.0,0.0,0.0,0.0,0.0,0.0,0.0,0.0,0.0,0.0,0.0,0.0,0.0,0.0,0.0,0.0,0.0,0.0,0.0,0.0,0.0,0.0,0.0,0.0,0.0,0.0,0.0,0.0,0.0,0.0,0.0,0.0,0.0,0.0,0.0,0.0,0.0,0.0,0.0,0.0,0.0,0.0,0.0,0.0,0.0,0.0,0.0,0.0,-2.3822,-2.6391,-2.8291,-2.8291,-2.8291,-2.8291,-2.8291,-2.8291,-2.7618,-2.6155,0.0,0.0,0.0,0.0,0.0,0.0,0.0,0.0,0.0,0.0,0.0,0.0,0.0,0.0,0.0,0.0,0.0,0.0,0.0,0.0,0.0,0.0,0.0,0.0,0.0,0.0,0.0,0.0,0.0,0.0,0.0,0.0,0.0,0.0,0.0,0.0,0.0,0.0,0.0,0.0,0.0,0.0,0.0,0.0,0.0,0.0,0.0,0.0,0.0,0.0,0.0,0.0,0.0,0.0,0.0,0.0,0.0,0.0,0.0,0.0,-1.7566,-1.7683,0.0,0.0,0.0,0.0,0.0,0.0,0.0,0.0,0.0,0.0,0.0,0.0,0.0,0.0,0.0,0.0,0.0,0.0,0.0,0.0,0.0,0.0,0.0,0.0,0.0,0.0,0.0,0.0,0.0,0.0,0.0,0.0,0.0,0.0,0.0,0.0,0.0,0.0,0.0,0.0,-2.3822,-2.6391,-2.8291,-2.8291,-2.8291,-2.8291,-2.8291,-2.8291,-2.7618,-2.6155,-2.6155,0.0,0.0,0.0,0.0,0.0,0.0,0.0,0.0,0.0,0.0,0.0,0.0,0.0,0.0,0.0,0.0,0.0,0.0,0.0,0.0,0.0,0.0,0.0,0.0,0.0,0.0,0.0,0.0,0.0,0.0,0.0,0.0,0.0,0.0,0.0,0.0,0.0,0.0,0.0,0.0,0.0,0.0,0.0,0.0,0.0,0.0,0.0,0.0,0.0,0.0,0.0,0.0,0.0,0.0,0.0,0.0,0.0,0.0,0.0,-1.8461,-1.8642,0.0,0.0,0.0,0.0,0.0,0.0,0.0,0.0,0.0,0.0,0.0,0.0,0.0,0.0,0.0,0.0,0.0,0.0,0.0,0.0,0.0,0.0,0.0,0.0,0.0,0.0,0.0,0.0,0.0,0.0,0.0,0.0,0.0,0.0,0.0,0.0,0.0,0.0,0.0,0.0,-2.3822,-2.6391,-2.8291,-2.8291,-2.8291,-2.8291,-2.8291,-2.8291,-2.795,-2.7168,-2.7168,0.0,0.0,0.0,0.0,0.0,0.0,0.0,0.0,0.0,0.0,0.0,0.0,0.0,0.0,0.0,0.0,0.0,0.0,0.0,0.0,0.0,0.0,0.0,0.0,0.0,0.0,0.0,0.0,0.0,0.0,0.0,0.0,0.0,0.0,0.0,0.0,0.0,0.0,0.0,0.0,0.0,0.0,0.0,0.0,0.0,0.0,0.0,0.0,0.0,0.0,0.0,0.0,0.0,-1.7582,-1.7749,-1.8056,-1.8303,-1.8604,-1.8938,-1.9185,-1.9319,-1.9366,-1.9366,0.0,0.0,0.0,0.0,0.0,0.0,0.0,0.0,0.0,0.0,0.0,0.0,0.0,0.0,0.0,0.0,0.0,0.0,0.0,0.0,0.0,0.0,0.0,0.0,-2.0364,-2.0923,-1.9707,0.0,0.0,0.0,0.0,0.0,0.0,0.0,0.0,0.0,0.0,0.0,-2.4156,-2.6608,-2.8291,-2.8291,-2.8291,-2.8291,-2.8291,-2.8291,-2.8291,-2.8291,-2.8291,-2.7726,0.0,0.0,0.0,0.0,0.0,0.0,0.0,0.0,0.0,0.0,0.0,0.0,0.0,0.0,0.0,0.0,0.0,0.0,0.0,0.0,0.0,0.0,0.0,0.0,0.0,0.0,0.0,0.0,0.0,0.0,0.0,0.0,-1.3048,-1.3048,0.0,0.0,0.0,0.0,0.0,0.0,0.0,0.0,0.0,0.0,0.0,0.0,0.0,-1.7582,-1.7582,-1.7582,-1.7582,-1.7582,-1.7582,-1.7749,-1.805,-1.809,-1.8404,-1.8925,-1.8965,0.0,-1.9366,-1.9366,0.0,0.0,0.0,0.0,0.0,0.0,0.0,0.0,0.0,0.0,0.0,0.0,0.0,0.0,0.0,0.0,0.0,0.0,0.0,0.0,0.0,0.0,-1.9591,-1.9482,-1.9597,-1.9591,0.0,-1.9591,-2.0033,-2.1145,-2.1472,0.0,0.0,0.0,0.0,0.0,0.0,0.0,-2.5599,-2.7276,-2.8291,-2.8291,-2.8291,-2.8291,-2.8291,-2.8291,-2.8291,-2.8291,-2.8291,-2.8184,-2.8067,-2.8184,0.0,0.0,0.0,0.0,0.0,0.0,0.0,0.0,0.0,0.0,0.0,0.0,0.0,0.0,0.0,0.0,0.0,0.0,0.0,0.0,0.0,0.0,0.0,0.0,0.0,0.0,0.0,0.0,0.0,-1.294,-1.3264,-1.3264,-1.1973,-1.1105,0.0,0.0,0.0,0.0,0.0,0.0,0.0,0.0,0.0,-1.7582,-1.7582,-1.7582,-1.7582,-1.7582,-1.7582,-1.7582,-1.7582,-1.7655,-1.7796,-1.7969,-1.8183,-1.8444,-1.8611,-1.8844,-1.9132,-1.9299,-1.9366,-1.9366,0.0,0.0,0.0,0.0,-1.9366,-1.9366,-1.9366,-1.9366,-1.9366,-1.9366,0.0,0.0,0.0,0.0,0.0,0.0,0.0,0.0,0.0,0.0,-1.9366,-1.9366,-1.9366,-1.9591,-2.0479,-2.004,-1.9591,0.0,-2.1707,-2.2153,-1.9815,-2.1266,0.0,0.0,0.0,-2.4378,-2.5927,-2.6617,-2.7403,-2.8184,-2.8291,-2.8291,-2.8291,-2.8291,-2.8291,-2.8291,-2.8291,-2.8291,-2.8291,-2.8291,-2.8291,0.0,0.0,0.0,0.0,0.0,0.0,0.0,0.0,0.0,0.0,0.0,0.0,0.0,0.0,0.0,0.0,0.0,0.0,0.0,0.0,0.0,0.0,0.0,0.0,0.0,0.0,0.0,0.0,-1.3588,-1.4019,-1.4347,-1.3048,-1.2186,0.0,0.0,0.0,0.0,0.0,0.0,-1.5956,-1.7035,-1.7582,-1.7582,-1.7582,-1.7582,-1.7582,-1.7582,-1.7582,-1.7582,-1.7582,-1.7582,-1.7589,-1.7822,-1.7969,-1.8056,-1.8277,-1.8544,-1.8838,-1.9132,-1.9299,-1.9366,-1.9366,-1.9366,-1.9366,-1.9366,-1.9366,-1.9366,-1.9366,-1.9366,-1.9366,-1.9366,-1.9366,-1.9366,-1.9366,0.0,0.0,0.0,0.0,-1.9366,-1.9366,-1.9366,-1.9366,-1.9366,-1.9366,-1.97,-2.0809,-2.0141,-1.9475,0.0,-2.1707,-2.2379,-1.9815,-2.182,0.0,-2.1805,-2.3151,-2.482,-2.5927,-2.64,-2.7079,-2.8184,-2.8291,-2.8291,-2.8291,-2.8291,-2.8291,-2.8291,-2.8291,-2.8291,-2.8291,-2.8291,-2.8291,-2.8291,0.0,0.0,0.0,0.0,0.0,0.0,0.0,0.0,0.0,0.0,0.0,0.0,0.0,0.0,0.0,0.0,0.0,0.0,0.0,0.0,0.0,0.0,0.0,0.0,0.0,0.0,0.0,0.0,0.0,-1.7259,-1.6068,0.0,0.0,0.0,0.0,-1.531,-1.6611,-1.7477,-1.7477,-1.7582,-1.7582,-1.7582,-1.7582,-1.7582,-1.7582,-1.7582,-1.7582,-1.7582,-1.7582,-1.7582,-1.7582,-1.7602,-1.7769,-1.805,-1.8063,-1.8237,-1.8537,-1.8824,-1.9112,-1.9366,-1.9366,-1.9366,-1.9366,-1.9366,-1.9366,-1.9366,-1.9366,-1.9366,-1.9366,-1.9366,-1.9366,-1.9366,-1.9366,-1.9366,0.0,0.0,-1.9366,-1.9366,-1.9366,-1.9366,-1.9366,-1.9366,-1.9366,-1.9366,-1.9475,-1.9482,-1.9809,0.0,-2.1586,-2.1252,-1.9707,0.0,-2.3263,-2.1805,-2.4147,-2.6036,-2.6045,-2.7286,-2.8184,-2.8291,-2.8291,-2.8291,-2.8291,-2.8291,-2.8291,-2.8291,-2.8291,-2.8291,-2.8291,-2.8291,-2.8291,-2.8291,-2.8291,0.0,0.0,0.0,0.0,0.0,0.0,0.0,0.0,0.0,0.0,0.0,0.0,0.0,0.0,0.0,0.0,0.0,0.0,0.0,0.0,0.0,0.0,0.0,0.0,0.0,0.0,0.0,0.0,-1.6168,-1.5737,0.0,-1.5417,-1.5417,-1.5743,-1.6711,-1.7259,-1.7582,-1.7582,-1.7582,-1.7582,-1.7582,-1.7582,-1.7582,-1.7582,-1.7582,-1.7582,-1.7582,-1.7582,-1.7582,-1.7582,-1.7582,-1.7642,-1.7749,-1.7749,-1.7923,-1.8217,-1.8317,-1.8644,-1.9098,-1.9292,-1.9366,-1.9366,-1.9366,-1.9366,-1.9366,-1.9366,-1.9366,-1.9366,-1.9366,-1.9366,-1.9366,-1.9366,-1.9366,-1.9366,-1.9366,-1.9366,-1.9366,-1.9366,-1.9366,-1.9366,-1.9366,-1.9366,-1.9366,-1.9366,-1.9366,-1.9591,-2.0033,-2.0916,-2.1137,-1.97,-2.2717,-2.448,-2.1919,-2.4147,-2.6155,-2.6155,-2.6599,-2.7276,-2.8184,-2.8291,-2.8291,-2.8291,-2.8291,-2.8291,-2.8291,-2.8291,-2.8291,-2.8291,-2.8291,-2.8291,-2.8291,-2.8291,-2.8291,0.0,0.0,0.0,0.0,0.0,0.0,0.0,0.0,0.0,0.0,0.0,0.0,0.0,0.0,0.0,0.0,0.0,0.0,0.0,0.0,0.0,0.0,0.0,0.0,0.0,-1.4415,-1.5051,-1.6062,-1.6174,-1.6174,-1.6174,-1.6174,-1.6499,-1.7582,-1.7582,-1.7582,-1.7582,-1.7582,-1.7582,-1.7582,-1.7582,-1.7582,-1.7582,-1.7582,-1.7582,-1.7582,-1.7582,-1.7582,-1.7582,-1.7582,-1.7582,-1.7582,-1.7582,-1.7702,-1.7896,-1.8003,-1.8277,-1.8657,-1.8958,-1.9132,-1.9219,-1.9219,-1.9279,-1.9366,-1.9366,-1.9366,-1.9366,-1.9366,-1.9366,-1.9366,-1.9366,-1.9366,-1.9366,-1.9366,-1.9366,-1.9366,-1.9366,-1.9366,-1.9366,-1.9366,-1.9366,-1.9366,-1.9366,-1.9366,-1.9366,-1.9366,-2.0148,-2.0594,-1.9591,-2.2266,-2.3702,-2.1252,-2.3813,-2.5927,-2.538,-2.6164,-2.7168,-2.8184,-2.8291,-2.8291,-2.8291,-2.8291,-2.8291,-2.8291,-2.8291,-2.8291,-2.8291,-2.8291,-2.8291,-2.8291,-2.8291,-2.8291,-2.8291,0.0,0.0,0.0,0.0,0.0,0.0,0.0,0.0,0.0,0.0,0.0,0.0,0.0,0.0,0.0,0.0,0.0,0.0,0.0,0.0,0.0,0.0,0.0,-1.5299,-1.4248,-1.4439,-1.7246,-1.7582,-1.7582,-1.7582,-1.7582,-1.7582,-1.7582,-1.7582,-1.7582,-1.7582,-1.7582,-1.7582,-1.7582,-1.7582,-1.7582,-1.7582,-1.7582,-1.7582,-1.7582,-1.7582,-1.7582,-1.7582,-1.7582,-1.7582,-1.7582,-1.7582,-1.7582,-1.7609,-1.7909,-1.8029,-1.8063,-1.837,-1.8664,-1.8911,-1.8911,-1.9092,-1.9339,-1.9352,-1.9352,-1.9359,-1.9366,-1.9366,-1.9366,-1.9366,-1.9366,-1.9366,-1.9366,-1.9366,-1.9366,-1.9366,-1.9366,-1.9366,-1.9366,-1.9366,-1.9366,-1.9366,-1.9366,-1.9366,-1.9366,-1.9366,-1.9366,-1.9366,-2.0587,-2.1145,-1.9591,-2.3263,0.0,-2.4044,-2.6391,-2.8291,-2.8291,-2.8291,-2.8291,-2.8291,-2.8291,-2.8291,-2.8291,-2.8291,-2.8291,-2.8291,-2.8291,-2.8291,-2.8291,-2.8291,-2.8291,-2.8291,0.0,0.0,0.0,0.0,0.0,0.0,0.0,0.0,0.0,0.0,0.0,0.0,0.0,0.0,0.0,0.0,0.0,0.0,0.0,0.0,0.0,-1.1143,-1.1291,-1.356,-1.5341,-1.6679,-1.747,-1.7582,-1.7582,-1.7582,-1.7582,-1.7582,-1.7582,-1.7582,-1.7582,-1.7582,-1.7582,-1.7582,-1.7582,-1.7582,-1.7582,-1.7582,-1.7582,-1.7582,-1.7582,-1.7582,-1.7582,-1.7582,-1.7582,-1.7582,-1.7582,-1.7582,-1.7582,-1.7589,-1.7675,-1.7709,-1.7762,-1.8283,-1.8544,-1.8611,-1.8611,-1.8664,-1.8764,-1.8971,-1.9045,-1.9085,-1.9299,-1.9366,-1.9366,-1.9366,-1.9366,-1.9366,-1.9366,-1.9366,-1.9366,-1.9366,-1.9366,-1.9366,-1.9366,-1.9366,-1.9366,-1.9366,-1.9366,-1.9366,-1.9366,-1.9366,-1.9366,-1.9366,-2.0587,-2.1145,-1.9591,-2.3263,0.0,-2.4044,-2.6391,-2.8291,-2.8291,-2.8291,-2.8291,-2.8291,-2.8291,-2.8291,-2.8291,-2.8291,-2.8291,-2.8291,-2.8291,-2.8291,-2.8291,-2.8291,-2.8291,0.0,0.0,0.0,0.0,0.0,0.0,0.0,0.0,0.0,0.0,0.0,0.0,0.0,0.0,0.0,0.0,0.0,0.0,0.0,0.0,0.0,0.0,-1.3607,-1.3103,-1.4837,-1.653,-1.7576,-1.7629,-1.7589,-1.7556,-1.7556,-1.7615,-1.7582,-1.7582,-1.7582,-1.7582,-1.7582,-1.7582,-1.7582,-1.7582,-1.7582,-1.7582,-1.7582,-1.7582,-1.7582,-1.7582,-1.7582,-1.7582,-1.7582,-1.7582,-1.7582,-1.7582,-1.7582,-1.7582,-1.7582,-1.7582,-1.7582,0.0,0.0,0.0,0.0,0.0,-1.849,-1.8517,-1.8684,-1.8744,-1.8771,-1.8945,-1.9085,-1.9185,-1.9185,-1.9265,-1.9366,-1.9366,-1.9366,-1.9366,-1.9366,-1.9366,-1.9366,-1.9366,-1.9366,-1.9366,-1.9366,-1.9366,-1.9366,-1.9366,-1.9366,0.0,-1.9366,-2.0148,-2.0371,-1.9482,-2.2717,-2.482,-2.3933,-2.6391,-2.8291,-2.8291,-2.8291,-2.8291,-2.8291,-2.8291,0.0,0.0,0.0,-2.8291,-2.8291,-2.8291,0.0,0.0,0.0,-2.8601,-2.9102,0.0,0.0,0.0,-3.3055,-3.3365,0.0,0.0,0.0,0.0,0.0,0.0,0.0,0.0,0.0,0.0,0.0,0.0,0.0,0.0,0.0,0.0,-1.7582,-1.7349,-1.6756,-1.6643,-1.6567,-1.6667,-1.658,-1.6857,-1.7556,-1.7563,-1.7595,-1.7582,-1.7582,-1.7582,-1.7582,-1.7582,0.0,0.0,0.0,-1.7582,-1.7582,-1.7582,-1.7582,-1.7582,-1.7582,-1.7582,-1.7582,-1.7582,-1.7582,-1.7582,-1.7582,-1.7582,-1.7582,-1.7582,-1.7582,-1.7582,-1.7582,-1.7749,-1.8029,-1.829,-1.839,-1.839,-1.843,0.0,0.0,-1.8477,-1.8664,-1.8878,-1.8911,-1.9112,-1.9325,-1.9359,-1.9366,-1.9366,-1.9366,-1.9366,-1.9366,-1.9366,-1.9366,-1.9366,-1.9366,-1.9366,-1.9366,-1.9366,-1.9366,-1.9366,-1.9366,-1.9366,-1.9366,-1.9366,-2.1934,-2.3822,-2.3822,-2.6391,-2.8291,-2.8291,0.0,0.0,-2.8291,-2.8291,-2.8291,-2.8291,-2.8291,-2.8291,-2.8291,-2.8291,-2.8291,-2.8291,-2.8291,-2.9006,-3.0317,-3.1633,-3.3055,-3.4385,-3.3254,-3.3453,0.0,0.0,0.0,0.0,0.0,0.0,0.0,0.0,0.0,0.0,0.0,0.0,0.0,0.0,0.0,-1.7391,-1.7607,-1.5965,-1.1272,-1.0599,-1.0582,-1.053,-1.0617,-1.2397,-1.709,-1.7649,-1.7589,-1.7589,-1.7582,-1.7582,-1.7582,-1.7582,-1.7582,-1.7582,-1.7582,-1.7582,-1.7582,-1.7582,-1.7582,-1.7582,0.0,0.0,-1.7582,-1.7582,-1.7582,-1.7582,-1.7582,-1.7582,-1.7582,-1.7582,-1.7582,-1.7582,-1.7582,-1.7615,-1.7682,-1.7736,-1.7756,-1.7789,-1.8043,-1.813,-1.817,-1.841,-1.8531,-1.8617,-1.8851,-1.8965,0.0,-1.9299,-1.9366,-1.9366,-1.9366,-1.9366,-1.9366,-1.9366,-1.9366,-1.9366,-1.9366,-1.9366,-1.9366,-1.9366,-1.9366,-1.9366,-1.9366,-1.9366,-1.9366,-1.9366,-2.1934,-2.3822,-2.3822,-2.6391,-2.8291,-2.8291,-2.8291,-2.8291,-2.8291,-2.8291,-2.8291,-2.8291,-2.8291,-2.8291,-2.8291,-2.8291,-2.8291,-2.8291,-2.8291,-2.9006,-3.0317,-3.1633,-3.3055,-3.4385,-3.5259,-3.575,0.0,0.0,0.0,0.0,0.0,0.0,0.0,0.0,0.0,0.0,0.0,-0.8916,-0.8849,0.0,-1.6605,-1.3743,-1.3197,-1.2205,-0.9283,-0.8866,-0.8876,-0.8948,-0.8913,-1.0004,-1.2925,-1.5851,-1.7643,-1.7576,-1.7615,-1.7582,-1.7582,-1.7582,-1.7582,-1.7582,-1.7582,-1.7582,-1.7582,-1.7582,-1.7582,-1.7582,-1.7582,-1.7582,-1.7582,-1.7582,-1.7582,-1.7582,-1.7582,-1.7582,-1.7582,-1.7582,-1.7582,-1.7582,-1.7582,-1.7582,-1.7582,-1.7582,-1.7582,-1.7602,-1.7762,-1.7816,-1.7842,-1.7989,-1.8143,-1.8297,-1.8444,-1.8691,-1.8951,-1.9105,-1.9252,-1.9366,-1.9366,-1.9366,-1.9366,-1.9366,-1.9366,-1.9366,-1.9366,-1.9366,-1.9366,-1.9366,-1.9366,-1.9366,-1.9366,-1.9366,-1.9366,-1.9366,-2.1259,-2.2927,-2.371,-2.5827,-2.7501,-2.8184,-2.8291,-2.8291,-2.8291,-2.8291,-2.8291,-2.8291,-2.8291,-2.8291,-2.8291,-2.8291,-2.8291,-2.8291,-2.9006,-2.9911,-3.1327,-3.2644,-3.4068,-3.5379,-3.6061,-3.6358,0.0,0.0,0.0,0.0,0.0,0.0,0.0,-0.894,-0.894,-0.894,-0.894,-0.8916,-0.8849,-1.274,-1.4363,-0.9656,-0.892,-0.8855,-0.8855,-0.8903,-0.894,-0.894,-0.8889,-0.8852,-0.8948,-1.3151,-1.6417,-1.7556,-1.7569,-1.7609,-1.7582,-1.7582,-1.7582,-1.7582,-1.7582,-1.7582,-1.7582,-1.7582,-1.7582,-1.7582,-1.7582,-1.7582,-1.7582,-1.7582,-1.7582,-1.7582,-1.7582,-1.7582,-1.7582,-1.7582,-1.7582,-1.7582,-1.7582,-1.7582,-1.7582,-1.7582,-1.7582,-1.7582,-1.7582,-1.7582,-1.7582,-1.7582,-1.7756,-1.7969,-1.8029,-1.8417,-1.8851,-1.8911,-1.9138,-1.9366,-1.9366,-1.9366,-1.9366,-1.9366,-1.9366,-1.9366,-1.9366,-1.9366,-1.9366,-1.9366,-1.9366,-1.9366,-1.9366,-1.9366,-1.9366,-1.9366,-2.0702,-2.2145,-2.3599,-2.516,-2.6717,-2.8174,-2.8291,-2.8291,-2.8291,-2.8291,-2.8291,-2.8291,-2.8291,-2.8291,-2.8291,-2.8291,-2.8291,-2.8291,-2.9608,-3.0927,-3.2331,-3.3662,-3.5078,-3.6358,-3.6358,-3.6358,-0.894,-0.894,-0.894,-0.894,-0.894,-0.894,0.0,-0.894,-0.894,-0.894,-0.894,-0.8916,-0.8849,-0.9453,-0.9699,-0.9057,-0.8882,-0.8927,-0.8927,-0.8933,-0.894,-0.894,-0.8933,-0.8903,-0.8951,-0.9497,-1.2041,-1.7216,-1.7549,-1.7596,-1.7589,-1.7582,-1.7582,-1.7582,-1.7582,-1.7582,-1.7582,-1.7582,-1.7582,-1.7582,-1.7582,-1.7582,-1.7582,-1.7582,-1.7582,-1.7582,-1.7582,-1.7582,-1.7582,-1.7582,-1.7582,-1.7582,-1.7582,-1.7582,-1.7582,-1.7582,-1.7582,-1.7582,-1.7582,-1.7582,-1.7582,-1.7582,-1.7609,-1.7689,-1.7963,-1.8277,-1.8591,-1.8851,-1.9138,-1.9366,-1.9366,-1.9366,-1.9366,-1.9366,-1.9366,-1.9366,-1.9366,-1.9366,-1.9366,-1.9366,-1.9366,-1.9366,-1.9366,-1.9366,-1.9366,-1.9366,-2.0702,-2.2145,-2.3599,-2.516,-2.6717,-2.8174,-2.8291,-2.8291,-2.8291,-2.8291,-2.8291,-2.8291,-2.8291,-2.8291,-2.8291,-2.8291,-2.8291,-2.8291,-2.9608,-3.0927,-3.2331,-3.3662,-3.5078,-3.6358,-3.6358,-3.6358,-0.894,-0.894,-0.894,-0.894,-0.894,-0.894,-0.894,-0.894,-0.894,-0.894,-0.894,-0.893,-0.8899,-0.892,-0.893,-0.8899,-0.892,-0.894,-0.894,-0.894,-0.894,-0.894,-0.894,-0.8927,-0.8899,-0.8859,-0.9937,-1.237,-1.5731,-1.7649,-1.7589,-1.7622,-1.7582,-1.7582,-1.7582,-1.7582,-1.7582,-1.7582,-1.7582,-1.7582,-1.7582,-1.7582,-1.7582,-1.7582,-1.7582,-1.7582,-1.7582,-1.7582,-1.7582,-1.7582,-1.7582,-1.7582,-1.7582,-1.7582,-1.7582,-1.7582,-1.7582,-1.7582,-1.7582,-1.7582,-1.7582,-1.7582,-1.7582,-1.7609,-1.7736,-1.7994,-1.8393,-1.8762,-1.9132,-1.9366,-1.9366,-1.9366,-1.9366,-1.9366,-1.9366,-1.9366,-1.9366,-1.9366,-1.9366,-1.9366,-1.9366,-1.9366,-1.9366,-1.9366,-1.9366,-1.9366,-1.9924,-2.1152,-2.3487,-2.4378,-2.5717,-2.8067,-2.8291,-2.8291,-2.8291,-2.8291,-2.8291,-2.8291,-2.8291,-2.8291,-2.8291,-2.8291,-2.8291,-2.8291,-3.0421,-3.1724,-3.2331,-3.4459,-3.5858,-3.6358,-3.6358,-3.6358,-0.894,-0.894,-0.894,-0.894,-0.894,-0.894,-0.894,-0.894,-0.894,-0.894,-0.894,-0.894,-0.894,-0.894,-0.894,-0.894,-0.894,-0.894,-0.894,-0.894,-0.894,-0.894,-0.894,-0.894,-0.894,-0.8893,-0.8855,-0.8948,-1.2817,-1.5851,-1.7556,-1.7576,-1.7615,-1.7582,-1.7582,-1.7582,-1.7582,-1.7582,-1.7582,-1.7582,-1.7582,-1.7582,-1.7582,-1.7582,-1.7582,-1.7582,-1.7582,-1.7582,-1.7582,-1.7582,-1.7582,-1.7582,-1.7582,-1.7582,-1.7582,-1.7582,-1.7582,-1.7582,-1.7582,-1.7582,-1.7582,-1.7582,-1.7582,-1.7582,-1.7582,-1.7767,-1.8118,-1.8615,-1.9045,-1.9366,-1.9366,-1.9366,-1.9366,-1.9366,-1.9366,-1.9366,-1.9366,-1.9366,-1.9366,-1.9366,-1.9366,-1.9366,-1.9366,-1.9366,-1.9366,-1.9366,-1.9366,-2.0378,-2.2822,-2.3933,-2.5388,-2.8067,-2.8291,-2.8291,-2.8291,-2.8291,-2.8291,-2.8291,-2.8291,-2.8291,-2.8291,-2.8291,-2.8291,-2.8291,-3.0618,-3.1927,-3.2342,-3.4654,-3.6061,-3.6358,-3.6358,-3.6358,-0.894,-0.894,-0.894,-0.894,-0.894,-0.894,-0.894,-0.894,-0.894,-0.894,-0.894,-0.894,-0.894,-0.894,-0.894,-0.894,-0.894,-0.894,-0.894,-0.894,-0.894,-0.894,-0.894,-0.894,-0.894,-0.8937,-0.8906,-0.8951,-0.9057,-1.1593,-1.7329,-1.7556,-1.7603,-1.7589,-1.7582,-1.7582,-1.7582,-1.7582,-1.7582,-1.7582,-1.7582,-1.7582,-1.7582,-1.7582,-1.7582,-1.7582,-1.7582,-1.7582,-1.7582,-1.7582,-1.7582,-1.7582,-1.7582,-1.7582,-1.7582,-1.7582,-1.7582,-1.7582,-1.7582,-1.7582,-1.7582,-1.7582,-1.7582,-1.7582,-1.7582,-1.7639,-1.774,-1.836,-1.8918,-1.9366,-1.9366,-1.9366,-1.9366,-1.9366,-1.9366,-1.9366,-1.9366,-1.9366,-1.9366,-1.9366,-1.9366,-1.9366,-1.9366,-1.9366,-1.9366,-1.9366,-1.9366,-1.9924,-2.1472,-2.4258,-2.6608,-2.8174,-2.8291,-2.8291,-2.8291,-2.8291,-2.8291,-2.8291,-2.8291,-2.8291,-2.8291,-2.8291,-2.8291,-2.8291,-2.9608,-3.1019,-3.2331,-3.3761,-3.5174,-3.6358,-3.6358,-3.6358,-0.894,-0.894,-0.894,-0.894,-0.894,-0.894,-0.894,-0.894,-0.894,-0.894,-0.894,-0.894,-0.894,-0.894,-0.894,-0.894,-0.894,-0.894,-0.894,-0.894,-0.894,-0.894,-0.894,-0.894,-0.894,-0.894,-0.893,-0.8906,-0.8862,-0.9716,-1.1706,-1.5511,-1.7649,-1.7603,-1.7629,-1.7582,-1.7582,-1.7582,-1.7582,-1.7582,-1.7582,-1.7582,-1.7582,-1.7582,-1.7582,-1.7582,-1.7582,-1.7582,-1.7582,-1.7582,-1.7582,-1.7582,-1.7582,-1.7582,-1.7582,-1.7582,-1.7582,-1.7582,-1.7582,-1.7582,-1.7582,-1.7582,-1.7582,-1.7582,-1.7582,-1.7633,-1.7857,-1.8863,-1.9292,-1.9366,-1.9366,-1.9366,-1.9366,-1.9366,-1.9366,-1.9366,-1.9366,-1.9366,-1.9366,-1.9366,-1.9366,-1.9366,-1.9366,-1.9366,-1.9366,-1.9366,-2.0256,-2.1365,-2.2822,-2.3933,-2.5498,-2.8067,-2.7394,-2.7276,-2.8184,-2.8291,-2.8291,-2.8291,-2.8291,-2.8291,-2.8291,-2.8291,-2.8291,-2.8291,-2.9608,-3.0927,-3.2331,-3.3662,-3.5078,-3.6358,-3.6358,-3.6358,-0.894,-0.894,-0.894,-0.894,-0.894,-0.894,-0.894,-0.894,-0.894,-0.894,-0.894,-0.894,-0.894,-0.894,-0.894,-0.894,-0.894,-0.894,-0.894,-0.894,-0.894,-0.894,-0.894,-0.894,-0.894,-0.894,-0.894,-0.894,-0.8896,-0.8862,-0.8948,-1.2483,-1.5398,-1.7556,-1.7589,-1.7629,-1.7582,-1.7582,-1.7582,-1.7582,-1.7582,-1.7582,-1.7582,-1.7582,-1.7582,-1.7582,-1.7582,-1.7582,-1.7582,-1.7582,-1.7582,-1.7582,-1.7582,-1.7582,-1.7582,-1.7582,-1.7582,-1.7582,-1.7582,-1.7582,-1.7582,-1.7582,-1.7582,-1.7582,-1.7582,-1.7633,-1.7864,-1.9112,-1.9426,-1.9366,-1.9366,-1.9366,-1.9366,-1.9366,-1.9366,-1.9366,-1.9366,-1.9366,-1.9366,-1.9366,-1.9366,-1.9366,-1.9366,-1.9366,-1.9366,-1.9366,-2.0263,-2.1365,-2.2814,-2.3039,-2.4156,-2.7168,-2.6726,-2.6726,-2.8184,-2.8291,-2.8291,-2.8291,-2.8291,-2.8291,-2.8291,-2.8291,-2.8291,-2.8291,-2.9102,-3.0214,-3.1633,-3.2955,-3.4362,-3.5667,-3.6168,-3.6358,-0.894,-0.894,-0.894,-0.894,-0.894,-0.894,-0.894,-0.894,-0.894,-0.894,-0.894,-0.894,-0.894,-0.894,-0.894,-0.894,-0.894,-0.894,-0.894,-0.894,-0.894,-0.894,-0.894,-0.894,-0.894,-0.894,-0.894,-0.894,-0.894,-0.891,-0.8955,-0.8948,-1.148,-1.6977,-1.7443,-1.7609,-1.7582,-1.7582,-1.7582,-1.7582,-1.7582,-1.7582,-1.7582,-1.7582,-1.7582,-1.7582,-1.7582,-1.7582,-1.7582,-1.7582,-1.7582,-1.7582,-1.7582,-1.7582,-1.7582,-1.7582,-1.7582,-1.7582,-1.7582,-1.7582,-1.7582,-1.7582,-1.7582,-1.7582,-1.7582,-1.7633,-1.7864,-1.9112,-1.9426,-1.9366,-1.9366,-1.9366,-1.9366,-1.9366,-1.9366,-1.9366,-1.9366,-1.9366,-1.9366,-1.9366,-1.9366,-1.9366,-1.9366,-1.9366,-1.9366,-1.9366,-1.9366,-1.9924,-2.1358,-2.1586,-2.2589,-2.5709,-2.5954,-2.6626,-2.8067,-2.8291,-2.8291,-2.8291,-2.8291,-2.8291,-2.8291,-2.8291,-2.8291,-2.8291,-2.8291,-2.9006,-3.0317,-3.1531,-3.2944,-3.4385,-3.5667,-3.6358,-0.894,-0.894,-0.894,-0.894,-0.894,-0.894,-0.894,-0.894,-0.894,-0.894,-0.8954,-0.8853,-0.8853,-0.8853,-0.8853,-0.8853,-0.895,-0.894,-0.894,-0.894,-0.894,-0.894,-0.894,-0.894,-0.894,-0.894,-0.894,-0.894,-0.894,-0.8933,-0.8913,-0.8862,-0.9581,-1.1056,-1.5351,-1.7609,-1.7582,-1.7582,-1.7582,-1.7582,-1.7582,-1.7582,-1.7582,-1.7582,-1.7582,-1.7582,-1.7582,-1.7582,-1.7582,-1.7582,-1.7582,-1.7582,-1.7582,-1.7582,-1.7582,-1.7582,-1.7582,-1.7582,-1.7582,-1.7582,-1.7582,-1.7582,-1.7582,-1.7582,-1.7582,-1.7633,-1.7864,-1.9112,-1.9426,-1.9366,-1.9366,-1.9366,-1.9366,-1.9366,-1.9366,-1.9366,-1.9366,-1.9366,-1.9366,-1.9366,-1.9366,-1.9366,-1.9366,-1.9366,-1.9366,-1.9366,-1.9366,-1.9924,-2.1358,-2.0587,-2.1152,-2.4044,-2.4386,-2.5049,-2.649,-2.7618,-2.8291,-2.8291,-2.8291,-2.8291,-2.8291,-2.8291,-2.8291,-2.8291,-2.8291,-2.9006,-3.0317,-3.0618,-3.2039,-3.4385,-3.4775,-3.5475,-0.894,-0.894,-0.894,-0.894,-0.894,-0.894,-0.894,-0.894,-0.894,-0.894,-0.8846,-0.8063,-0.5462,-0.5014,-0.5799,-0.8517,-0.8954,-0.894,-0.894,-0.894,-0.894,-0.894,-0.894,-0.894,-0.894,-0.894,-0.894,-0.894,-0.894,-0.894,-0.894,-0.8903,-0.8849,-0.8889,-1.4509,-1.7556,-1.7589,-1.7582,-1.7582,-1.7582,-1.7582,-1.7582,-1.7582,-1.7582,-1.7582,-1.7582,-1.7582,-1.7582,-1.7582,-1.7582,-1.7582,-1.7582,-1.7582,-1.7582,-1.7582,-1.7582,-1.7582,-1.7582,-1.7582,-1.7582,-1.7582,-1.7582,-1.7582,-1.7582,-1.7582,-1.7633,-1.7864,-1.9112,-1.9426,-1.9366,-1.9366,-1.9366,-1.9366,-1.9366,-1.9366,-1.9366,-1.9366,-1.9366,-1.9366,-1.9366,-1.9366,-1.9366,-1.9366,-1.9366,-1.9366,-1.9366,-1.9366,-1.97,-2.0479,-1.9924,-2.0256,-2.2597,-2.3375,-2.4378,-2.5927,-2.7501,-2.8291,-2.8291,-2.8291,-2.8291,-2.8291,-2.8291,-2.8291,-2.8291,-2.8291,-2.8698,-2.9408,-3.0016,-3.144,-3.3453,-3.408,-3.5078,-0.894,-0.894,-0.894,-0.894,-0.894,-0.894,-0.894,-0.894,-0.894,-0.8944,-0.885,-0.7046,-0.1112,0.0,-0.2001,-0.7952,-0.8846,-0.8944,-0.894,-0.894,-0.894,-0.8944,-0.8944,-0.8944,-0.8944,-0.8944,-0.8944,-0.894,-0.894,-0.894,-0.894,-0.894,-0.8906,-0.8948,-1.4592,-1.7622,-1.7609,-1.7589,-1.7582,-1.7582,-1.7582,-1.7582,-1.7582,-1.7582,-1.7582,-1.7582,-1.7582,-1.7582,-1.7582,-1.7582,-1.7582,-1.7582,-1.7582,-1.7582,-1.7582,-1.7582,-1.7582,-1.7582,-1.7582,-1.7582,-1.7582,-1.7582,-1.7582,-1.7582,-1.7582,-1.7593,-1.789,-1.9057,-1.935,-1.9394,-1.9428,-1.9345,-1.9366,-1.9366,-1.9366,-1.9366,-1.9366,-1.9366,-1.9366,-1.9366,-1.9366,-1.9366,-1.9366,-1.9366,-1.9366,-1.9366,-1.9366,-1.9366,-1.9366,-1.9366,-1.9924,-2.1137,-2.2814,-2.4378,-2.5709,-2.7276,-2.8291,-2.8291,-2.8291,-2.8291,-2.8291,-2.8291,-2.8291,-2.8291,-2.8291,-2.8291,-2.8291,-2.9513,-3.0721,-3.2028,-3.3464,-3.4872,-0.894,-0.894,-0.894,-0.894,-0.894,-0.894,-0.894,-0.894,-0.8944,-0.8853,-0.8873,-0.7065,-0.1116,0.0,-0.1897,-0.7973,-0.887,-0.885,-0.8944,-0.894,-0.8947,-0.8853,-0.8856,-0.8856,-0.8856,-0.8856,-0.885,-0.894,-0.894,-0.894,-0.894,-0.894,-0.8906,-0.8948,-1.4515,-1.7576,-1.7636,-1.7635,-1.7582,-1.7582,-1.7582,-1.7582,-1.7582,-1.7582,-1.7582,-1.7582,-1.7582,0.0,-1.7582,-1.7582,-1.7582,-1.7582,-1.7582,-1.7582,-1.7582,-1.7582,-1.7582,-1.7582,-1.7582,-1.7582,-1.7582,-1.7582,-1.7582,-1.7582,-1.7582,-1.7576,-1.7869,-1.908,-1.9423,-1.9394,-1.9367,-1.9449,-1.9366,-1.9366,-1.9366,-1.9366,-1.9366,-1.9366,-1.9366,-1.9366,-1.9366,-1.9366,-1.9366,-1.9366,-1.9366,-1.9366,-1.9366,-1.9366,-1.9366,-1.9366,-1.9482,-1.97,-2.2153,-2.3933,-2.4156,-2.6726,-2.8291,-2.8291,-2.8291,-2.8291,-2.8291,-2.8291,-2.8291,-2.8291,-2.8291,-2.8291,-2.8291,-2.8495,-2.9303,-3.0721,-3.2028,-3.3453,-0.894,-0.894,-0.894,-0.894,-0.894,-0.894,-0.894,-0.8947,-0.885,-0.886,-0.6379,-0.3353,-0.0558,0.0,-0.0893,-0.3802,-0.6837,-0.8876,-0.8866,-0.8863,-0.8866,-0.888,-0.6149,-0.5472,-0.8647,-0.887,-0.8856,-0.8846,-0.8947,-0.894,-0.894,-0.894,-0.8906,-0.8948,-1.1657,-1.4545,-1.7556,-1.7649,-1.7582,-1.7582,-1.7582,-1.7582,-1.7582,-1.7582,-1.7582,-1.7582,-1.7582,-1.7582,-1.7582,-1.7582,-1.7582,-1.7582,-1.7582,-1.7582,-1.7582,-1.7582,-1.7582,-1.7582,-1.7582,-1.7582,-1.7582,-1.7582,-1.7582,-1.7582,-1.7582,-1.7596,-1.8306,-2.176,-2.3324,-2.3295,-2.0266,-1.9394,-1.9366,-1.9366,-1.9366,-1.9366,-1.9366,-1.9366,-1.9366,-1.9366,-1.9366,-1.9366,-1.9366,-1.9366,-1.9366,-1.9366,-1.9366,-1.9366,-1.9366,-1.9366,-1.9366,-1.9366,-2.0708,-2.2375,-2.4393,-2.6109,-2.7501,-2.8291,-2.8291,-2.8291,-2.8291,-2.8291,-2.8291,-2.8291,-2.8291,-2.8291,-2.8291,-2.8291,-2.9006,-3.0317,-3.1633,-3.3055,-0.894,-0.894,-0.894,-0.894,-0.894,-0.894,-0.894,-0.8846,-0.852,-0.7271,-0.3237,0.0,0.0,0.0,0.0,0.0,-0.3914,-0.6959,-0.6956,-0.6956,-0.6956,-0.6959,-0.2902,-0.1897,-0.6505,-0.8196,-0.887,-0.8863,-0.8954,-0.894,-0.894,-0.894,-0.8913,-0.8859,-0.89,-1.1751,-1.7488,-1.7583,-1.7609,-1.7582,-1.7582,-1.7582,-1.7582,-1.7582,-1.7582,-1.7582,-1.7582,-1.7582,-1.7582,-1.7582,-1.7582,-1.7582,-1.7582,-1.7582,-1.7582,-1.7582,-1.7582,-1.7582,-1.7582,-1.7582,-1.7582,-1.7582,-1.7582,-1.7582,-1.7582,-1.7603,-1.8441,-2.2715,-2.5188,-2.5285,-2.0673,-1.9374,-1.9421,-1.9352,-1.9366,-1.9366,-1.9366,-1.9366,-1.9366,-1.9366,-1.9366,-1.9366,-1.9366,-1.9366,-1.9366,-1.9366,-1.9366,-1.9366,-1.9366,-1.9366,-1.9366,-1.9366,-1.9651,-2.121,-2.4675,-2.5688,-2.6717,-2.8184,-2.8291,-2.8291,-2.8291,-2.8291,-2.8291,-2.8291,-2.8291,-2.8291,-2.8291,-2.8291,-2.8794,-2.9911,-3.1531,-3.2844,-0.894,-0.894,-0.894,-0.894,-0.894,-0.894,-0.894,-0.8846,-0.7385,-0.1895,-0.0335,0.0,0.0,0.0,0.0,0.0,-0.0447,-0.0781,-0.0781,-0.0781,-0.0781,-0.0782,-0.0335,-0.0223,-0.0782,-0.5719,-0.8897,-0.8863,-0.8954,-0.894,-0.894,-0.894,-0.8937,-0.893,-0.8862,-1.1738,-1.7512,-1.7609,-1.7589,-1.7582,-1.7582,-1.7582,-1.7582,-1.7582,-1.7582,-1.7582,-1.7582,-1.7582,0.0,-1.7582,-1.7582,-1.7582,-1.7582,-1.7582,-1.7582,-1.7582,-1.7582,-1.7582,-1.7582,-1.7582,-1.7582,-1.7582,-1.7582,-1.7582,-1.7582,-1.758,-1.7741,-1.8187,-1.9291,-2.0097,-1.9542,-1.935,-1.9441,-1.9435,-1.9366,-1.9366,-1.9366,-1.9366,-1.9366,-1.9366,-1.9366,-1.9366,-1.9366,-1.9366,-1.9366,-1.9366,-1.9366,-1.9366,-1.9366,-1.9366,-1.9366,-1.9366,-2.0565,-2.213,-2.3847,-2.5278,-2.6717,-2.8184,-2.8291,-2.8291,-2.8291,-2.8291,-2.8291,-2.8291,-2.8291,-2.8291,-2.8291,-2.8291,-2.8398,-2.8601,-3.1122,-3.2331,-0.894,-0.894,-0.894,-0.894,-0.894,-0.8944,-0.8846,-0.8866,-0.7176,-0.1227,0.0,0.0,0.0,0.0,0.0,0.0,0.0,0.0,0.0,0.0,0.0,0.0,0.0,0.0,0.0,-0.2125,-0.5035,-0.8634,-0.8853,-0.8954,-0.894,-0.894,-0.894,-0.894,-0.8872,-1.0062,-1.2318,-1.5875,-1.7643,-1.7589,-1.7622,-1.7582,-1.7582,-1.7582,-1.7582,-1.7582,-1.7582,-1.7582,0.0,-1.7582,-1.7582,-1.7582,-1.7582,-1.7582,-1.7582,-1.7582,-1.7582,-1.7582,-1.7582,-1.7582,-1.7582,-1.7582,-1.7582,-1.7582,-1.7582,-1.7634,-1.7627,-1.7595,-2.1055,-2.4784,-2.4768,-2.2033,-1.9367,-1.9345,-1.9366,-1.9366,-1.9366,-1.9366,-1.9366,-1.9366,-1.9366,-1.9366,-1.9366,-1.9366,-1.9366,-1.9366,-1.9366,-1.9366,-1.9366,-1.9366,-1.9366,-1.9366,-1.9924,-2.1524,-2.4426,-2.4667,-2.5717,-2.8174,-2.8291,-2.8291,-2.8291,-2.8291,-2.8291,-2.8291,-2.8291,-2.8291,-2.8291,-2.8291,-2.8291,-2.8398,-3.0214,-3.1531,-0.895,-0.8944,-0.894,-0.894,-0.8944,-0.8954,-0.886,-0.7513,-0.5037,-0.0893,0.0,0.0,0.0,0.0,0.0,0.0,0.0,0.0,0.0,0.0,0.0,0.0,0.0,0.0,0.0,0.0,-0.1786,-0.5924,-0.7952,-0.8856,-0.895,-0.8944,-0.894,-0.894,-0.8893,-0.8855,-0.8944,-1.293,-1.5851,-1.7562,-1.7576,-1.7622,-1.7582,-1.7582,-1.7582,-1.7582,-1.7582,-1.7582,0.0,-1.7582,-1.7582,-1.7582,-1.7582,-1.7582,-1.7582,-1.7582,-1.7582,-1.7582,-1.7582,-1.7582,-1.7582,-1.7582,-1.7582,-1.7582,-1.7582,-1.7582,-1.7629,-1.7622,-2.1495,-2.5687,-2.5709,-2.2544,-1.9366,-1.9366,-1.9366,-1.9366,-1.9366,-1.9366,-1.9366,-1.9366,-1.9366,-1.9366,-1.9366,-1.9366,-1.9366,-1.9366,-1.9366,-1.9366,-1.9366,-1.9366,-1.9366,-1.9366,-1.9366,-2.0867,-2.4563,-2.4231,-2.5049,-2.8067,-2.8291,-2.8291,-2.8291,-2.8291,-2.8291,-2.8291,-2.8291,-2.8291,-2.8291,-2.8291,-2.8291,-2.8291,-2.9713,-3.1224,-0.8863,-0.8846,-0.894,-0.894,-0.8846,-0.8863,-0.8863,-0.4355,-0.0112,-0.0,0.0,0.0,0.0,0.0,0.0,0.0,0.0,0.0,0.0,0.0,0.0,0.0,0.0,0.0,0.0,0.0,-0.0,-0.0112,-0.5586,-0.8863,-0.8863,-0.895,-0.894,-0.894,-0.894,-0.8903,-0.8944,-0.8944,-1.1928,-1.7562,-1.7562,-1.7603,-1.7582,-1.7582,-1.7582,-1.7582,-1.7582,-1.7582,0.0,-1.7582,-1.7582,-1.7582,-1.7582,-1.7582,-1.7582,-1.7582,-1.7582,-1.7582,-1.7582,-1.7582,-1.7582,-1.7582,-1.7582,-1.7582,-1.7582,-1.7582,-1.7589,-1.7635,-1.8557,-1.9542,-1.948,-1.9494,-1.9366,-1.9366,-1.9366,-1.9366,-1.9366,-1.9366,-1.9366,-1.9366,-1.9366,-1.9366,-1.9366,-1.9366,-1.9366,-1.9366,-1.9366,-1.9366,-1.9366,-1.9366,-1.9366,-1.9366,-1.9366,-2.0601,-2.3607,-2.3822,-2.5049,-2.8067,-2.8291,-2.8291,-2.8291,-2.8291,-2.8291,-2.8291,-2.8291,-2.8291,-2.8291,-2.8291,-2.8291,-2.8291,-2.9713,-3.1735,-0.7744,-0.888,-0.8873,-0.8873,-0.888,-0.7856,-0.3797,-0.134,0.0,0.0,0.0,0.0,0.0,0.0,0.0,0.0,0.0,0.0,0.0,0.0,0.0,0.0,0.0,0.0,0.0,0.0,0.0,0.0,-0.5489,-0.8886,-0.8863,-0.8856,-0.8954,-0.894,-0.894,-0.893,-0.8906,-0.8859,-0.9825,-1.1706,-1.5731,-1.7649,-1.7603,-1.7622,-1.7582,-1.7582,-1.7582,-1.7582,-1.7582,-1.7582,-1.7582,-1.7582,-1.7582,-1.7582,-1.7582,-1.7582,-1.7582,-1.7582,-1.7582,-1.7582,-1.7582,-1.7582,-1.7582,-1.7582,-1.7582,-1.7582,-1.7622,-1.7615,-2.1449,-2.4547,-2.0511,-1.9346,-1.9395,-1.9448,-1.9366,-1.9366,-1.9366,-1.9366,-1.9366,-1.9366,-1.9366,-1.9366,-1.9366,-1.9366,-1.9366,-1.9366,-1.9366,-1.9366,-1.9366,-1.9366,-1.9366,-1.9366,-1.9366,-2.0148,-2.2145,-2.3263,-2.471,-2.6717,-2.7726,-2.8291,-2.8291,-2.8291,-2.8291,-2.8291,-2.8291,-2.8291,-2.8291,-2.8291,-2.8291,-2.8291,-2.9713,-3.0721,-0.4587,-0.5487,-0.5596,-0.5596,-0.5487,-0.4587,-0.0893,0.0,0.0,0.0,0.0,0.0,0.0,0.0,0.0782,0.3017,0.3351,0.3349,0.3351,0.3354,0.2573,0.0224,0.0,0.0,0.0,0.0,0.0,0.0,-0.347,-0.6505,-0.8762,-0.8866,-0.8853,-0.894,-0.894,-0.894,-0.894,-0.8896,-0.8862,-0.8944,-1.2591,-1.5505,-1.7556,-1.7583,-1.7629,-1.7582,-1.7582,-1.7582,0.0,-1.7582,-1.7582,-1.7582,-1.7582,-1.7582,-1.7582,-1.7582,-1.7582,-1.7582,-1.7582,-1.7582,-1.7582,-1.7582,-1.7582,-1.7582,-1.7582,-1.7582,-1.7622,-1.7602,-2.0816,-2.4014,-2.2991,-2.1035,-1.9415,-1.9448,-1.9366,-1.9366,-1.9366,-1.9366,-1.9366,-1.9366,-1.9366,-1.9366,-1.9366,-1.9366,-1.9366,-1.9366,-1.9366,-1.9366,-1.9366,-1.9366,-1.9366,-1.9366,-1.9366,-1.9815,-2.0702,-2.2317,-2.3961,-2.5646,-2.7365,-2.8291,-2.8291,-2.8291,-2.8291,-2.8291,-2.8291,-2.8291,-2.8291,-2.8291,-2.8291,-2.8291,-2.9207,-2.9817,0.0,0.0,0.0,0.0,0.0,0.0,0.0,0.0,0.0,0.0,0.0,0.0,0.0,0.0335,0.2457,0.7979,0.8893,0.8897,0.8907,0.8565,0.6179,0.0672,0.0,0.0,0.0,0.0,0.0,0.0,0.0,-0.2458,-0.7979,-0.8647,-0.8853,-0.8944,-0.894,-0.894,-0.894,-0.894,-0.8906,-0.8951,-0.8948,-1.1706,-1.6989,-1.7443,-1.7603,-1.7595,-1.7589,-1.7582,-1.7582,-1.7582,-1.7582,-1.7582,-1.7582,-1.7582,-1.7582,-1.7582,-1.7582,-1.7582,-1.7582,-1.7582,-1.7582,-1.7582,-1.7582,-1.7582,-1.7582,-1.7582,-1.7589,-1.7629,-1.7652,-1.9195,-2.5909,-2.3545,-1.9441,-1.9359,-1.9366,-1.9366,-1.9366,-1.9366,-1.9366,-1.9366,-1.9366,-1.9366,-1.9366,-1.9366,-1.9366,-1.9366,-1.9366,-1.9366,-1.9366,-1.9366,-1.9366,-1.9366,-1.9366,-1.9366,-1.9366,-2.1126,-2.3054,-2.5112,-2.7131,-2.831,-2.8291,-2.8291,-2.8291,-2.8291,-2.8291,-2.8291,-2.8291,-2.8291,-2.8291,-2.8291,-2.8291,-2.9006,0.0,0.0,0.0,0.0,0.0,0.0,0.0,0.0,0.0,0.0,0.0,0.0,0.0,0.3684,0.7276,0.8641,0.8856,0.8853,0.887,0.4918,0.1563,0.0112,0.0,0.0,0.0,0.0,0.0,0.0,0.0,-0.056,-0.2011,-0.6388,-0.8876,-0.8856,-0.8947,-0.894,-0.894,-0.894,-0.893,-0.8913,-0.8862,-0.9607,-1.115,-1.5618,-1.7649,-1.7616,-1.7622,-1.7582,-1.7582,-1.7582,-1.7582,-1.7582,-1.7582,-1.7582,-1.7582,-1.7582,-1.7582,-1.7582,-1.7582,-1.7582,-1.7582,-1.7582,-1.7582,-1.7582,-1.7582,-1.7582,-1.7589,-1.7595,-1.7596,-1.8198,-2.0795,-2.0402,-1.935,-1.9394,-1.9366,-1.9366,-1.9366,-1.9366,-1.9366,-1.9366,-1.9366,-1.9366,-1.9366,-1.9366,-1.9366,-1.9366,-1.9366,-1.9366,-1.9366,-1.9366,-1.9366,-1.9366,-1.9366,-1.9366,-1.9366,-2.0894,-2.243,-2.4003,-2.6801,-2.8309,-2.8301,-2.8291,-2.8291,-2.8291,-2.8291,-2.8291,-2.8291,-2.8291,-2.8291,-2.8291,-2.8291,-2.8495,0.0,0.0,0.0,0.0,0.0,0.0,0.0,0.0,0.0,0.0,0.0,0.0781,0.3572,0.671,0.886,0.885,0.8947,0.7925,0.5236,0.4352,0.4134,0.4134,0.4139,0.3019,0.0223,0.0,0.0,0.0,0.0,0.0,0.0,-0.5605,-0.889,-0.8863,-0.885,-0.895,-0.894,-0.894,-0.894,-0.894,-0.8899,-0.8866,-0.9057,-1.2149,-1.5058,-1.7556,-1.7596,-1.7635,-1.7582,-1.7582,-1.7582,-1.7582,-1.7582,-1.7582,-1.7582,-1.7582,-1.7582,-1.7582,-1.7582,-1.7582,-1.7582,-1.7582,-1.7582,-1.7582,-1.7582,-1.7582,-1.7582,-1.7582,-1.7576,-1.7795,-1.8377,-1.8979,-1.9456,-1.9387,-1.9366,-1.9366,-1.9366,-1.9366,-1.9366,-1.9366,-1.9366,-1.9366,-1.9366,-1.9366,-1.9366,-1.9366,-1.9366,-1.9366,-1.9366,-1.9366,-1.9366,-1.9366,-1.9366,-1.9366,-1.9366,-2.0694,-2.2001,-2.3039,-2.6381,-2.8269,-2.8301,-2.8291,-2.8291,-2.8291,-2.8291,-2.8291,-2.8291,-2.8291,-2.8291,-2.8291,-2.8291,-2.8291,0.0,0.0,0.0,0.0,0.0,0.0,0.0,0.0,0.0,0.0,0.0,0.2902,0.7952,0.886,0.885,0.8944,0.8944,0.7133,0.2109,0.5697,0.889,0.8886,0.8897,0.651,0.0558,0.0,0.0,0.0,0.0,0.0,0.0,-0.4817,-0.7982,-0.8866,-0.8863,-0.8853,-0.894,-0.894,-0.894,-0.894,-0.894,-0.8906,-0.8852,-0.8951,-1.1598,-1.6304,-1.7235,0.0,-1.7609,-1.7609,-1.7602,-1.7582,-1.7582,-1.7582,-1.7582,-1.7582,-1.7582,-1.7582,-1.7582,-1.7582,-1.7582,-1.7582,-1.7582,-1.7582,-1.7582,-1.7582,-1.7582,-1.7582,-1.7636,-1.7652,-1.7598,-1.8512,-1.9446,-1.9367,-1.9455,-1.9366,-1.9366,-1.9366,-1.9366,-1.9366,-1.9366,-1.9366,-1.9366,-1.9366,-1.9366,-1.9366,-1.9366,-1.9366,-1.9366,-1.9366,-1.9366,-1.9366,-1.9366,-1.9366,-1.9366,-2.0594,-2.1639,-2.2505,-2.5961,-2.8103,-2.8301,-2.8291,-2.8291,-2.8291,-2.8291,-2.8291,-2.8291,-2.8291,-2.8291,-2.8291,-2.8291,-2.8291,0.0,0.0,0.0,0.0,0.0,0.0,0.0,0.0,0.0,0.0,0.4016,0.7841,0.8749,0.8846,0.8944,0.894,0.8846,0.8621,0.7695,0.8282,0.886,0.895,0.8856,0.6599,0.0557,0.0,0.0,0.0,0.0,0.0,0.0,-0.0895,-0.3689,-0.8775,-0.8873,-0.8853,-0.894,-0.894,-0.894,-0.894,-0.894,-0.8933,-0.892,-0.8862,-0.9385,-1.0494,0.0,-1.7648,-1.7643,-1.7643,-1.7576,-1.7582,-1.7582,-1.7582,-1.7582,-1.7582,-1.7582,-1.7582,-1.7582,-1.7582,-1.7582,-1.7582,-1.7582,-1.7582,-1.7582,-1.7582,-1.7582,-1.7582,-1.7609,-1.7596,-1.7557,-1.8467,-1.9396,-1.9432,-1.9435,-1.9366,-1.9366,-1.9366,-1.9366,-1.9366,-1.9366,-1.9366,-1.9366,-1.9366,-1.9366,-1.9366,-1.9366,-1.9366,-1.9366,-1.9366,-1.9366,-1.9366,-1.9366,-1.9366,-1.9366,-1.9591,-2.0809,-2.3454,-2.5397,-2.6989,-2.8291,-2.8291,-2.8291,-2.8291,-2.8291,-2.8291,-2.8291,-2.8291,-2.8291,-2.8291,-2.8291,-2.8291,0.0,0.2354,0.4826,0.4826,0.2352,0.0,0.0,0.0,0.0,0.0,0.7046,0.886,0.8846,0.8947,0.894,0.894,0.8947,0.895,0.894,0.8947,0.895,0.894,0.885,0.7838,0.5023,0.1897,0.0,0.0,0.0,0.0,0.0,0.0,-0.123,-0.4026,-0.7176,-0.887,-0.8846,-0.8947,-0.894,-0.894,-0.894,-0.894,-0.8937,-0.8906,-0.8872,-0.9057,0.0,-1.294,-1.3184,-1.6273,-1.7636,-1.7569,-1.7609,-1.7582,-1.7582,-1.7582,-1.7582,-1.7582,-1.7582,-1.7582,-1.7582,-1.7582,-1.7582,-1.7582,-1.7582,-1.7582,-1.7582,-1.7582,-1.7582,-1.7649,-1.7607,-1.8024,-1.8564,-1.9244,-1.9408,-1.9366,-1.9366,-1.9366,-1.9366,-1.9366,-1.9366,-1.9366,-1.9366,-1.9366,-1.9366,-1.9366,-1.9366,-1.9366,-1.9366,-1.9366,-1.9366,-1.9366,-1.9366,-1.9366,-1.9366,-2.0148,-2.1479,-2.371,-2.6054,-2.7609,-2.8291,-2.8291,-2.8291,-2.8291,-2.8291,-2.8291,-2.8291,-2.8291,-2.8291,-2.8291,-2.8291,-2.8291,0.1125,0.4509,0.8158,0.8884,0.0,0.0,0.0,0.0,0.0,0.0,0.0,0.885,0.8944,0.894,0.894,0.894,0.894,0.894,0.894,0.894,0.894,0.894,0.8954,0.8856,0.8863,0.4804,0.1452,0.0112,0.0,0.0,0.0,0.0,0.0,0.0,-0.5828,-0.8886,-0.8863,-0.8846,-0.8944,-0.894,-0.894,-0.894,-0.894,-0.894,-0.891,-0.8859,-0.8859,-0.8931,-0.9197,-1.368,-1.6322,-1.7595,-1.7569,-1.7609,-1.7582,-1.7582,-1.7582,-1.7582,-1.7582,-1.7582,-1.7582,-1.7582,-1.7582,-1.7582,-1.7582,-1.7582,-1.7582,-1.7582,-1.7582,-1.7629,-1.7635,-1.7598,-1.7916,-1.9149,-1.9368,-1.9366,-1.9366,-1.9366,-1.9366,-1.9366,-1.9366,-1.9366,-1.9366,-1.9366,-1.9366,-1.9366,-1.9366,-1.9366,-1.9366,-1.9366,-1.9366,-1.9366,-1.9366,-1.9366,-1.9366,-2.0694,-2.2258,-2.371,-2.6617,-2.8291,-2.8291,-2.8291,-2.8291,-2.8291,-2.8291,-2.8291,-2.8291,-2.8291,-2.8291,-2.8291,-2.8291,-2.8291,0.4438,0.4914,0.5858,0.8668,0.0,0.0,0.0,0.0,0.0,0.8947,0.0,0.894,0.894,0.894,0.894,0.894,0.894,0.894,0.894,0.894,0.894,0.894,0.894,0.895,0.886,0.8539,0.594,0.0447,0.0,0.0,0.0,0.0,0.0,0.0,-0.5833,-0.8897,-0.8863,-0.886,-0.885,-0.894,-0.894,-0.894,-0.894,-0.894,-0.8937,-0.8933,-0.8933,-0.8893,-0.8937,-0.9385,-1.2758,-1.762,-1.7595,-1.7583,-1.7582,-1.7582,-1.7582,-1.7582,-1.7582,-1.7582,-1.7582,-1.7582,-1.7582,-1.7582,-1.7582,-1.7582,-1.7582,-1.7582,-1.7582,-1.7589,-1.7609,-1.7564,-1.787,-1.914,-1.9346,-1.9366,-1.9366,-1.9366,-1.9366,-1.9366,-1.9366,-1.9366,-1.9366,-1.9366,-1.9366,-1.9366,-1.9366,-1.9366,-1.9366,-1.9366,-1.9366,-1.9366,-1.9366,-1.9366,-1.9366,-2.0694,-2.2258,-2.371,-2.6617,-2.8291,-2.8291,-2.8291,-2.8291,-2.8291,-2.8291,-2.8291,-2.8291,-2.8291,-2.8291,-2.8291,-2.8291,-2.8291,0.7668,0.7693,0.8049,0.9175,0.0,0.0,0.0,0.0,0.0,0.894,0.894,0.894,0.894,0.894,0.894,0.894,0.894,0.894,0.894,0.894,0.894,0.894,0.894,0.8944,0.895,0.8863,0.7171,0.3128,0.1006,0.0,0.0,0.0,0.0,0.0,-0.2237,-0.5152,-0.8893,-0.8873,-0.8856,-0.885,-0.8947,-0.894,-0.894,-0.894,-0.894,-0.894,-0.894,-0.8923,-0.8896,-0.8852,-1.0175,-1.254,-1.618,-1.7648,-1.7609,-1.7609,-1.7609,-1.7595,-1.7623,-1.7596,-1.7583,-1.7609,-1.7582,-1.7582,-1.7582,-1.7582,-1.7582,-1.7582,-1.7582,-1.7582,-1.7582,-1.7648,-1.7895,-1.9078,-1.9436,-1.9401,-1.9448,-1.9366,-1.9366,-1.9366,-1.9366,-1.9366,-1.9366,-1.9366,-1.9366,-1.9366,-1.9366,-1.9366,-1.9366,-1.9366,-1.9366,-1.9366,-1.9366,-1.9366,-1.9366,-2.0694,-2.1805,-2.2371,-2.5261,-2.7384,-2.8291,-2.8291,-2.8291,-2.8291,-2.8291,-2.8291,-2.8291,-2.8291,-2.8291,-2.8291,-2.8291,-2.8291,0.9459,0.949,0.949,0.0,0.0,0.0,0.0,0.0,0.0,0.9008,0.8971,0.894,0.894,0.894,0.894,0.894,0.894,0.894,0.894,0.894,0.894,0.894,0.894,0.894,0.894,0.885,0.8072,0.6047,0.2234,0.0,0.0,0.0,0.0,0.0,0.0,-0.2013,-0.6061,-0.7973,-0.8873,-0.8863,-0.8846,-0.8947,-0.894,-0.894,-0.894,-0.894,-0.894,-0.894,-0.8937,-0.8886,-0.8855,-0.9279,-1.334,-1.4814,-1.4894,-1.4894,-1.4894,-1.4883,-1.4804,-1.6047,-1.7649,-1.7563,-1.7615,-1.7582,-1.7582,-1.7582,-1.7582,-1.7582,-1.7582,-1.7582,-1.7582,-1.7576,-1.7764,-1.8665,-1.9095,-1.9394,-1.9428,-1.9366,-1.9366,-1.9366,-1.9366,-1.9366,-1.9366,-1.9366,-1.9366,-1.9366,-1.9366,-1.9366,-1.9366,-1.9366,-1.9366,-1.9366,-1.9366,-1.9366,-1.9366,-2.0371,-2.1145,-2.1586,-2.3925,-2.6045,-2.7501,-2.8067,-2.8291,-2.8291,-2.8291,-2.8291,-2.8291,-2.8291,-2.8291,-2.8291,-2.8291,-2.8291,0.9568,0.9612,0.9646,0.0,0.0,0.0,0.9415,0.0,0.9154,0.915,0.9035,0.894,0.894,0.894,0.894,0.894,0.894,0.894,0.894,0.894,0.894,0.894,0.894,0.894,0.894,0.885,0.887,0.8893,0.3353,0.0,0.0,0.0,0.0,0.0,0.0,0.0,0.0,-0.5835,-0.8893,-0.8863,-0.8863,-0.885,-0.894,-0.894,-0.894,-0.894,-0.894,-0.894,-0.894,-0.894,-0.8899,-0.8948,-0.8948,-0.8903,-0.8953,-0.8953,-0.8953,-0.8953,-0.8953,-1.2729,-1.7556,-1.7562,-1.7583,-1.7589,-1.7582,-1.7582,-1.7582,-1.7582,-1.7582,-1.7582,-1.7582,-1.7576,-1.7629,-1.7552,-1.8467,-1.9394,-1.9428,-1.9366,-1.9366,-1.9366,-1.9366,-1.9366,-1.9366,-1.9366,-1.9366,-1.9366,-1.9366,-1.9366,-1.9366,-1.9366,-1.9366,-1.9366,-1.9366,-1.9366,-1.9366,-1.9366,-2.0033,-2.1472,-2.2927,-2.4488,-2.6045,-2.7501,-2.8291,-2.8291,-2.8291,-2.8291,-2.8291,-2.8291,-2.8291,-2.8291,-2.8291,-2.8291,0.972,0.9758,0.9744,0.9686,0.9642,0.0,0.0,0.9262,0.0,0.0,0.8967,0.894,0.894,0.9699,1.0131,0.9047,0.9809,1.0135,0.9047,0.894,0.894,0.894,0.894,0.894,0.894,0.8947,0.8846,0.887,0.5367,0.2234,0.0112,0.0,0.0,0.0,0.0,0.0,0.0,-0.179,-0.4702,-0.8897,-0.889,-0.8866,-0.894,-0.894,-0.894,-0.894,-0.894,-0.894,-0.894,-0.894,-0.8927,-0.8906,-0.8906,-0.8896,-0.8876,-0.8876,-0.8876,-0.8869,-0.8931,-1.0027,-1.2149,-1.6297,-1.7643,-1.7596,-1.7609,-1.7582,-1.7582,-1.7582,-1.7582,-1.7582,-1.7582,-1.7576,-1.7629,-1.7552,-1.8551,-1.9394,-1.9387,-1.9366,-1.9366,-1.9366,-1.9366,-1.9366,-1.9366,-1.9366,-1.9366,-1.9366,-1.9366,-1.9366,-1.9366,-1.9366,-1.9366,-1.9366,-1.9366,-1.9366,-1.9366,-1.9366,-1.9591,-2.0033,-2.1479,-2.3367,-2.6036,-2.7501,-2.8291,-2.8291,-2.8291,-2.8291,-2.8291,-2.8291,-2.8291,-2.8291,-2.8291,-2.8291,0.9798,0.9822,0.9798,0.9717,0.9652,0.9554,0.934,0.9218,0.9113,0.8967,0.894,0.894,0.894,1.0131,1.0676,0.9154,1.0676,1.1428,1.0025,0.9809,0.9809,0.9809,0.9265,0.894,0.894,0.894,0.895,0.886,0.7282,0.4474,0.0223,0.0,0.0,0.0,0.0,0.0,0.0,0.0,-0.179,-0.5382,-0.7759,-0.831,-0.7149,-0.8387,-0.8947,-0.894,-0.894,-0.894,-0.894,-0.894,-0.894,-0.894,-0.894,-0.894,-0.894,-0.894,-0.894,-0.8933,-0.8889,-0.8859,-0.9497,-1.3038,-1.566,-1.7622,-1.7649,-1.7629,-1.7616,-1.7563,-1.7629,-1.7589,-1.7649,-1.7626,-1.765,-1.7578,-1.8571,-1.9429,-1.9394,-1.9366,-1.9366,-1.9366,-1.9366,-1.9366,-1.9366,-1.9366,-1.9366,-1.9366,-1.9366,-1.9366,-1.9366,-1.9366,-1.9366,-1.9366,-1.9366,-1.9366,-1.9366,-1.9366,-1.9366,-1.9366,-2.0809,-2.2363,-2.4258,-2.6273,-2.7726,-2.8291,-2.8291,-2.8291,-2.8291,-2.8291,-2.8291,-2.8291,-2.8291,-2.8291,0.9822,0.9822,0.9819,0.9805,0.9803,0.9724,0.9649,0.9578,0.9539,0.9182,0.9154,0.9265,0.9265,1.0457,1.0996,0.9592,1.1647,1.2945,1.1538,1.1214,1.1105,1.1105,0.9809,0.894,0.894,0.894,0.8947,0.8856,0.888,0.6388,0.067,0.0112,0.0,0.0,0.0,0.0,0.0,0.0,0.0,-0.0112,-0.5723,-0.7192,-0.5033,-0.7733,-0.8853,-0.8944,-0.8944,-0.894,-0.894,-0.894,-0.894,-0.894,-0.894,-0.894,-0.894,-0.894,-0.894,-0.894,-0.894,-0.8896,-0.8845,-0.8852,-1.246,-1.6857,-1.6761,-1.6767,-1.685,-1.6845,-1.7233,-1.765,-1.779,-1.7728,-1.7792,-1.7792,-1.8612,-1.9394,-1.9428,-1.9366,-1.9366,-1.9366,-1.9366,-1.9366,-1.9366,-1.9366,-1.9366,-1.9366,-1.9366,-1.9366,-1.9366,-1.9366,-1.9366,-1.9366,-1.9366,-1.9366,-1.9366,-1.9366,-1.9366,-1.9366,-2.0702,-2.1472,-2.1578,-2.448,-2.6717,-2.8067,-2.8184,-2.8291,-2.8291,-2.8291,-2.8291,-2.8291,-2.8291,-2.8291,0.9822,0.9822,0.9795,0.9683,1.0259,1.1226,1.2197,1.2469,1.2133,1.0899,1.1538,1.2403,1.2403,1.348,1.4019,1.2615,1.3804,1.4449,1.3048,1.1864,1.1105,1.1105,0.9809,0.894,0.894,0.894,0.894,0.8947,0.8856,0.7282,0.3687,0.1341,0.0,0.0,0.0,0.0,0.0,0.0,0.0,-0.0,-0.3703,-0.6298,-0.7991,-0.8664,-0.8876,-0.8856,-0.8856,-0.8846,-0.894,-0.894,-0.894,-0.894,-0.894,-0.894,-0.894,-0.894,-0.894,-0.894,-0.894,-0.893,-0.8923,-0.887,-0.9791,-1.0723,-1.0795,-1.0819,-1.0815,-1.0799,-1.403,-1.7879,-1.8744,-1.9004,-1.9005,-1.9005,-1.9219,-1.9394,-1.9428,-1.9366,-1.9366,-1.9366,-1.9366,-1.9366,-1.9366,-1.9366,-1.9366,-1.9366,-1.9366,-1.9366,-1.9366,-1.9366,-1.9366,-1.9366,-1.9366,-1.9366,-1.9366,-1.9366,-1.9366,-1.9366,-1.97,-2.0364,-2.1586,-2.448,-2.6264,-2.6608,-2.7726,-2.8291,-2.8291,-2.8291,-2.8291,-2.8291,-2.8291,-2.8291,1.0061,1.0301,1.0981,1.0814,1.2183,1.3593,1.3477,1.4423,1.499,1.3475,1.3264,1.3264,1.3264,1.4449,1.4984,1.348,1.5097,1.5956,1.4556,1.3048,1.2186,1.2186,1.0241,0.894,0.894,0.894,0.894,0.894,0.885,0.818,0.6715,0.2456,0.0,0.0,0.0,0.0,0.0,0.0,0.0,-0.0,-0.157,-0.3142,-0.4713,-0.6168,-0.7519,-0.888,-0.888,-0.8866,-0.8846,-0.8846,-0.895,-0.894,-0.894,-0.894,-0.8947,-0.89,-0.8923,-0.8933,-0.8891,-0.8917,-0.8924,-0.8843,-0.9087,-0.9332,-0.9373,-0.9387,-0.938,-0.9346,-1.1532,-1.4029,-1.4594,-1.4829,-1.5582,-1.8713,-1.9374,-1.9435,-1.9455,-1.9366,-1.9366,-1.9366,-1.9366,-1.9366,-1.9366,-1.9366,-1.9366,-1.9366,-1.9366,-1.9366,-1.9366,-1.9366,-1.9366,-1.9366,-1.9366,-1.9366,-1.9366,-1.9366,-1.9366,-1.9366,-1.9366,-1.97,-2.0479,-2.2702,-2.4591,-2.6045,-2.6834,-2.7609,-2.8291,-2.8291,-2.8291,-2.8291,-2.8291,-2.8291,1.0539,1.1378,1.2645,1.2795,1.4463,1.5844,1.4657,1.6079,1.7318,1.6074,1.4877,1.4019,1.4019,1.499,1.5417,1.4234,1.6068,1.7147,1.5956,1.4556,1.3588,1.3372,1.0891,0.9154,0.8937,0.894,0.894,0.894,0.8846,0.886,0.8863,0.4242,0.1116,0.0,0.0,0.0,0.0,0.0,0.0,0.0,0.0,0.0,-0.0112,-0.2573,-0.5037,-0.741,-0.741,-0.797,-0.8866,-0.8863,-0.885,-0.8947,-0.8856,-0.8863,-0.888,-0.8904,-0.8957,-0.9091,-0.9096,-0.9023,-0.9026,-0.9052,-0.9418,-0.9785,-0.981,-0.9817,-0.9806,-0.9747,-0.9813,-0.9773,-0.9835,-0.9787,-1.1094,-1.6425,-1.8621,-1.9426,-1.9379,-1.9366,-1.9366,-1.9366,-1.9366,-1.9366,-1.9366,-1.9366,-1.9366,-1.9366,-1.9366,-1.9366,-1.9366,-1.9366,-1.9366,-1.9366,-1.9366,-1.9366,-1.9366,-1.9366,-1.9366,-1.9366,-1.9366,-1.9366,-1.9366,-2.0587,-2.2476,-2.5261,-2.5599,-2.6273,-2.7501,-2.7501,-2.7618,-2.795,-2.795,-2.8067,1.1976,1.3053,1.4548,1.5599,1.6207,1.6637,1.727,1.7679,1.7802,1.7417,1.7147,1.7041,1.7041,1.7153,1.7259,1.7041,1.7364,1.7582,1.7364,1.6068,1.4663,1.348,1.1864,1.0351,0.9047,0.894,0.894,0.894,0.8944,0.8954,0.886,0.818,0.5363,0.0112,0.0,0.0,0.0,0.0,0.0,0.0,0.0,0.0,-0.0,-0.0448,-0.0784,-0.1229,-0.1229,-0.4137,-0.889,-0.887,-0.886,-0.8866,-0.8851,-0.8891,-0.8907,-0.8938,-0.9231,-0.9711,-0.9733,-0.9624,-0.9644,-0.9658,-0.9703,-0.9846,-0.9847,-0.9764,-0.9761,-0.9751,-0.9764,-0.9774,-0.9768,-0.9854,-1.0067,-1.0928,-1.5282,-1.943,-1.9419,-1.9366,-1.9366,-1.9366,-1.9366,-1.9366,-1.9366,-1.9366,-1.9366,-1.9366,-1.9366,-1.9366,-1.9366,-1.9366,-1.9366,-1.9366,-1.9366,-1.9366,-1.9366,-1.9366,-1.9366,-1.9366,-1.9366,-1.9366,-1.9366,-1.9591,-2.0479,-2.2145,-2.3487,-2.4156,-2.4378,-2.4378,-2.5049,-2.6381,-2.6381,-2.706,1.4589,1.5424,1.611,1.6588,1.7274,1.7881,1.8163,1.8163,1.7956,1.7649,1.7582,1.7582,1.7582,1.7582,1.7582,1.7582,1.7582,1.7582,1.7582,1.628,1.4877,1.348,1.1973,1.0566,0.9047,0.894,0.894,0.894,0.894,0.8944,0.8954,0.8856,0.7727,0.5027,0.1786,0.0,0.0,0.0,0.0,0.0,0.0,0.0,0.0,0.0,0.0,0.0,0.0,-0.1454,-0.3914,-0.3908,-0.5846,-0.8884,-0.8924,-0.9108,-0.9435,-0.9456,-0.9628,-0.9763,-0.9842,-0.9751,-0.9761,-0.983,-0.9851,-0.9741,-0.9802,-0.9822,-0.9822,-0.9822,-0.9822,-0.9822,-0.9822,-0.9798,-0.9768,-0.9847,-1.1935,-1.4013,-1.3981,-1.6815,-1.9452,-1.9379,-1.9366,-1.9366,-1.9366,-1.9366,-1.9366,-1.9366,-1.9366,-1.9366,-1.9366,-1.9366,-1.9366,-1.9366,-1.9366,-1.9366,-1.9366,-1.9366,-1.9366,-1.9366,-1.9366,-1.9366,-1.9366,-1.9366,-1.9707,-2.0364,-2.1813,-2.2927,-2.3822,-2.3822,-2.4156,-2.482,-2.482,-2.5599,1.7208,1.7566,1.7566,1.7566,1.8365,1.8938,1.8577,1.8323,1.805,1.7662,1.7582,1.7582,1.7582,1.7582,1.7582,1.7582,1.7582,1.7582,1.7582,1.6605,1.5417,1.4019,1.2512,1.1109,0.9588,0.9154,0.894,0.894,0.894,0.894,0.894,0.8954,0.886,0.887,0.4583,0.1564,0.0,0.0,0.0,0.0,0.0,0.0,0.0,0.0,0.0,0.0,0.0,0.0,0.0,0.0,-0.2604,-0.6662,-0.6587,-0.7948,-0.9852,-0.9748,-0.9792,-0.9803,-0.9785,-0.9822,-0.9822,-0.9822,-0.9822,-0.9822,-0.9822,-0.9822,-0.9822,-0.9822,-0.9822,-0.9822,-0.9822,-0.9822,-0.9808,-0.9754,-0.9744,-1.0215,-1.186,-1.6031,-1.9168,-1.8317,-1.8144,-1.8131,-1.8169,-1.8525,-1.8765,-1.8765,-1.9127,-1.9366,-1.9366,-1.9366,-1.9366,-1.9366,-1.9366,-1.9366,-1.9366,-1.9366,-1.9366,-1.9366,-1.9366,-1.9366,-1.9366,-1.9366,-1.9366,-1.9366,-2.0479,-2.1593,-2.271,-2.271,-2.2822,-2.3263,-2.3263,-2.4044,1.8881,1.9249,1.9249,1.9249,1.9352,1.9199,1.8624,1.8477,1.8297,1.7702,1.7582,1.7582,1.7582,1.7582,1.7582,1.7582,1.7582,1.7582,1.7582,1.7582,1.6929,1.5417,1.4019,1.262,1.1105,0.9699,0.894,0.894,0.894,0.894,0.894,0.894,0.885,0.8893,0.8552,0.5721,0.0,0.0,0.0,0.0,0.0,0.0,0.0,0.0,0.0,0.0,0.0,0.0,0.0,0.0,-0.0229,-0.0459,-0.0473,-0.4305,-0.9775,-0.9791,-0.9829,-0.9812,-0.9819,-0.9822,-0.9822,-0.9822,-0.9822,-0.9822,-0.9822,-0.9822,-0.9822,-0.9822,-0.9822,-0.9822,-0.9822,-0.9822,-0.9819,-0.9815,-0.9815,-1.1409,-1.7625,-1.9168,-1.8444,-1.5456,-1.4867,-1.4826,-1.4821,-1.6138,-1.7085,-1.7085,-1.8402,-1.9366,-1.9366,-1.9366,-1.9366,-1.9366,-1.9366,-1.9366,-1.9366,-1.9366,-1.9366,-1.9366,-1.9366,-1.9366,-1.9366,-1.9366,-1.9366,-1.9366,-1.9482,-1.9597,-1.9591,-1.9591,-2.0371,-2.1692,-2.1692,-2.2484,1.8964,1.9225,1.9366,1.9366,1.9366,1.9259,1.8858,1.8624,1.8377,1.7963,1.7722,1.7582,1.7582,1.7582,1.7582,1.7582,1.7582,1.7582,1.7582,1.7582,1.7041,1.563,1.4126,1.2729,1.1214,0.9805,0.894,0.894,0.894,0.894,0.894,0.894,0.8947,0.8853,0.7057,0.4142,0.0,0.0,0.0,0.0,0.0,0.0,0.0,0.0,0.0,0.0,0.0,0.0,0.0,0.0,0.0,0.0,0.0,-0.1449,-0.4024,-0.8227,-0.9849,-0.9842,-0.9825,-0.9822,-0.9822,-0.9822,-0.9822,-0.9822,-0.9822,-0.9822,-0.9822,-0.9822,-0.9822,-0.9822,-0.9822,-0.9822,-0.9822,-0.9822,-0.9822,-1.0433,-1.2772,-1.3264,-1.3537,-1.4465,-1.4569,-1.4553,-1.4594,-1.5074,-1.5784,-1.685,-1.7449,-1.8279,-1.9243,-1.9366,-1.9366,-1.9366,-1.9366,-1.9366,-1.9366,-1.9366,-1.9366,-1.9366,-1.9366,-1.9366,-1.9366,-1.9366,-1.9366,-1.9366,-1.9366,-1.9366,-1.9366,-1.9366,-1.97,-2.0148,-2.0148,-2.1038,1.8898,1.9065,1.9239,1.9339,1.9366,1.9292,1.8991,1.8698,1.8404,1.811,1.7802,1.7582,1.7582,1.7582,1.7582,1.7582,1.7582,1.7582,1.7582,1.7582,1.7259,1.628,1.4877,1.348,1.1969,1.0457,0.9482,0.8937,0.894,0.894,0.894,0.894,0.8944,0.895,0.5025,0.2011,0.0,0.0,0.0,0.0,0.0,0.0,0.0,0.0,0.0,0.0,0.0,0.0,0.0,0.0,0.0,0.0,0.0,0.0,-0.0492,-0.4913,-0.7877,-0.9747,-0.9842,-0.9832,-0.9832,-0.9822,-0.9822,-0.9822,-0.9822,-0.9822,-0.9822,-0.9822,-0.9822,-0.9822,-0.9822,-0.9822,-0.9822,-0.9822,-0.9822,-0.9822,-0.9822,-0.9851,-1.0394,-1.2547,-1.3025,-1.3016,-1.3044,-1.3407,-1.4123,-1.5182,-1.6256,-1.7443,-1.8409,-1.912,-1.9366,-1.9366,-1.9366,-1.9366,-1.9366,-1.9366,-1.9366,-1.9366,-1.9366,-1.9366,-1.9366,-1.9366,-1.9366,-1.9366,-1.9366,-1.9366,-1.9366,-1.9366,-1.9366,-1.9366,-1.9366,-2.0141,0.0,0.0,0.0,1.9279,1.9359,1.9292,1.8998,1.8711,1.8424,1.813,1.7816,1.7595,1.7595,1.7589,1.7582,1.7582,1.7582,1.7582,1.7582,1.7582,1.7582,1.7582,1.628,1.477,1.348,1.1969,1.0457,0.9047,0.894,0.894,0.894,0.894,0.895,0.8863,0.3237,0.0223,0.0,0.0,0.0,0.0,0.0,0.0,0.0,0.0,0.0,0.0,0.0,0.0,0.0,0.0,0.0,0.0,0.0,0.0,0.0,0.0,-0.4062,-0.9526,-0.9493,-0.9609,-0.9852,-0.9829,-0.9822,-0.9822,-0.9822,-0.9822,-0.9822,-0.9822,-0.9822,-0.9822,-0.9822,-0.9822,-0.9822,-0.9822,-0.9822,-0.9822,-0.9822,-0.9768,-0.9741,-0.9808,-0.9768,-0.9741,-0.9808,-1.114,-1.2093,-1.2213,-1.4826,-1.685,-1.6968,-1.8402,-1.9366,-1.9366,-1.9366,-1.9366,-1.9366,-1.9366,-1.9366,-1.9366,-1.9366,-1.9366,-1.9366,-1.9366,-1.9366,-1.9366,-1.9366,-1.9366,-1.9366,-1.9366,-1.9366,-1.9366,-1.9366,-2.0148,1.8263,0.0,0.0,0.0,0.0,0.0,1.9265,1.9018,1.8778,1.8698,1.8277,1.7916,1.7916,1.7736,1.7582,1.7582,1.7582,1.7582,1.7582,1.7582,1.7582,1.7582,1.5417,1.3696,1.3372,1.1,0.9372,0.8937,0.894,0.894,0.894,0.894,0.895,0.8863,0.7274,0.4354,0.0,0.0,0.0,0.0,0.0,0.0,0.0,0.0,0.0,0.0,0.0,0.0,0.0,0.0,0.0,0.0,0.0,0.0,0.0,0.0,-0.1107,-0.2705,-0.2698,-0.5776,-0.9764,-0.9856,-0.9846,-0.9842,-0.9825,-0.9822,-0.9822,-0.9822,-0.9822,-0.9822,-0.9822,-0.9822,-0.9822,-0.9822,-0.9822,-0.9822,-0.9822,-0.9805,-0.9798,-0.9819,-0.9805,-0.9798,-0.9819,-1.0179,-1.0899,-1.1972,-1.2928,-1.4351,-1.6727,-1.7443,-1.8163,-1.9249,-1.9366,-1.9366,-1.9366,-1.9366,-1.9366,-1.9366,-1.9366,-1.9366,-1.9366,-1.9366,-1.9366,-1.9366,-1.9366,-1.9366,-1.9366,-1.9366,-1.9366,-1.9366,-1.9366,-1.9591,0.0,0.0,0.0,1.8865,0.0,0.0,1.9339,1.9138,1.8925,1.8925,1.8557,1.823,1.823,1.7983,1.7776,1.7776,1.7669,1.7582,1.7582,1.7582,1.7582,1.7582,1.553,1.3911,1.3372,1.1214,0.9592,0.8937,0.894,0.894,0.894,0.894,0.8947,0.8846,0.8856,0.7274,0.3795,0.2456,0.19,0.1903,0.0564,0.0,0.0,0.0,0.0,0.0,0.0,0.0,0.0,0.0,0.0,0.0,0.0,0.0,0.0,0.0,0.0,0.0,0.0,-0.2457,-0.5663,-0.576,-0.7606,-0.9849,-0.9829,-0.9822,-0.9822,-0.9822,-0.9822,-0.9822,-0.9822,-0.9822,-0.9822,-0.9822,-0.9822,-0.9822,-0.9822,-0.9822,-0.9822,-0.9822,-0.9822,-0.9822,-0.9822,-0.9822,-1.0058,-1.102,-1.1736,-1.2928,-1.4708,-1.6133,-1.7325,-1.8286,-1.9004,-1.9366,-1.9366,-1.9366,-1.9366,-1.9366,-1.9366,-1.9366,-1.9366,-1.9366,-1.9366,-1.9366,-1.9366,-1.9366,-1.9366,-1.9366,-1.9366,-1.9366,-1.9366,-1.9366,0.0,0.0,0.0,0.0,1.8898,0.0,1.9299,1.9165,1.8971,1.8971,1.8738,1.8537,1.8537,1.8297,1.8096,1.8096,1.7862,1.7662,1.7595,1.7582,1.7582,1.7582,1.6174,1.4663,1.3372,1.1864,1.0347,0.9047,0.894,0.894,0.894,0.894,0.894,0.894,0.885,0.886,0.8863,0.6277,0.5044,0.5046,0.2278,0.0919,0.0574,0.0117,0.0,0.0,0.0,0.0,0.0,0.0,0.0,0.0,0.0,0.0,0.0,0.0,0.0,0.0,0.0,0.0,-0.0123,-0.0856,-0.5018,-0.9856,-0.9832,-0.9822,-0.9822,-0.9822,-0.9822,-0.9822,-0.9822,-0.9822,-0.9822,-0.9822,-0.9822,-0.9822,-0.9822,-0.9822,-0.9822,-0.9822,-0.9822,-0.9822,-0.9822,-0.9822,-0.9822,-0.9822,-1.102,-1.1976,-1.2217,-1.4708,-1.6609,-1.6968,-1.8169,-1.901,-1.9366,-1.9243,-1.9243,-1.9366,-1.9366,-1.9366,-1.9366,-1.9366,-1.9366,-1.9366,-1.9366,-1.9366,-1.9366,-1.9366,-1.9366,-1.9366,-1.9366,-1.9386,0.0,0.0,0.0,1.8484,1.8751,0.0,1.9299,1.9325,1.9279,1.9279,1.9045,1.8838,1.8838,1.8604,1.8404,1.8404,1.835,1.8143,1.7649,1.7582,1.7582,1.7582,1.531,1.3588,1.3372,1.0891,0.9154,0.8937,0.894,0.894,0.894,0.894,0.894,0.894,0.8944,0.8954,0.8863,0.8514,0.8344,0.848,0.7797,0.6318,0.3852,0.1187,0.0,0.0,0.0,0.0,0.0,0.0,0.0,0.0,0.0,0.0,0.0,0.0,0.0,0.0,0.0,0.0,-0.0863,-0.6173,-0.8781,-0.9767,-0.9859,-0.9836,-0.9822,-0.9822,-0.9822,-0.9822,-0.9822,-0.9822,-0.9822,-0.9822,-0.9822,-0.9822,-0.9822,-0.9822,-0.9822,-0.9822,-0.9822,-0.9822,-0.9822,-0.9822,-0.9822,-0.9822,-1.0061,-1.0781,-1.1976,-1.2808,-1.4118,-1.6727,-1.6144,-1.6621,-1.9127,-1.8169,-1.804,-1.9366,-1.9366,-1.9366,-1.9366,-1.9366,-1.9366,-1.9366,-1.9366,-1.9366,-1.9366,-1.9366,-1.9366,-1.9366,-1.9366,-1.9492,1.7582,1.7689,1.7909,1.8377,1.8597,0.0,0.0,1.9366,1.9366,1.9366,1.9252,1.9145,1.9145,1.8905,1.8704,1.8704,1.8584,1.8384,1.8083,1.7909,1.7756,1.7602,1.5097,1.3264,1.3264,1.0676,0.894,0.894,0.894,0.894,0.894,0.894,0.8971,0.9045,0.9045,0.9089,0.9174,0.9249,0.9289,0.9422,0.9469,0.8698,0.7133,0.5565,0.3044,0.0,0.0,0.0,0.0,0.0,0.0,0.0,0.0,0.0,0.0,0.0,0.0,0.0,0.0,0.0,-0.0494,-0.3822,-0.7168,-0.9791,-0.9747,-0.9839,-0.9822,-0.9822,-0.9822,-0.9822,-0.9822,-0.9822,-0.9822,-0.9822,-0.9822,-0.9822,-0.9822,-0.9822,-0.9822,-0.9822,-0.9822,-0.9822,-0.9822,-0.9822,-0.9822,-0.9822,-0.9822,-1.0061,-1.0899,-1.1736,-1.2808,-1.4475,-1.4599,-1.5198,-1.6862,-1.6262,-1.6497,-1.8046,-1.8163,-1.8525,-1.9366,-1.9366,-1.9366,-1.9366,-1.9366,-1.9366,-1.9366,-1.9366,-1.9366,-1.9372,-1.9512,-1.9659,1.7582,1.7582,1.7729,1.8337,1.849,1.8644,0.0,0.0,0.0,1.9366,1.9366,1.9366,1.9366,1.9172,1.9011,1.9011,1.8811,1.8637,1.8584,1.8364,1.8103,1.7796,1.5462,1.3718,1.3505,1.0777,0.9025,0.9025,0.9025,0.9025,0.9025,0.9025,0.9076,0.9195,0.9198,0.9256,0.9381,0.9412,0.9425,0.9425,0.9476,0.9556,0.956,0.9727,0.6664,0.1229,0.037,0.0,0.0,0.0,0.0,0.0,0.0,0.0,0.0,0.0,0.0,0.0,0.0,0.0,0.0,0.0,-0.3575,-0.817,-0.9381,-0.9849,-0.9829,-0.9829,-0.9825,-0.9822,-0.9822,-0.9822,-0.9822,-0.9822,-0.9822,-0.9822,-0.9822,-0.9822,-0.9822,-0.9822,-0.9822,-0.9822,-0.9822,-0.9822,-0.9822,-0.9822,-0.9822,-0.9822,-0.9822,-1.0899,-1.1856,-1.2217,-1.3053,-1.3889,-1.4604,-1.4366,-1.4837,-1.6492,-1.685,-1.7566,-1.8887,-1.9243,-1.9366,-1.9366,-1.9366,-1.9366,-1.9366,-1.9366,-1.9399,-1.9459,-1.9693,-1.986,1.7582,1.7582,1.7729,1.8337,1.849,1.8644,1.9232,0.0,1.9366,1.9366,0.0,1.9366,1.9366,0.0,0.0,1.9319,1.9292,1.9178,1.8911,1.8844,1.8718,1.8424,1.6901,1.5423,1.3969,1.1147,0.933,0.933,0.933,0.933,0.933,0.933,0.934,0.9354,0.9354,0.9364,0.9381,0.9517,0.9585,0.9585,0.973,0.9802,0.9802,0.9846,0.8363,0.5636,0.172,0.0,0.0,0.0,0.0,0.0,0.0,0.0,0.0,0.0,0.0,0.0,0.0,0.0,0.0,0.0,-0.0493,-0.2214,-0.8025,-0.9754,-0.9852,-0.9852,-0.9836,-0.9822,-0.9822,-0.9822,-0.9822,-0.9822,-0.9822,-0.9822,-0.9822,-0.9822,-0.9822,-0.9822,-0.9822,-0.9822,-0.9822,-0.9822,-0.9822,-0.9822,-0.9822,-0.9822,-0.9822,-0.994,-1.066,-1.2097,-1.114,-1.1495,-1.4366,-1.3292,-1.3172,-1.4723,-1.6256,-1.7085,-1.7325,-1.8642,-1.9366,-1.9366,-1.9366,-1.9366,-1.9366,-1.9366,-1.9499,-1.9753,-1.9786,-2.008,1.7582,1.7582,1.7729,1.8337,1.849,1.8644,1.9232,1.9366,1.9366,1.9366,0.0,0.0,0.0,0.0,0.0,0.0,1.9366,1.9325,1.9199,1.9185,1.9005,1.8544,1.7222,1.5395,1.2913,1.1553,1.0412,0.9497,1.0297,1.0412,0.9497,0.9381,0.9422,0.951,0.9513,0.9554,0.9635,0.97,0.9734,0.9734,0.9791,0.9822,0.9822,0.9846,0.9352,0.8355,0.6523,0.3569,0.0,0.0,0.0,0.0,0.0,0.0,0.0,0.0,0.0,0.0,0.0,0.0,0.0,0.0,0.0,-0.0492,-0.3322,-0.4053,-0.4904,-0.8732,-0.9849,-0.9839,-0.9825,-0.9822,-0.9822,-0.9822,-0.9822,-0.9822,-0.9822,-0.9822,-0.9822,-0.9822,-0.9822,-0.9822,-0.9822,-0.9822,-0.9822,-0.9822,-0.9822,-0.9822,-0.9822,-0.9822,-1.0061,-1.0781,-1.0179,-1.0301,-1.174,-1.1257,-1.1499,-1.3168,-1.4713,-1.602,-1.6968,-1.7683,-1.8409,-1.9366,-1.9366,-1.9366,-1.9366,-1.9539,-1.9766,-2.0054,-2.0054,-2.0274,1.7582,1.7582,1.7729,1.8337,1.849,1.8644,1.9232,1.9366,1.9366,1.9366,1.9366,0.0,0.0,0.0,1.9366,1.9366,0.0,1.9366,1.9366,1.9366,1.9212,1.8784,1.7441,1.5596,1.3428,1.2855,1.1936,1.0314,1.1241,1.1241,0.9617,0.9503,0.9554,0.9663,0.9666,0.9717,0.9819,0.9822,0.9822,0.9822,0.9822,0.9822,0.9822,0.9839,0.9846,0.9849,0.9757,0.7146,0.258,0.0738,0.0,0.0,0.0,0.0,0.0,0.0,0.0,0.0,0.0,0.0,0.0,0.0,0.0,0.0,0.0,0.0,-0.0981,-0.577,-0.8372,-0.9744,-0.9849,-0.9846,-0.9842,-0.9832,-0.9829,-0.9829,-0.9822,-0.9822,-0.9822,-0.9822,-0.9822,-0.9822,-0.9822,-0.9822,-0.9822,-0.9822,-0.9822,-0.9822,-0.9822,-0.9822,-0.9822,-0.9822,-0.9822,-0.9822,-0.9822,-0.9822,-1.0539,-1.2097,-1.3292,-1.4718,-1.6256,-1.6374,-1.7091,-1.8765,-1.8765,-1.9043,-1.9486,-1.97,-1.9993,-2.0354,-2.0354,-2.0514,1.7582,1.7582,1.7729,1.8337,1.849,1.8644,1.9232,1.9366,1.9366,1.9366,1.9366,1.9366,1.9366,1.9366,1.9366,0.0,1.9366,0.0,0.0,1.9366,1.9359,1.9339,1.7898,1.6938,1.6821,1.5408,1.3865,1.2196,1.22,1.1483,0.9926,0.9805,0.9808,0.9815,0.9815,0.9815,0.9822,0.9822,0.9822,0.9822,0.9822,0.9822,0.9822,0.9822,0.9822,0.9822,0.9846,0.9731,0.8986,0.258,0.0,0.0,0.0,0.0,0.0,0.0,0.0,0.0,0.0,0.0,0.0,0.0,0.0,0.0,0.0,0.0,-0.0,-0.0246,-0.4925,-0.9781,-0.9781,-0.9781,-0.9771,-0.9741,-0.9852,-0.9849,-0.9825,-0.9822,-0.9822,-0.9822,-0.9822,-0.9822,-0.9822,-0.9822,-0.9822,-0.9822,-0.9822,-0.9822,-0.9822,-0.9822,-0.9822,-0.9822,-0.9822,-0.9822,-0.9822,-0.9822,-1.0539,-1.2097,-1.2213,-1.3053,-1.4599,-1.4723,-1.5429,-1.7085,-1.7085,-1.7929,-1.9786,-1.98,-2.0094,-2.0661,-2.0661,-2.0815,0.0,0.0,1.7729,1.8337,1.849,1.8644,1.9232,1.9366,1.9366,1.9366,1.9366,1.9366,1.9366,1.9366,1.9366,0.0,0.0,1.9366,0.0,1.9366,1.9366,1.9366,1.7929,1.6968,1.6968,1.5548,1.3889,1.2333,1.2213,1.1499,0.994,0.9822,0.9822,0.9822,0.9822,0.9822,0.9822,0.9822,0.9822,0.9822,0.9822,0.9822,0.9822,0.9822,0.9822,0.9822,0.9829,0.9842,0.9609,0.7375,0.3929,0.0,0.0,0.0,0.0,0.0,0.0,0.0,0.0,0.0,0.0,0.0,0.0,0.0,0.0,0.0,0.0,0.0,-0.1599,-0.3321,-0.3315,-0.3314,-0.3313,-0.3309,-0.6628,-0.9852,-0.9846,-0.9832,-0.9822,-0.9822,-0.9822,-0.9822,-0.9822,-0.9822,-0.9822,-0.9822,-0.9822,-0.9822,-0.9822,-0.9822,-0.9822,-0.9822,-0.9822,-0.9822,-0.9822,-0.9822,-1.0061,-1.0539,-1.066,-1.1378,-1.2933,-1.3053,-1.3765,-1.5429,-1.5454,-1.5811,-1.6501,-1.6831,-1.7706,-1.9025,-1.9197,-1.9853,1.7582,1.7996,0.0,1.8447,1.8809,0.0,1.9347,1.9366,1.9366,1.9366,1.9366,1.9366,1.9366,1.9366,1.9366,0.0,0.0,1.9366,0.0,1.9366,1.9366,1.9366,1.8525,1.7683,1.7085,1.6615,1.5192,1.2453,1.2693,1.2093,0.994,0.9822,0.9822,0.9822,0.9822,0.9822,0.9822,0.9822,0.9822,0.9822,0.9822,0.9822,0.9822,0.9822,0.9822,0.9822,0.9822,0.9829,0.9842,0.9852,0.7253,0.3193,0.086,0.0,0.0,0.0,0.0,0.0,0.0,0.0,0.0,0.0,0.0,0.0,0.0,0.0,0.0,0.0,0.0,0.0,0.0,0.0,0.0,0.0,-0.3188,-0.6999,-0.9233,-0.9836,-0.9822,-0.9822,-0.9822,-0.9822,-0.9822,-0.9822,-0.9822,-0.9822,-0.9822,-0.9822,-0.9822,-0.9822,-0.9822,-0.9822,-0.9822,-0.9822,-0.9822,-0.9822,-0.9822,-0.9822,-0.9822,-1.0301,-1.1257,-1.1378,-1.2093,-1.3765,-1.3849,-1.4353,-1.5034,-1.5282,-1.6139,-1.7368,-1.8175,-1.9158]}]]